﻿<?xml version="1.0" encoding="UTF-8" standalone="no" ?>
<gpx xmlns="http://www.topografix.com/GPX/1/1" creator="CompeGPS" version="1.1" xmlns:xsi="http://www.w3.org/2001/XMLSchema-instance" xsi:schemaLocation="http://www.topografix.com/GPX/1/1 http://www.topografix.com/GPX/1/1/gpx.xsd">
  <metadata>
    <link href="http://www.compegps.com">
      <text>CompeGPS TEAM, SL</text>
    </link>
    <time>2023-07-07T09:29:51Z</time>
    <bounds maxlat="40.330849" maxlon="-5.843002" minlat="37.956857" minlon="-6.483578"/>
  </metadata>
  <trk>
    <name>Eurovelo 1 Extremadura</name>
    <trkseg>
      <trkpt lat="37.956857" lon="-6.159722">
        <ele>439.6</ele>
        <time>1970-01-01T00:00:00Z</time>
      </trkpt>
      <trkpt lat="37.956860" lon="-6.159723">
        <ele>439.5</ele>
        <time>1970-01-01T00:00:00Z</time>
      </trkpt>
      <trkpt lat="37.958052" lon="-6.160574">
        <ele>433.5</ele>
        <time>1970-01-01T00:00:00Z</time>
      </trkpt>
      <trkpt lat="37.958389" lon="-6.161014">
        <ele>437.2</ele>
        <time>1970-01-01T00:00:00Z</time>
      </trkpt>
      <trkpt lat="37.958674" lon="-6.161435">
        <ele>441.4</ele>
        <time>1970-01-01T00:00:00Z</time>
      </trkpt>
      <trkpt lat="37.959285" lon="-6.161956">
        <ele>446.5</ele>
        <time>1970-01-01T00:00:00Z</time>
      </trkpt>
      <trkpt lat="37.959668" lon="-6.162200">
        <ele>446.0</ele>
        <time>1970-01-01T00:00:00Z</time>
      </trkpt>
      <trkpt lat="37.961328" lon="-6.162372">
        <ele>449.4</ele>
        <time>1970-01-01T00:00:00Z</time>
      </trkpt>
      <trkpt lat="37.961726" lon="-6.162235">
        <ele>450.8</ele>
        <time>1970-01-01T00:00:00Z</time>
      </trkpt>
      <trkpt lat="37.961969" lon="-6.162232">
        <ele>451.0</ele>
        <time>1970-01-01T00:00:00Z</time>
      </trkpt>
      <trkpt lat="37.963860" lon="-6.162774">
        <ele>453.2</ele>
        <time>1970-01-01T00:00:00Z</time>
      </trkpt>
      <trkpt lat="37.965424" lon="-6.162892">
        <ele>467.0</ele>
        <time>1970-01-01T00:00:00Z</time>
      </trkpt>
      <trkpt lat="37.967542" lon="-6.163246">
        <ele>469.0</ele>
        <time>1970-01-01T00:00:00Z</time>
      </trkpt>
      <trkpt lat="37.967794" lon="-6.163340">
        <ele>471.0</ele>
        <time>1970-01-01T00:00:00Z</time>
      </trkpt>
      <trkpt lat="37.969255" lon="-6.164724">
        <ele>478.2</ele>
        <time>1970-01-01T00:00:00Z</time>
      </trkpt>
      <trkpt lat="37.969481" lon="-6.164829">
        <ele>478.8</ele>
        <time>1970-01-01T00:00:00Z</time>
      </trkpt>
      <trkpt lat="37.969966" lon="-6.165057">
        <ele>480.2</ele>
        <time>1970-01-01T00:00:00Z</time>
      </trkpt>
      <trkpt lat="37.971716" lon="-6.165202">
        <ele>488.5</ele>
        <time>1970-01-01T00:00:00Z</time>
      </trkpt>
      <trkpt lat="37.972093" lon="-6.165420">
        <ele>490.6</ele>
        <time>1970-01-01T00:00:00Z</time>
      </trkpt>
      <trkpt lat="37.972363" lon="-6.165535">
        <ele>491.1</ele>
        <time>1970-01-01T00:00:00Z</time>
      </trkpt>
      <trkpt lat="37.973457" lon="-6.165712">
        <ele>492.3</ele>
        <time>1970-01-01T00:00:00Z</time>
      </trkpt>
      <trkpt lat="37.974808" lon="-6.166533">
        <ele>489.4</ele>
        <time>1970-01-01T00:00:00Z</time>
      </trkpt>
      <trkpt lat="37.976533" lon="-6.166905">
        <ele>491.1</ele>
        <time>1970-01-01T00:00:00Z</time>
      </trkpt>
      <trkpt lat="37.977449" lon="-6.166911">
        <ele>494.0</ele>
        <time>1970-01-01T00:00:00Z</time>
      </trkpt>
      <trkpt lat="37.978650" lon="-6.166694">
        <ele>500.1</ele>
        <time>1970-01-01T00:00:00Z</time>
      </trkpt>
      <trkpt lat="37.980783" lon="-6.167235">
        <ele>506.2</ele>
        <time>1970-01-01T00:00:00Z</time>
      </trkpt>
      <trkpt lat="37.981092" lon="-6.167343">
        <ele>507.4</ele>
        <time>1970-01-01T00:00:00Z</time>
      </trkpt>
      <trkpt lat="37.981942" lon="-6.167622">
        <ele>510.0</ele>
        <time>1970-01-01T00:00:00Z</time>
      </trkpt>
      <trkpt lat="37.984603" lon="-6.169598">
        <ele>511.2</ele>
        <time>1970-01-01T00:00:00Z</time>
      </trkpt>
      <trkpt lat="37.986766" lon="-6.172420">
        <ele>520.0</ele>
        <time>1970-01-01T00:00:00Z</time>
      </trkpt>
      <trkpt lat="37.988026" lon="-6.174389">
        <ele>518.2</ele>
        <time>1970-01-01T00:00:00Z</time>
      </trkpt>
      <trkpt lat="37.988926" lon="-6.175502">
        <ele>513.3</ele>
        <time>1970-01-01T00:00:00Z</time>
      </trkpt>
      <trkpt lat="37.990556" lon="-6.176789">
        <ele>514.5</ele>
        <time>1970-01-01T00:00:00Z</time>
      </trkpt>
      <trkpt lat="37.991180" lon="-6.177793">
        <ele>515.3</ele>
        <time>1970-01-01T00:00:00Z</time>
      </trkpt>
      <trkpt lat="37.991753" lon="-6.178560">
        <ele>516.4</ele>
        <time>1970-01-01T00:00:00Z</time>
      </trkpt>
      <trkpt lat="37.992042" lon="-6.178924">
        <ele>517.8</ele>
        <time>1970-01-01T00:00:00Z</time>
      </trkpt>
      <trkpt lat="37.992178" lon="-6.179169">
        <ele>517.5</ele>
        <time>1970-01-01T00:00:00Z</time>
      </trkpt>
      <trkpt lat="37.992871" lon="-6.179520">
        <ele>517.6</ele>
        <time>1970-01-01T00:00:00Z</time>
      </trkpt>
      <trkpt lat="37.993410" lon="-6.180534">
        <ele>513.3</ele>
        <time>1970-01-01T00:00:00Z</time>
      </trkpt>
      <trkpt lat="37.993716" lon="-6.180923">
        <ele>512.6</ele>
        <time>1970-01-01T00:00:00Z</time>
      </trkpt>
      <trkpt lat="37.994359" lon="-6.181451">
        <ele>515.1</ele>
        <time>1970-01-01T00:00:00Z</time>
      </trkpt>
      <trkpt lat="37.994701" lon="-6.181521">
        <ele>517.6</ele>
        <time>1970-01-01T00:00:00Z</time>
      </trkpt>
      <trkpt lat="37.994976" lon="-6.181642">
        <ele>519.2</ele>
        <time>1970-01-01T00:00:00Z</time>
      </trkpt>
      <trkpt lat="37.995314" lon="-6.182293">
        <ele>517.6</ele>
        <time>1970-01-01T00:00:00Z</time>
      </trkpt>
      <trkpt lat="37.995779" lon="-6.182808">
        <ele>516.4</ele>
        <time>1970-01-01T00:00:00Z</time>
      </trkpt>
      <trkpt lat="37.996470" lon="-6.183455">
        <ele>515.6</ele>
        <time>1970-01-01T00:00:00Z</time>
      </trkpt>
      <trkpt lat="37.997725" lon="-6.184029">
        <ele>516.9</ele>
        <time>1970-01-01T00:00:00Z</time>
      </trkpt>
      <trkpt lat="37.998583" lon="-6.185201">
        <ele>515.1</ele>
        <time>1970-01-01T00:00:00Z</time>
      </trkpt>
      <trkpt lat="37.999112" lon="-6.185523">
        <ele>516.0</ele>
        <time>1970-01-01T00:00:00Z</time>
      </trkpt>
      <trkpt lat="37.999623" lon="-6.185780">
        <ele>514.9</ele>
        <time>1970-01-01T00:00:00Z</time>
      </trkpt>
      <trkpt lat="37.999949" lon="-6.185753">
        <ele>515.4</ele>
        <time>1970-01-01T00:00:00Z</time>
      </trkpt>
      <trkpt lat="38.000131" lon="-6.185732">
        <ele>516.4</ele>
        <time>1970-01-01T00:00:00Z</time>
      </trkpt>
      <trkpt lat="38.000955" lon="-6.186188">
        <ele>516.8</ele>
        <time>1970-01-01T00:00:00Z</time>
      </trkpt>
      <trkpt lat="38.001340" lon="-6.186719">
        <ele>512.1</ele>
        <time>1970-01-01T00:00:00Z</time>
      </trkpt>
      <trkpt lat="38.002333" lon="-6.187341">
        <ele>513.1</ele>
        <time>1970-01-01T00:00:00Z</time>
      </trkpt>
      <trkpt lat="38.002726" lon="-6.187813">
        <ele>511.8</ele>
        <time>1970-01-01T00:00:00Z</time>
      </trkpt>
      <trkpt lat="38.003009" lon="-6.188065">
        <ele>510.3</ele>
        <time>1970-01-01T00:00:00Z</time>
      </trkpt>
      <trkpt lat="38.003943" lon="-6.188167">
        <ele>514.8</ele>
        <time>1970-01-01T00:00:00Z</time>
      </trkpt>
      <trkpt lat="38.004265" lon="-6.188774">
        <ele>511.4</ele>
        <time>1970-01-01T00:00:00Z</time>
      </trkpt>
      <trkpt lat="38.004607" lon="-6.189101">
        <ele>511.4</ele>
        <time>1970-01-01T00:00:00Z</time>
      </trkpt>
      <trkpt lat="38.004751" lon="-6.189358">
        <ele>511.6</ele>
        <time>1970-01-01T00:00:00Z</time>
      </trkpt>
      <trkpt lat="38.004886" lon="-6.189943">
        <ele>510.4</ele>
        <time>1970-01-01T00:00:00Z</time>
      </trkpt>
      <trkpt lat="38.005609" lon="-6.190656">
        <ele>510.0</ele>
        <time>1970-01-01T00:00:00Z</time>
      </trkpt>
      <trkpt lat="38.005736" lon="-6.191032">
        <ele>507.9</ele>
        <time>1970-01-01T00:00:00Z</time>
      </trkpt>
      <trkpt lat="38.006087" lon="-6.191853">
        <ele>505.8</ele>
        <time>1970-01-01T00:00:00Z</time>
      </trkpt>
      <trkpt lat="38.006784" lon="-6.193076">
        <ele>501.6</ele>
        <time>1970-01-01T00:00:00Z</time>
      </trkpt>
      <trkpt lat="38.007663" lon="-6.194057">
        <ele>499.1</ele>
        <time>1970-01-01T00:00:00Z</time>
      </trkpt>
      <trkpt lat="38.007883" lon="-6.194535">
        <ele>496.9</ele>
        <time>1970-01-01T00:00:00Z</time>
      </trkpt>
      <trkpt lat="38.008716" lon="-6.195309">
        <ele>496.0</ele>
        <time>1970-01-01T00:00:00Z</time>
      </trkpt>
      <trkpt lat="38.008931" lon="-6.195457">
        <ele>496.0</ele>
        <time>1970-01-01T00:00:00Z</time>
      </trkpt>
      <trkpt lat="38.009109" lon="-6.195610">
        <ele>497.1</ele>
        <time>1970-01-01T00:00:00Z</time>
      </trkpt>
      <trkpt lat="38.009293" lon="-6.196342">
        <ele>496.3</ele>
        <time>1970-01-01T00:00:00Z</time>
      </trkpt>
      <trkpt lat="38.010136" lon="-6.197734">
        <ele>499.0</ele>
        <time>1970-01-01T00:00:00Z</time>
      </trkpt>
      <trkpt lat="38.010531" lon="-6.198158">
        <ele>496.4</ele>
        <time>1970-01-01T00:00:00Z</time>
      </trkpt>
      <trkpt lat="38.011987" lon="-6.199397">
        <ele>493.7</ele>
        <time>1970-01-01T00:00:00Z</time>
      </trkpt>
      <trkpt lat="38.012716" lon="-6.199663">
        <ele>496.6</ele>
        <time>1970-01-01T00:00:00Z</time>
      </trkpt>
      <trkpt lat="38.012892" lon="-6.199751">
        <ele>497.5</ele>
        <time>1970-01-01T00:00:00Z</time>
      </trkpt>
      <trkpt lat="38.015111" lon="-6.201232">
        <ele>506.3</ele>
        <time>1970-01-01T00:00:00Z</time>
      </trkpt>
      <trkpt lat="38.015966" lon="-6.203737">
        <ele>503.0</ele>
        <time>1970-01-01T00:00:00Z</time>
      </trkpt>
      <trkpt lat="38.016653" lon="-6.204890">
        <ele>498.9</ele>
        <time>1970-01-01T00:00:00Z</time>
      </trkpt>
      <trkpt lat="38.018432" lon="-6.206602">
        <ele>500.8</ele>
        <time>1970-01-01T00:00:00Z</time>
      </trkpt>
      <trkpt lat="38.019664" lon="-6.208061">
        <ele>501.5</ele>
        <time>1970-01-01T00:00:00Z</time>
      </trkpt>
      <trkpt lat="38.020486" lon="-6.208546">
        <ele>502.8</ele>
        <time>1970-01-01T00:00:00Z</time>
      </trkpt>
      <trkpt lat="38.022158" lon="-6.210252">
        <ele>500.0</ele>
        <time>1970-01-01T00:00:00Z</time>
      </trkpt>
      <trkpt lat="38.023153" lon="-6.210990">
        <ele>496.0</ele>
        <time>1970-01-01T00:00:00Z</time>
      </trkpt>
      <trkpt lat="38.023764" lon="-6.211215">
        <ele>496.2</ele>
        <time>1970-01-01T00:00:00Z</time>
      </trkpt>
      <trkpt lat="38.024209" lon="-6.211207">
        <ele>501.2</ele>
        <time>1970-01-01T00:00:00Z</time>
      </trkpt>
      <trkpt lat="38.024873" lon="-6.212344">
        <ele>501.2</ele>
        <time>1970-01-01T00:00:00Z</time>
      </trkpt>
      <trkpt lat="38.024970" lon="-6.212661">
        <ele>500.6</ele>
        <time>1970-01-01T00:00:00Z</time>
      </trkpt>
      <trkpt lat="38.025388" lon="-6.213602">
        <ele>499.9</ele>
        <time>1970-01-01T00:00:00Z</time>
      </trkpt>
      <trkpt lat="38.025830" lon="-6.214471">
        <ele>500.0</ele>
        <time>1970-01-01T00:00:00Z</time>
      </trkpt>
      <trkpt lat="38.026561" lon="-6.215276">
        <ele>501.2</ele>
        <time>1970-01-01T00:00:00Z</time>
      </trkpt>
      <trkpt lat="38.026806" lon="-6.215957">
        <ele>502.0</ele>
        <time>1970-01-01T00:00:00Z</time>
      </trkpt>
      <trkpt lat="38.027241" lon="-6.216582">
        <ele>504.9</ele>
        <time>1970-01-01T00:00:00Z</time>
      </trkpt>
      <trkpt lat="38.027565" lon="-6.217046">
        <ele>511.2</ele>
        <time>1970-01-01T00:00:00Z</time>
      </trkpt>
      <trkpt lat="38.027645" lon="-6.217477">
        <ele>514.3</ele>
        <time>1970-01-01T00:00:00Z</time>
      </trkpt>
      <trkpt lat="38.027588" lon="-6.217730">
        <ele>515.8</ele>
        <time>1970-01-01T00:00:00Z</time>
      </trkpt>
      <trkpt lat="38.027308" lon="-6.218220">
        <ele>516.7</ele>
        <time>1970-01-01T00:00:00Z</time>
      </trkpt>
      <trkpt lat="38.027006" lon="-6.218958">
        <ele>517.9</ele>
        <time>1970-01-01T00:00:00Z</time>
      </trkpt>
      <trkpt lat="38.026882" lon="-6.219882">
        <ele>517.6</ele>
        <time>1970-01-01T00:00:00Z</time>
      </trkpt>
      <trkpt lat="38.026797" lon="-6.220023">
        <ele>516.7</ele>
        <time>1970-01-01T00:00:00Z</time>
      </trkpt>
      <trkpt lat="38.026659" lon="-6.220346">
        <ele>515.5</ele>
        <time>1970-01-01T00:00:00Z</time>
      </trkpt>
      <trkpt lat="38.026810" lon="-6.220570">
        <ele>514.6</ele>
        <time>1970-01-01T00:00:00Z</time>
      </trkpt>
      <trkpt lat="38.028076" lon="-6.221196">
        <ele>509.2</ele>
        <time>1970-01-01T00:00:00Z</time>
      </trkpt>
      <trkpt lat="38.028576" lon="-6.221309">
        <ele>510.5</ele>
        <time>1970-01-01T00:00:00Z</time>
      </trkpt>
      <trkpt lat="38.028875" lon="-6.221725">
        <ele>515.2</ele>
        <time>1970-01-01T00:00:00Z</time>
      </trkpt>
      <trkpt lat="38.029206" lon="-6.221692">
        <ele>515.7</ele>
        <time>1970-01-01T00:00:00Z</time>
      </trkpt>
      <trkpt lat="38.029462" lon="-6.221813">
        <ele>516.0</ele>
        <time>1970-01-01T00:00:00Z</time>
      </trkpt>
      <trkpt lat="38.030899" lon="-6.223564">
        <ele>524.0</ele>
        <time>1970-01-01T00:00:00Z</time>
      </trkpt>
      <trkpt lat="38.031383" lon="-6.223841">
        <ele>523.5</ele>
        <time>1970-01-01T00:00:00Z</time>
      </trkpt>
      <trkpt lat="38.032797" lon="-6.223964">
        <ele>524.0</ele>
        <time>1970-01-01T00:00:00Z</time>
      </trkpt>
      <trkpt lat="38.033543" lon="-6.223918">
        <ele>526.2</ele>
        <time>1970-01-01T00:00:00Z</time>
      </trkpt>
      <trkpt lat="38.034030" lon="-6.223917">
        <ele>531.2</ele>
        <time>1970-01-01T00:00:00Z</time>
      </trkpt>
      <trkpt lat="38.034820" lon="-6.224158">
        <ele>535.7</ele>
        <time>1970-01-01T00:00:00Z</time>
      </trkpt>
      <trkpt lat="38.035416" lon="-6.224651">
        <ele>540.7</ele>
        <time>1970-01-01T00:00:00Z</time>
      </trkpt>
      <trkpt lat="38.036277" lon="-6.226011">
        <ele>549.5</ele>
        <time>1970-01-01T00:00:00Z</time>
      </trkpt>
      <trkpt lat="38.036746" lon="-6.226796">
        <ele>550.6</ele>
        <time>1970-01-01T00:00:00Z</time>
      </trkpt>
      <trkpt lat="38.036933" lon="-6.227093">
        <ele>550.7</ele>
        <time>1970-01-01T00:00:00Z</time>
      </trkpt>
      <trkpt lat="38.037894" lon="-6.228152">
        <ele>547.9</ele>
        <time>1970-01-01T00:00:00Z</time>
      </trkpt>
      <trkpt lat="38.044032" lon="-6.232747">
        <ele>554.0</ele>
        <time>1970-01-01T00:00:00Z</time>
      </trkpt>
      <trkpt lat="38.045910" lon="-6.234310">
        <ele>549.4</ele>
        <time>1970-01-01T00:00:00Z</time>
      </trkpt>
      <trkpt lat="38.047293" lon="-6.235075">
        <ele>554.0</ele>
        <time>1970-01-01T00:00:00Z</time>
      </trkpt>
      <trkpt lat="38.050998" lon="-6.237599">
        <ele>567.3</ele>
        <time>1970-01-01T00:00:00Z</time>
      </trkpt>
      <trkpt lat="38.052538" lon="-6.238350">
        <ele>569.3</ele>
        <time>1970-01-01T00:00:00Z</time>
      </trkpt>
      <trkpt lat="38.053169" lon="-6.238543">
        <ele>575.3</ele>
        <time>1970-01-01T00:00:00Z</time>
      </trkpt>
      <trkpt lat="38.055786" lon="-6.238108">
        <ele>594.8</ele>
        <time>1970-01-01T00:00:00Z</time>
      </trkpt>
      <trkpt lat="38.057410" lon="-6.238057">
        <ele>593.2</ele>
        <time>1970-01-01T00:00:00Z</time>
      </trkpt>
      <trkpt lat="38.058040" lon="-6.238240">
        <ele>597.7</ele>
        <time>1970-01-01T00:00:00Z</time>
      </trkpt>
      <trkpt lat="38.062257" lon="-6.240825">
        <ele>620.1</ele>
        <time>1970-01-01T00:00:00Z</time>
      </trkpt>
      <trkpt lat="38.062570" lon="-6.241032">
        <ele>621.3</ele>
        <time>1970-01-01T00:00:00Z</time>
      </trkpt>
      <trkpt lat="38.064512" lon="-6.242682">
        <ele>622.5</ele>
        <time>1970-01-01T00:00:00Z</time>
      </trkpt>
      <trkpt lat="38.066256" lon="-6.243615">
        <ele>631.5</ele>
        <time>1970-01-01T00:00:00Z</time>
      </trkpt>
      <trkpt lat="38.068502" lon="-6.243593">
        <ele>652.0</ele>
        <time>1970-01-01T00:00:00Z</time>
      </trkpt>
      <trkpt lat="38.069138" lon="-6.243868">
        <ele>662.5</ele>
        <time>1970-01-01T00:00:00Z</time>
      </trkpt>
      <trkpt lat="38.069560" lon="-6.244316">
        <ele>667.2</ele>
        <time>1970-01-01T00:00:00Z</time>
      </trkpt>
      <trkpt lat="38.069821" lon="-6.244842">
        <ele>671.5</ele>
        <time>1970-01-01T00:00:00Z</time>
      </trkpt>
      <trkpt lat="38.069864" lon="-6.244979">
        <ele>672.0</ele>
        <time>1970-01-01T00:00:00Z</time>
      </trkpt>
      <trkpt lat="38.070280" lon="-6.246798">
        <ele>679.8</ele>
        <time>1970-01-01T00:00:00Z</time>
      </trkpt>
      <trkpt lat="38.070403" lon="-6.247030">
        <ele>681.7</ele>
        <time>1970-01-01T00:00:00Z</time>
      </trkpt>
      <trkpt lat="38.070694" lon="-6.247430">
        <ele>684.5</ele>
        <time>1970-01-01T00:00:00Z</time>
      </trkpt>
      <trkpt lat="38.071905" lon="-6.248600">
        <ele>699.4</ele>
        <time>1970-01-01T00:00:00Z</time>
      </trkpt>
      <trkpt lat="38.072532" lon="-6.249449">
        <ele>707.4</ele>
        <time>1970-01-01T00:00:00Z</time>
      </trkpt>
      <trkpt lat="38.072794" lon="-6.249941">
        <ele>710.1</ele>
        <time>1970-01-01T00:00:00Z</time>
      </trkpt>
      <trkpt lat="38.073729" lon="-6.252016">
        <ele>715.1</ele>
        <time>1970-01-01T00:00:00Z</time>
      </trkpt>
      <trkpt lat="38.074477" lon="-6.253194">
        <ele>720.4</ele>
        <time>1970-01-01T00:00:00Z</time>
      </trkpt>
      <trkpt lat="38.075831" lon="-6.254918">
        <ele>722.9</ele>
        <time>1970-01-01T00:00:00Z</time>
      </trkpt>
      <trkpt lat="38.076486" lon="-6.255535">
        <ele>724.6</ele>
        <time>1970-01-01T00:00:00Z</time>
      </trkpt>
      <trkpt lat="38.077911" lon="-6.256463">
        <ele>741.6</ele>
        <time>1970-01-01T00:00:00Z</time>
      </trkpt>
      <trkpt lat="38.078508" lon="-6.256791">
        <ele>744.6</ele>
        <time>1970-01-01T00:00:00Z</time>
      </trkpt>
      <trkpt lat="38.078738" lon="-6.256944">
        <ele>743.3</ele>
        <time>1970-01-01T00:00:00Z</time>
      </trkpt>
      <trkpt lat="38.078927" lon="-6.257080">
        <ele>743.0</ele>
        <time>1970-01-01T00:00:00Z</time>
      </trkpt>
      <trkpt lat="38.079189" lon="-6.257330">
        <ele>742.3</ele>
        <time>1970-01-01T00:00:00Z</time>
      </trkpt>
      <trkpt lat="38.079776" lon="-6.258315">
        <ele>738.4</ele>
        <time>1970-01-01T00:00:00Z</time>
      </trkpt>
      <trkpt lat="38.080580" lon="-6.261764">
        <ele>735.3</ele>
        <time>1970-01-01T00:00:00Z</time>
      </trkpt>
      <trkpt lat="38.080804" lon="-6.262185">
        <ele>737.0</ele>
        <time>1970-01-01T00:00:00Z</time>
      </trkpt>
      <trkpt lat="38.080905" lon="-6.262354">
        <ele>737.1</ele>
        <time>1970-01-01T00:00:00Z</time>
      </trkpt>
      <trkpt lat="38.081021" lon="-6.262566">
        <ele>737.0</ele>
        <time>1970-01-01T00:00:00Z</time>
      </trkpt>
      <trkpt lat="38.081067" lon="-6.262772">
        <ele>736.6</ele>
        <time>1970-01-01T00:00:00Z</time>
      </trkpt>
      <trkpt lat="38.081086" lon="-6.262925">
        <ele>736.5</ele>
        <time>1970-01-01T00:00:00Z</time>
      </trkpt>
      <trkpt lat="38.081450" lon="-6.263236">
        <ele>735.9</ele>
        <time>1970-01-01T00:00:00Z</time>
      </trkpt>
      <trkpt lat="38.081857" lon="-6.263907">
        <ele>737.0</ele>
        <time>1970-01-01T00:00:00Z</time>
      </trkpt>
      <trkpt lat="38.083263" lon="-6.267512">
        <ele>727.6</ele>
        <time>1970-01-01T00:00:00Z</time>
      </trkpt>
      <trkpt lat="38.083772" lon="-6.268172">
        <ele>729.3</ele>
        <time>1970-01-01T00:00:00Z</time>
      </trkpt>
      <trkpt lat="38.084680" lon="-6.268899">
        <ele>731.0</ele>
        <time>1970-01-01T00:00:00Z</time>
      </trkpt>
      <trkpt lat="38.085315" lon="-6.269188">
        <ele>734.7</ele>
        <time>1970-01-01T00:00:00Z</time>
      </trkpt>
      <trkpt lat="38.086162" lon="-6.271101">
        <ele>749.4</ele>
        <time>1970-01-01T00:00:00Z</time>
      </trkpt>
      <trkpt lat="38.086269" lon="-6.271331">
        <ele>750.8</ele>
        <time>1970-01-01T00:00:00Z</time>
      </trkpt>
      <trkpt lat="38.086658" lon="-6.271707">
        <ele>752.8</ele>
        <time>1970-01-01T00:00:00Z</time>
      </trkpt>
      <trkpt lat="38.087808" lon="-6.272487">
        <ele>747.5</ele>
        <time>1970-01-01T00:00:00Z</time>
      </trkpt>
      <trkpt lat="38.088327" lon="-6.272638">
        <ele>747.0</ele>
        <time>1970-01-01T00:00:00Z</time>
      </trkpt>
      <trkpt lat="38.088640" lon="-6.272710">
        <ele>745.8</ele>
        <time>1970-01-01T00:00:00Z</time>
      </trkpt>
      <trkpt lat="38.090267" lon="-6.273346">
        <ele>737.3</ele>
        <time>1970-01-01T00:00:00Z</time>
      </trkpt>
      <trkpt lat="38.090981" lon="-6.273448">
        <ele>735.8</ele>
        <time>1970-01-01T00:00:00Z</time>
      </trkpt>
      <trkpt lat="38.094462" lon="-6.276661">
        <ele>719.7</ele>
        <time>1970-01-01T00:00:00Z</time>
      </trkpt>
      <trkpt lat="38.095163" lon="-6.277187">
        <ele>711.1</ele>
        <time>1970-01-01T00:00:00Z</time>
      </trkpt>
      <trkpt lat="38.096020" lon="-6.277602">
        <ele>706.9</ele>
        <time>1970-01-01T00:00:00Z</time>
      </trkpt>
      <trkpt lat="38.098040" lon="-6.278989">
        <ele>709.3</ele>
        <time>1970-01-01T00:00:00Z</time>
      </trkpt>
      <trkpt lat="38.101263" lon="-6.279379">
        <ele>723.4</ele>
        <time>1970-01-01T00:00:00Z</time>
      </trkpt>
      <trkpt lat="38.102895" lon="-6.279798">
        <ele>732.4</ele>
        <time>1970-01-01T00:00:00Z</time>
      </trkpt>
      <trkpt lat="38.103057" lon="-6.279776">
        <ele>736.7</ele>
        <time>1970-01-01T00:00:00Z</time>
      </trkpt>
      <trkpt lat="38.104034" lon="-6.279326">
        <ele>756.1</ele>
        <time>1970-01-01T00:00:00Z</time>
      </trkpt>
      <trkpt lat="38.105106" lon="-6.278042">
        <ele>750.5</ele>
        <time>1970-01-01T00:00:00Z</time>
      </trkpt>
      <trkpt lat="38.106655" lon="-6.276707">
        <ele>736.8</ele>
        <time>1970-01-01T00:00:00Z</time>
      </trkpt>
      <trkpt lat="38.107087" lon="-6.276446">
        <ele>730.5</ele>
        <time>1970-01-01T00:00:00Z</time>
      </trkpt>
      <trkpt lat="38.108283" lon="-6.276353">
        <ele>722.6</ele>
        <time>1970-01-01T00:00:00Z</time>
      </trkpt>
      <trkpt lat="38.109755" lon="-6.276829">
        <ele>719.5</ele>
        <time>1970-01-01T00:00:00Z</time>
      </trkpt>
      <trkpt lat="38.110621" lon="-6.276697">
        <ele>728.0</ele>
        <time>1970-01-01T00:00:00Z</time>
      </trkpt>
      <trkpt lat="38.110992" lon="-6.276495">
        <ele>734.8</ele>
        <time>1970-01-01T00:00:00Z</time>
      </trkpt>
      <trkpt lat="38.115267" lon="-6.272034">
        <ele>753.2</ele>
        <time>1970-01-01T00:00:00Z</time>
      </trkpt>
      <trkpt lat="38.115958" lon="-6.271424">
        <ele>746.0</ele>
        <time>1970-01-01T00:00:00Z</time>
      </trkpt>
      <trkpt lat="38.116193" lon="-6.271303">
        <ele>739.9</ele>
        <time>1970-01-01T00:00:00Z</time>
      </trkpt>
      <trkpt lat="38.116944" lon="-6.271133">
        <ele>722.4</ele>
        <time>1970-01-01T00:00:00Z</time>
      </trkpt>
      <trkpt lat="38.117587" lon="-6.271246">
        <ele>716.2</ele>
        <time>1970-01-01T00:00:00Z</time>
      </trkpt>
      <trkpt lat="38.123913" lon="-6.275426">
        <ele>696.2</ele>
        <time>1970-01-01T00:00:00Z</time>
      </trkpt>
      <trkpt lat="38.125434" lon="-6.275959">
        <ele>692.9</ele>
        <time>1970-01-01T00:00:00Z</time>
      </trkpt>
      <trkpt lat="38.126202" lon="-6.275986">
        <ele>693.0</ele>
        <time>1970-01-01T00:00:00Z</time>
      </trkpt>
      <trkpt lat="38.127500" lon="-6.276236">
        <ele>694.8</ele>
        <time>1970-01-01T00:00:00Z</time>
      </trkpt>
      <trkpt lat="38.128692" lon="-6.277349">
        <ele>694.0</ele>
        <time>1970-01-01T00:00:00Z</time>
      </trkpt>
      <trkpt lat="38.129549" lon="-6.278167">
        <ele>689.6</ele>
        <time>1970-01-01T00:00:00Z</time>
      </trkpt>
      <trkpt lat="38.130308" lon="-6.278561">
        <ele>687.1</ele>
        <time>1970-01-01T00:00:00Z</time>
      </trkpt>
      <trkpt lat="38.132408" lon="-6.278862">
        <ele>681.3</ele>
        <time>1970-01-01T00:00:00Z</time>
      </trkpt>
      <trkpt lat="38.132756" lon="-6.278800">
        <ele>683.7</ele>
        <time>1970-01-01T00:00:00Z</time>
      </trkpt>
      <trkpt lat="38.133076" lon="-6.278695">
        <ele>687.8</ele>
        <time>1970-01-01T00:00:00Z</time>
      </trkpt>
      <trkpt lat="38.134944" lon="-6.277909">
        <ele>653.8</ele>
        <time>1970-01-01T00:00:00Z</time>
      </trkpt>
      <trkpt lat="38.136095" lon="-6.278154">
        <ele>643.1</ele>
        <time>1970-01-01T00:00:00Z</time>
      </trkpt>
      <trkpt lat="38.136790" lon="-6.278771">
        <ele>644.1</ele>
        <time>1970-01-01T00:00:00Z</time>
      </trkpt>
      <trkpt lat="38.137684" lon="-6.280319">
        <ele>633.0</ele>
        <time>1970-01-01T00:00:00Z</time>
      </trkpt>
      <trkpt lat="38.138376" lon="-6.281247">
        <ele>625.9</ele>
        <time>1970-01-01T00:00:00Z</time>
      </trkpt>
      <trkpt lat="38.138777" lon="-6.281601">
        <ele>622.6</ele>
        <time>1970-01-01T00:00:00Z</time>
      </trkpt>
      <trkpt lat="38.139834" lon="-6.282142">
        <ele>618.6</ele>
        <time>1970-01-01T00:00:00Z</time>
      </trkpt>
      <trkpt lat="38.141005" lon="-6.282236">
        <ele>610.6</ele>
        <time>1970-01-01T00:00:00Z</time>
      </trkpt>
      <trkpt lat="38.141701" lon="-6.282073">
        <ele>616.7</ele>
        <time>1970-01-01T00:00:00Z</time>
      </trkpt>
      <trkpt lat="38.142281" lon="-6.281788">
        <ele>624.4</ele>
        <time>1970-01-01T00:00:00Z</time>
      </trkpt>
      <trkpt lat="38.142570" lon="-6.281583">
        <ele>624.5</ele>
        <time>1970-01-01T00:00:00Z</time>
      </trkpt>
      <trkpt lat="38.143848" lon="-6.280231">
        <ele>620.2</ele>
        <time>1970-01-01T00:00:00Z</time>
      </trkpt>
      <trkpt lat="38.144717" lon="-6.279534">
        <ele>616.4</ele>
        <time>1970-01-01T00:00:00Z</time>
      </trkpt>
      <trkpt lat="38.146126" lon="-6.279129">
        <ele>585.7</ele>
        <time>1970-01-01T00:00:00Z</time>
      </trkpt>
      <trkpt lat="38.146569" lon="-6.279142">
        <ele>583.5</ele>
        <time>1970-01-01T00:00:00Z</time>
      </trkpt>
      <trkpt lat="38.147907" lon="-6.279730">
        <ele>586.1</ele>
        <time>1970-01-01T00:00:00Z</time>
      </trkpt>
      <trkpt lat="38.153657" lon="-6.284503">
        <ele>596.1</ele>
        <time>1970-01-01T00:00:00Z</time>
      </trkpt>
      <trkpt lat="38.154846" lon="-6.284964">
        <ele>594.2</ele>
        <time>1970-01-01T00:00:00Z</time>
      </trkpt>
      <trkpt lat="38.155338" lon="-6.285158">
        <ele>595.5</ele>
        <time>1970-01-01T00:00:00Z</time>
      </trkpt>
      <trkpt lat="38.156426" lon="-6.285506">
        <ele>599.0</ele>
        <time>1970-01-01T00:00:00Z</time>
      </trkpt>
      <trkpt lat="38.157436" lon="-6.285697">
        <ele>603.9</ele>
        <time>1970-01-01T00:00:00Z</time>
      </trkpt>
      <trkpt lat="38.158559" lon="-6.285882">
        <ele>612.3</ele>
        <time>1970-01-01T00:00:00Z</time>
      </trkpt>
      <trkpt lat="38.160278" lon="-6.285695">
        <ele>626.0</ele>
        <time>1970-01-01T00:00:00Z</time>
      </trkpt>
      <trkpt lat="38.160678" lon="-6.285542">
        <ele>630.9</ele>
        <time>1970-01-01T00:00:00Z</time>
      </trkpt>
      <trkpt lat="38.169102" lon="-6.280464">
        <ele>603.9</ele>
        <time>1970-01-01T00:00:00Z</time>
      </trkpt>
      <trkpt lat="38.169880" lon="-6.280134">
        <ele>591.7</ele>
        <time>1970-01-01T00:00:00Z</time>
      </trkpt>
      <trkpt lat="38.170515" lon="-6.280115">
        <ele>584.3</ele>
        <time>1970-01-01T00:00:00Z</time>
      </trkpt>
      <trkpt lat="38.177221" lon="-6.282033">
        <ele>596.8</ele>
        <time>1970-01-01T00:00:00Z</time>
      </trkpt>
      <trkpt lat="38.180198" lon="-6.282852">
        <ele>600.0</ele>
        <time>1970-01-01T00:00:00Z</time>
      </trkpt>
      <trkpt lat="38.180984" lon="-6.282967">
        <ele>601.2</ele>
        <time>1970-01-01T00:00:00Z</time>
      </trkpt>
      <trkpt lat="38.182593" lon="-6.282696">
        <ele>607.0</ele>
        <time>1970-01-01T00:00:00Z</time>
      </trkpt>
      <trkpt lat="38.183056" lon="-6.282490">
        <ele>614.0</ele>
        <time>1970-01-01T00:00:00Z</time>
      </trkpt>
      <trkpt lat="38.183480" lon="-6.282240">
        <ele>617.0</ele>
        <time>1970-01-01T00:00:00Z</time>
      </trkpt>
      <trkpt lat="38.185264" lon="-6.281044">
        <ele>614.0</ele>
        <time>1970-01-01T00:00:00Z</time>
      </trkpt>
      <trkpt lat="38.186027" lon="-6.280918">
        <ele>608.3</ele>
        <time>1970-01-01T00:00:00Z</time>
      </trkpt>
      <trkpt lat="38.186301" lon="-6.280964">
        <ele>606.3</ele>
        <time>1970-01-01T00:00:00Z</time>
      </trkpt>
      <trkpt lat="38.190992" lon="-6.283177">
        <ele>611.7</ele>
        <time>1970-01-01T00:00:00Z</time>
      </trkpt>
      <trkpt lat="38.200236" lon="-6.287649">
        <ele>597.9</ele>
        <time>1970-01-01T00:00:00Z</time>
      </trkpt>
      <trkpt lat="38.204095" lon="-6.289529">
        <ele>588.6</ele>
        <time>1970-01-01T00:00:00Z</time>
      </trkpt>
      <trkpt lat="38.204991" lon="-6.289896">
        <ele>584.2</ele>
        <time>1970-01-01T00:00:00Z</time>
      </trkpt>
      <trkpt lat="38.205374" lon="-6.289950">
        <ele>583.0</ele>
        <time>1970-01-01T00:00:00Z</time>
      </trkpt>
      <trkpt lat="38.207854" lon="-6.290068">
        <ele>587.0</ele>
        <time>1970-01-01T00:00:00Z</time>
      </trkpt>
      <trkpt lat="38.216015" lon="-6.290475">
        <ele>568.1</ele>
        <time>1970-01-01T00:00:00Z</time>
      </trkpt>
      <trkpt lat="38.216414" lon="-6.290619">
        <ele>568.9</ele>
        <time>1970-01-01T00:00:00Z</time>
      </trkpt>
      <trkpt lat="38.217457" lon="-6.291263">
        <ele>568.4</ele>
        <time>1970-01-01T00:00:00Z</time>
      </trkpt>
      <trkpt lat="38.218304" lon="-6.291800">
        <ele>564.3</ele>
        <time>1970-01-01T00:00:00Z</time>
      </trkpt>
      <trkpt lat="38.219619" lon="-6.292631">
        <ele>558.0</ele>
        <time>1970-01-01T00:00:00Z</time>
      </trkpt>
      <trkpt lat="38.221762" lon="-6.294053">
        <ele>555.0</ele>
        <time>1970-01-01T00:00:00Z</time>
      </trkpt>
      <trkpt lat="38.225062" lon="-6.297751">
        <ele>547.8</ele>
        <time>1970-01-01T00:00:00Z</time>
      </trkpt>
      <trkpt lat="38.225464" lon="-6.298103">
        <ele>546.5</ele>
        <time>1970-01-01T00:00:00Z</time>
      </trkpt>
      <trkpt lat="38.228972" lon="-6.299980">
        <ele>547.6</ele>
        <time>1970-01-01T00:00:00Z</time>
      </trkpt>
      <trkpt lat="38.230940" lon="-6.300450">
        <ele>552.5</ele>
        <time>1970-01-01T00:00:00Z</time>
      </trkpt>
      <trkpt lat="38.232015" lon="-6.300616">
        <ele>559.3</ele>
        <time>1970-01-01T00:00:00Z</time>
      </trkpt>
      <trkpt lat="38.233921" lon="-6.300587">
        <ele>559.0</ele>
        <time>1970-01-01T00:00:00Z</time>
      </trkpt>
      <trkpt lat="38.236698" lon="-6.300725">
        <ele>560.0</ele>
        <time>1970-01-01T00:00:00Z</time>
      </trkpt>
      <trkpt lat="38.239137" lon="-6.300895">
        <ele>560.1</ele>
        <time>1970-01-01T00:00:00Z</time>
      </trkpt>
      <trkpt lat="38.239902" lon="-6.301271">
        <ele>562.0</ele>
        <time>1970-01-01T00:00:00Z</time>
      </trkpt>
      <trkpt lat="38.240722" lon="-6.302001">
        <ele>573.7</ele>
        <time>1970-01-01T00:00:00Z</time>
      </trkpt>
      <trkpt lat="38.240871" lon="-6.302033">
        <ele>575.0</ele>
        <time>1970-01-01T00:00:00Z</time>
      </trkpt>
      <trkpt lat="38.242561" lon="-6.303275">
        <ele>579.2</ele>
        <time>1970-01-01T00:00:00Z</time>
      </trkpt>
      <trkpt lat="38.242976" lon="-6.303556">
        <ele>581.8</ele>
        <time>1970-01-01T00:00:00Z</time>
      </trkpt>
      <trkpt lat="38.244459" lon="-6.305101">
        <ele>583.3</ele>
        <time>1970-01-01T00:00:00Z</time>
      </trkpt>
      <trkpt lat="38.245162" lon="-6.306362">
        <ele>587.6</ele>
        <time>1970-01-01T00:00:00Z</time>
      </trkpt>
      <trkpt lat="38.246866" lon="-6.308640">
        <ele>586.0</ele>
        <time>1970-01-01T00:00:00Z</time>
      </trkpt>
      <trkpt lat="38.247157" lon="-6.308857">
        <ele>584.9</ele>
        <time>1970-01-01T00:00:00Z</time>
      </trkpt>
      <trkpt lat="38.247470" lon="-6.309174">
        <ele>582.1</ele>
        <time>1970-01-01T00:00:00Z</time>
      </trkpt>
      <trkpt lat="38.248059" lon="-6.309455">
        <ele>578.2</ele>
        <time>1970-01-01T00:00:00Z</time>
      </trkpt>
      <trkpt lat="38.248617" lon="-6.309380">
        <ele>578.0</ele>
        <time>1970-01-01T00:00:00Z</time>
      </trkpt>
      <trkpt lat="38.248786" lon="-6.309596">
        <ele>578.0</ele>
        <time>1970-01-01T00:00:00Z</time>
      </trkpt>
      <trkpt lat="38.248931" lon="-6.309303">
        <ele>578.6</ele>
        <time>1970-01-01T00:00:00Z</time>
      </trkpt>
      <trkpt lat="38.250462" lon="-6.309962">
        <ele>581.0</ele>
        <time>1970-01-01T00:00:00Z</time>
      </trkpt>
      <trkpt lat="38.250537" lon="-6.309991">
        <ele>581.0</ele>
        <time>1970-01-01T00:00:00Z</time>
      </trkpt>
      <trkpt lat="38.250603" lon="-6.309818">
        <ele>581.0</ele>
        <time>1970-01-01T00:00:00Z</time>
      </trkpt>
      <trkpt lat="38.250650" lon="-6.309889">
        <ele>581.0</ele>
        <time>1970-01-01T00:00:00Z</time>
      </trkpt>
      <trkpt lat="38.250880" lon="-6.310170">
        <ele>581.0</ele>
        <time>1970-01-01T00:00:00Z</time>
      </trkpt>
      <trkpt lat="38.253869" lon="-6.310652">
        <ele>579.9</ele>
        <time>1970-01-01T00:00:00Z</time>
      </trkpt>
      <trkpt lat="38.256600" lon="-6.310760">
        <ele>585.1</ele>
        <time>1970-01-01T00:00:00Z</time>
      </trkpt>
      <trkpt lat="38.257064" lon="-6.310803">
        <ele>586.9</ele>
        <time>1970-01-01T00:00:00Z</time>
      </trkpt>
      <trkpt lat="38.259937" lon="-6.310989">
        <ele>592.3</ele>
        <time>1970-01-01T00:00:00Z</time>
      </trkpt>
      <trkpt lat="38.261851" lon="-6.311288">
        <ele>586.9</ele>
        <time>1970-01-01T00:00:00Z</time>
      </trkpt>
      <trkpt lat="38.262586" lon="-6.311333">
        <ele>581.8</ele>
        <time>1970-01-01T00:00:00Z</time>
      </trkpt>
      <trkpt lat="38.265471" lon="-6.312143">
        <ele>583.6</ele>
        <time>1970-01-01T00:00:00Z</time>
      </trkpt>
      <trkpt lat="38.267236" lon="-6.312545">
        <ele>579.0</ele>
        <time>1970-01-01T00:00:00Z</time>
      </trkpt>
      <trkpt lat="38.269020" lon="-6.313149">
        <ele>569.6</ele>
        <time>1970-01-01T00:00:00Z</time>
      </trkpt>
      <trkpt lat="38.269987" lon="-6.313315">
        <ele>565.6</ele>
        <time>1970-01-01T00:00:00Z</time>
      </trkpt>
      <trkpt lat="38.271514" lon="-6.313358">
        <ele>559.9</ele>
        <time>1970-01-01T00:00:00Z</time>
      </trkpt>
      <trkpt lat="38.274361" lon="-6.314833">
        <ele>553.0</ele>
        <time>1970-01-01T00:00:00Z</time>
      </trkpt>
      <trkpt lat="38.275081" lon="-6.315131">
        <ele>556.5</ele>
        <time>1970-01-01T00:00:00Z</time>
      </trkpt>
      <trkpt lat="38.276081" lon="-6.315826">
        <ele>558.9</ele>
        <time>1970-01-01T00:00:00Z</time>
      </trkpt>
      <trkpt lat="38.277822" lon="-6.315753">
        <ele>550.8</ele>
        <time>1970-01-01T00:00:00Z</time>
      </trkpt>
      <trkpt lat="38.278732" lon="-6.315965">
        <ele>554.5</ele>
        <time>1970-01-01T00:00:00Z</time>
      </trkpt>
      <trkpt lat="38.279959" lon="-6.316483">
        <ele>557.9</ele>
        <time>1970-01-01T00:00:00Z</time>
      </trkpt>
      <trkpt lat="38.281019" lon="-6.317344">
        <ele>565.5</ele>
        <time>1970-01-01T00:00:00Z</time>
      </trkpt>
      <trkpt lat="38.281560" lon="-6.317808">
        <ele>567.2</ele>
        <time>1970-01-01T00:00:00Z</time>
      </trkpt>
      <trkpt lat="38.283191" lon="-6.318218">
        <ele>565.7</ele>
        <time>1970-01-01T00:00:00Z</time>
      </trkpt>
      <trkpt lat="38.283589" lon="-6.318266">
        <ele>566.5</ele>
        <time>1970-01-01T00:00:00Z</time>
      </trkpt>
      <trkpt lat="38.284410" lon="-6.318435">
        <ele>569.2</ele>
        <time>1970-01-01T00:00:00Z</time>
      </trkpt>
      <trkpt lat="38.285530" lon="-6.319307">
        <ele>576.5</ele>
        <time>1970-01-01T00:00:00Z</time>
      </trkpt>
      <trkpt lat="38.286377" lon="-6.319760">
        <ele>578.0</ele>
        <time>1970-01-01T00:00:00Z</time>
      </trkpt>
      <trkpt lat="38.287489" lon="-6.319795">
        <ele>580.8</ele>
        <time>1970-01-01T00:00:00Z</time>
      </trkpt>
      <trkpt lat="38.288138" lon="-6.319744">
        <ele>582.2</ele>
        <time>1970-01-01T00:00:00Z</time>
      </trkpt>
      <trkpt lat="38.291222" lon="-6.319085">
        <ele>575.4</ele>
        <time>1970-01-01T00:00:00Z</time>
      </trkpt>
      <trkpt lat="38.298307" lon="-6.318339">
        <ele>558.1</ele>
        <time>1970-01-01T00:00:00Z</time>
      </trkpt>
      <trkpt lat="38.298347" lon="-6.318186">
        <ele>558.1</ele>
        <time>1970-01-01T00:00:00Z</time>
      </trkpt>
      <trkpt lat="38.297951" lon="-6.317307">
        <ele>559.4</ele>
        <time>1970-01-01T00:00:00Z</time>
      </trkpt>
      <trkpt lat="38.297861" lon="-6.316713">
        <ele>560.0</ele>
        <time>1970-01-01T00:00:00Z</time>
      </trkpt>
      <trkpt lat="38.297720" lon="-6.315770">
        <ele>560.0</ele>
        <time>1970-01-01T00:00:00Z</time>
      </trkpt>
      <trkpt lat="38.297977" lon="-6.313978">
        <ele>556.4</ele>
        <time>1970-01-01T00:00:00Z</time>
      </trkpt>
      <trkpt lat="38.298047" lon="-6.313583">
        <ele>555.3</ele>
        <time>1970-01-01T00:00:00Z</time>
      </trkpt>
      <trkpt lat="38.298065" lon="-6.310960">
        <ele>539.4</ele>
        <time>1970-01-01T00:00:00Z</time>
      </trkpt>
      <trkpt lat="38.298118" lon="-6.310898">
        <ele>538.9</ele>
        <time>1970-01-01T00:00:00Z</time>
      </trkpt>
      <trkpt lat="38.301003" lon="-6.311139">
        <ele>533.0</ele>
        <time>1970-01-01T00:00:00Z</time>
      </trkpt>
      <trkpt lat="38.302862" lon="-6.311614">
        <ele>545.0</ele>
        <time>1970-01-01T00:00:00Z</time>
      </trkpt>
      <trkpt lat="38.303222" lon="-6.311762">
        <ele>543.5</ele>
        <time>1970-01-01T00:00:00Z</time>
      </trkpt>
      <trkpt lat="38.304685" lon="-6.312424">
        <ele>533.3</ele>
        <time>1970-01-01T00:00:00Z</time>
      </trkpt>
      <trkpt lat="38.306059" lon="-6.312673">
        <ele>533.1</ele>
        <time>1970-01-01T00:00:00Z</time>
      </trkpt>
      <trkpt lat="38.310230" lon="-6.313243">
        <ele>522.3</ele>
        <time>1970-01-01T00:00:00Z</time>
      </trkpt>
      <trkpt lat="38.316110" lon="-6.312712">
        <ele>497.0</ele>
        <time>1970-01-01T00:00:00Z</time>
      </trkpt>
      <trkpt lat="38.316405" lon="-6.312781">
        <ele>499.2</ele>
        <time>1970-01-01T00:00:00Z</time>
      </trkpt>
      <trkpt lat="38.319414" lon="-6.314750">
        <ele>503.4</ele>
        <time>1970-01-01T00:00:00Z</time>
      </trkpt>
      <trkpt lat="38.320079" lon="-6.315340">
        <ele>500.0</ele>
        <time>1970-01-01T00:00:00Z</time>
      </trkpt>
      <trkpt lat="38.320513" lon="-6.315780">
        <ele>500.0</ele>
        <time>1970-01-01T00:00:00Z</time>
      </trkpt>
      <trkpt lat="38.321502" lon="-6.316853">
        <ele>504.0</ele>
        <time>1970-01-01T00:00:00Z</time>
      </trkpt>
      <trkpt lat="38.323008" lon="-6.318500">
        <ele>492.6</ele>
        <time>1970-01-01T00:00:00Z</time>
      </trkpt>
      <trkpt lat="38.324725" lon="-6.320383">
        <ele>485.2</ele>
        <time>1970-01-01T00:00:00Z</time>
      </trkpt>
      <trkpt lat="38.325100" lon="-6.320731">
        <ele>481.5</ele>
        <time>1970-01-01T00:00:00Z</time>
      </trkpt>
      <trkpt lat="38.326076" lon="-6.321161">
        <ele>463.1</ele>
        <time>1970-01-01T00:00:00Z</time>
      </trkpt>
      <trkpt lat="38.331635" lon="-6.320383">
        <ele>502.2</ele>
        <time>1970-01-01T00:00:00Z</time>
      </trkpt>
      <trkpt lat="38.334968" lon="-6.319970">
        <ele>513.6</ele>
        <time>1970-01-01T00:00:00Z</time>
      </trkpt>
      <trkpt lat="38.336832" lon="-6.319465">
        <ele>510.7</ele>
        <time>1970-01-01T00:00:00Z</time>
      </trkpt>
      <trkpt lat="38.340430" lon="-6.318135">
        <ele>515.0</ele>
        <time>1970-01-01T00:00:00Z</time>
      </trkpt>
      <trkpt lat="38.341561" lon="-6.317786">
        <ele>504.6</ele>
        <time>1970-01-01T00:00:00Z</time>
      </trkpt>
      <trkpt lat="38.342630" lon="-6.317760">
        <ele>499.3</ele>
        <time>1970-01-01T00:00:00Z</time>
      </trkpt>
      <trkpt lat="38.343623" lon="-6.318033">
        <ele>496.0</ele>
        <time>1970-01-01T00:00:00Z</time>
      </trkpt>
      <trkpt lat="38.345230" lon="-6.319144">
        <ele>493.7</ele>
        <time>1970-01-01T00:00:00Z</time>
      </trkpt>
      <trkpt lat="38.346511" lon="-6.320246">
        <ele>496.3</ele>
        <time>1970-01-01T00:00:00Z</time>
      </trkpt>
      <trkpt lat="38.347833" lon="-6.321347">
        <ele>502.7</ele>
        <time>1970-01-01T00:00:00Z</time>
      </trkpt>
      <trkpt lat="38.349563" lon="-6.322798">
        <ele>509.7</ele>
        <time>1970-01-01T00:00:00Z</time>
      </trkpt>
      <trkpt lat="38.351625" lon="-6.324521">
        <ele>515.7</ele>
        <time>1970-01-01T00:00:00Z</time>
      </trkpt>
      <trkpt lat="38.352975" lon="-6.325572">
        <ele>516.0</ele>
        <time>1970-01-01T00:00:00Z</time>
      </trkpt>
      <trkpt lat="38.353564" lon="-6.325905">
        <ele>515.5</ele>
        <time>1970-01-01T00:00:00Z</time>
      </trkpt>
      <trkpt lat="38.354862" lon="-6.326605">
        <ele>511.4</ele>
        <time>1970-01-01T00:00:00Z</time>
      </trkpt>
      <trkpt lat="38.357716" lon="-6.328063">
        <ele>501.3</ele>
        <time>1970-01-01T00:00:00Z</time>
      </trkpt>
      <trkpt lat="38.363012" lon="-6.330363">
        <ele>508.1</ele>
        <time>1970-01-01T00:00:00Z</time>
      </trkpt>
      <trkpt lat="38.368824" lon="-6.331906">
        <ele>490.2</ele>
        <time>1970-01-01T00:00:00Z</time>
      </trkpt>
      <trkpt lat="38.369813" lon="-6.332494">
        <ele>498.7</ele>
        <time>1970-01-01T00:00:00Z</time>
      </trkpt>
      <trkpt lat="38.370349" lon="-6.332891">
        <ele>496.8</ele>
        <time>1970-01-01T00:00:00Z</time>
      </trkpt>
      <trkpt lat="38.371394" lon="-6.333473">
        <ele>498.7</ele>
        <time>1970-01-01T00:00:00Z</time>
      </trkpt>
      <trkpt lat="38.373539" lon="-6.335777">
        <ele>499.5</ele>
        <time>1970-01-01T00:00:00Z</time>
      </trkpt>
      <trkpt lat="38.374023" lon="-6.336236">
        <ele>499.8</ele>
        <time>1970-01-01T00:00:00Z</time>
      </trkpt>
      <trkpt lat="38.374961" lon="-6.336880">
        <ele>506.3</ele>
        <time>1970-01-01T00:00:00Z</time>
      </trkpt>
      <trkpt lat="38.378350" lon="-6.339047">
        <ele>512.6</ele>
        <time>1970-01-01T00:00:00Z</time>
      </trkpt>
      <trkpt lat="38.380364" lon="-6.339862">
        <ele>511.4</ele>
        <time>1970-01-01T00:00:00Z</time>
      </trkpt>
      <trkpt lat="38.383234" lon="-6.341640">
        <ele>513.5</ele>
        <time>1970-01-01T00:00:00Z</time>
      </trkpt>
      <trkpt lat="38.386350" lon="-6.343529">
        <ele>524.0</ele>
        <time>1970-01-01T00:00:00Z</time>
      </trkpt>
      <trkpt lat="38.386592" lon="-6.343719">
        <ele>526.6</ele>
        <time>1970-01-01T00:00:00Z</time>
      </trkpt>
      <trkpt lat="38.386756" lon="-6.344199">
        <ele>527.3</ele>
        <time>1970-01-01T00:00:00Z</time>
      </trkpt>
      <trkpt lat="38.387431" lon="-6.346200">
        <ele>531.0</ele>
        <time>1970-01-01T00:00:00Z</time>
      </trkpt>
      <trkpt lat="38.387919" lon="-6.348359">
        <ele>527.3</ele>
        <time>1970-01-01T00:00:00Z</time>
      </trkpt>
      <trkpt lat="38.387848" lon="-6.350907">
        <ele>524.8</ele>
        <time>1970-01-01T00:00:00Z</time>
      </trkpt>
      <trkpt lat="38.387902" lon="-6.352079">
        <ele>522.2</ele>
        <time>1970-01-01T00:00:00Z</time>
      </trkpt>
      <trkpt lat="38.388707" lon="-6.354474">
        <ele>518.5</ele>
        <time>1970-01-01T00:00:00Z</time>
      </trkpt>
      <trkpt lat="38.389157" lon="-6.356580">
        <ele>522.4</ele>
        <time>1970-01-01T00:00:00Z</time>
      </trkpt>
      <trkpt lat="38.389317" lon="-6.357478">
        <ele>522.8</ele>
        <time>1970-01-01T00:00:00Z</time>
      </trkpt>
      <trkpt lat="38.389426" lon="-6.358042">
        <ele>521.6</ele>
        <time>1970-01-01T00:00:00Z</time>
      </trkpt>
      <trkpt lat="38.390360" lon="-6.360051">
        <ele>518.6</ele>
        <time>1970-01-01T00:00:00Z</time>
      </trkpt>
      <trkpt lat="38.390965" lon="-6.364281">
        <ele>523.3</ele>
        <time>1970-01-01T00:00:00Z</time>
      </trkpt>
      <trkpt lat="38.391932" lon="-6.367314">
        <ele>526.8</ele>
        <time>1970-01-01T00:00:00Z</time>
      </trkpt>
      <trkpt lat="38.392130" lon="-6.368205">
        <ele>525.5</ele>
        <time>1970-01-01T00:00:00Z</time>
      </trkpt>
      <trkpt lat="38.393213" lon="-6.371785">
        <ele>523.0</ele>
        <time>1970-01-01T00:00:00Z</time>
      </trkpt>
      <trkpt lat="38.393858" lon="-6.373322">
        <ele>517.5</ele>
        <time>1970-01-01T00:00:00Z</time>
      </trkpt>
      <trkpt lat="38.394281" lon="-6.374304">
        <ele>519.7</ele>
        <time>1970-01-01T00:00:00Z</time>
      </trkpt>
      <trkpt lat="38.394941" lon="-6.378223">
        <ele>518.6</ele>
        <time>1970-01-01T00:00:00Z</time>
      </trkpt>
      <trkpt lat="38.395063" lon="-6.378998">
        <ele>517.1</ele>
        <time>1970-01-01T00:00:00Z</time>
      </trkpt>
      <trkpt lat="38.395336" lon="-6.382450">
        <ele>515.9</ele>
        <time>1970-01-01T00:00:00Z</time>
      </trkpt>
      <trkpt lat="38.395744" lon="-6.384319">
        <ele>520.0</ele>
        <time>1970-01-01T00:00:00Z</time>
      </trkpt>
      <trkpt lat="38.396040" lon="-6.387527">
        <ele>513.9</ele>
        <time>1970-01-01T00:00:00Z</time>
      </trkpt>
      <trkpt lat="38.395695" lon="-6.390228">
        <ele>515.7</ele>
        <time>1970-01-01T00:00:00Z</time>
      </trkpt>
      <trkpt lat="38.395275" lon="-6.393071">
        <ele>519.0</ele>
        <time>1970-01-01T00:00:00Z</time>
      </trkpt>
      <trkpt lat="38.394932" lon="-6.394069">
        <ele>519.0</ele>
        <time>1970-01-01T00:00:00Z</time>
      </trkpt>
      <trkpt lat="38.394388" lon="-6.395593">
        <ele>517.0</ele>
        <time>1970-01-01T00:00:00Z</time>
      </trkpt>
      <trkpt lat="38.394405" lon="-6.395882">
        <ele>516.9</ele>
        <time>1970-01-01T00:00:00Z</time>
      </trkpt>
      <trkpt lat="38.396078" lon="-6.396864">
        <ele>514.0</ele>
        <time>1970-01-01T00:00:00Z</time>
      </trkpt>
      <trkpt lat="38.396809" lon="-6.396944">
        <ele>512.3</ele>
        <time>1970-01-01T00:00:00Z</time>
      </trkpt>
      <trkpt lat="38.398123" lon="-6.398076">
        <ele>515.2</ele>
        <time>1970-01-01T00:00:00Z</time>
      </trkpt>
      <trkpt lat="38.398455" lon="-6.398996">
        <ele>512.9</ele>
        <time>1970-01-01T00:00:00Z</time>
      </trkpt>
      <trkpt lat="38.398512" lon="-6.400550">
        <ele>515.6</ele>
        <time>1970-01-01T00:00:00Z</time>
      </trkpt>
      <trkpt lat="38.398409" lon="-6.401027">
        <ele>514.1</ele>
        <time>1970-01-01T00:00:00Z</time>
      </trkpt>
      <trkpt lat="38.398308" lon="-6.401577">
        <ele>510.3</ele>
        <time>1970-01-01T00:00:00Z</time>
      </trkpt>
      <trkpt lat="38.398441" lon="-6.401880">
        <ele>509.0</ele>
        <time>1970-01-01T00:00:00Z</time>
      </trkpt>
      <trkpt lat="38.399633" lon="-6.402430">
        <ele>500.1</ele>
        <time>1970-01-01T00:00:00Z</time>
      </trkpt>
      <trkpt lat="38.400734" lon="-6.403184">
        <ele>494.8</ele>
        <time>1970-01-01T00:00:00Z</time>
      </trkpt>
      <trkpt lat="38.403528" lon="-6.405227">
        <ele>494.8</ele>
        <time>1970-01-01T00:00:00Z</time>
      </trkpt>
      <trkpt lat="38.404654" lon="-6.405949">
        <ele>491.0</ele>
        <time>1970-01-01T00:00:00Z</time>
      </trkpt>
      <trkpt lat="38.407252" lon="-6.406756">
        <ele>497.1</ele>
        <time>1970-01-01T00:00:00Z</time>
      </trkpt>
      <trkpt lat="38.409368" lon="-6.407672">
        <ele>491.2</ele>
        <time>1970-01-01T00:00:00Z</time>
      </trkpt>
      <trkpt lat="38.411133" lon="-6.408418">
        <ele>491.3</ele>
        <time>1970-01-01T00:00:00Z</time>
      </trkpt>
      <trkpt lat="38.411480" lon="-6.408512">
        <ele>491.7</ele>
        <time>1970-01-01T00:00:00Z</time>
      </trkpt>
      <trkpt lat="38.412134" lon="-6.408515">
        <ele>497.1</ele>
        <time>1970-01-01T00:00:00Z</time>
      </trkpt>
      <trkpt lat="38.413041" lon="-6.408156">
        <ele>509.9</ele>
        <time>1970-01-01T00:00:00Z</time>
      </trkpt>
      <trkpt lat="38.413523" lon="-6.407772">
        <ele>511.1</ele>
        <time>1970-01-01T00:00:00Z</time>
      </trkpt>
      <trkpt lat="38.413855" lon="-6.407394">
        <ele>510.8</ele>
        <time>1970-01-01T00:00:00Z</time>
      </trkpt>
      <trkpt lat="38.414376" lon="-6.406699">
        <ele>506.4</ele>
        <time>1970-01-01T00:00:00Z</time>
      </trkpt>
      <trkpt lat="38.421633" lon="-6.414898">
        <ele>514.2</ele>
        <time>1970-01-01T00:00:00Z</time>
      </trkpt>
      <trkpt lat="38.421735" lon="-6.415068">
        <ele>515.0</ele>
        <time>1970-01-01T00:00:00Z</time>
      </trkpt>
      <trkpt lat="38.421866" lon="-6.415349">
        <ele>515.0</ele>
        <time>1970-01-01T00:00:00Z</time>
      </trkpt>
      <trkpt lat="38.421812" lon="-6.415956">
        <ele>514.7</ele>
        <time>1970-01-01T00:00:00Z</time>
      </trkpt>
      <trkpt lat="38.423246" lon="-6.416661">
        <ele>511.6</ele>
        <time>1970-01-01T00:00:00Z</time>
      </trkpt>
      <trkpt lat="38.423927" lon="-6.416170">
        <ele>519.0</ele>
        <time>1970-01-01T00:00:00Z</time>
      </trkpt>
      <trkpt lat="38.424289" lon="-6.416164">
        <ele>518.8</ele>
        <time>1970-01-01T00:00:00Z</time>
      </trkpt>
      <trkpt lat="38.426222" lon="-6.416877">
        <ele>518.9</ele>
        <time>1970-01-01T00:00:00Z</time>
      </trkpt>
      <trkpt lat="38.427009" lon="-6.417352">
        <ele>522.1</ele>
        <time>1970-01-01T00:00:00Z</time>
      </trkpt>
      <trkpt lat="38.430170" lon="-6.414761">
        <ele>516.6</ele>
        <time>1970-01-01T00:00:00Z</time>
      </trkpt>
      <trkpt lat="38.430415" lon="-6.414775">
        <ele>516.7</ele>
        <time>1970-01-01T00:00:00Z</time>
      </trkpt>
    </trkseg>
    <trkseg>
      <trkpt lat="38.430415" lon="-6.414775">
        <ele>516.7</ele>
        <time>1970-01-01T00:00:00Z</time>
      </trkpt>
      <trkpt lat="38.430714" lon="-6.414310">
        <ele>515.0</ele>
        <time>1970-01-01T00:00:00Z</time>
      </trkpt>
      <trkpt lat="38.432775" lon="-6.412882">
        <ele>522.5</ele>
        <time>1970-01-01T00:00:00Z</time>
      </trkpt>
      <trkpt lat="38.434370" lon="-6.409347">
        <ele>529.3</ele>
        <time>1970-01-01T00:00:00Z</time>
      </trkpt>
      <trkpt lat="38.436989" lon="-6.402917">
        <ele>541.7</ele>
        <time>1970-01-01T00:00:00Z</time>
      </trkpt>
      <trkpt lat="38.438203" lon="-6.400203">
        <ele>564.1</ele>
        <time>1970-01-01T00:00:00Z</time>
      </trkpt>
      <trkpt lat="38.438426" lon="-6.399868">
        <ele>566.0</ele>
        <time>1970-01-01T00:00:00Z</time>
      </trkpt>
      <trkpt lat="38.439029" lon="-6.399202">
        <ele>568.9</ele>
        <time>1970-01-01T00:00:00Z</time>
      </trkpt>
      <trkpt lat="38.439598" lon="-6.398717">
        <ele>572.4</ele>
        <time>1970-01-01T00:00:00Z</time>
      </trkpt>
      <trkpt lat="38.439871" lon="-6.398293">
        <ele>574.0</ele>
        <time>1970-01-01T00:00:00Z</time>
      </trkpt>
      <trkpt lat="38.440186" lon="-6.397282">
        <ele>577.9</ele>
        <time>1970-01-01T00:00:00Z</time>
      </trkpt>
      <trkpt lat="38.440529" lon="-6.395230">
        <ele>593.1</ele>
        <time>1970-01-01T00:00:00Z</time>
      </trkpt>
      <trkpt lat="38.440766" lon="-6.394570">
        <ele>595.8</ele>
        <time>1970-01-01T00:00:00Z</time>
      </trkpt>
      <trkpt lat="38.440886" lon="-6.394227">
        <ele>597.7</ele>
        <time>1970-01-01T00:00:00Z</time>
      </trkpt>
      <trkpt lat="38.441001" lon="-6.393519">
        <ele>599.7</ele>
        <time>1970-01-01T00:00:00Z</time>
      </trkpt>
      <trkpt lat="38.441617" lon="-6.392003">
        <ele>602.3</ele>
        <time>1970-01-01T00:00:00Z</time>
      </trkpt>
      <trkpt lat="38.441875" lon="-6.391684">
        <ele>599.8</ele>
        <time>1970-01-01T00:00:00Z</time>
      </trkpt>
      <trkpt lat="38.442346" lon="-6.391279">
        <ele>594.8</ele>
        <time>1970-01-01T00:00:00Z</time>
      </trkpt>
      <trkpt lat="38.442388" lon="-6.390128">
        <ele>596.1</ele>
        <time>1970-01-01T00:00:00Z</time>
      </trkpt>
      <trkpt lat="38.442669" lon="-6.389782">
        <ele>591.3</ele>
        <time>1970-01-01T00:00:00Z</time>
      </trkpt>
      <trkpt lat="38.444125" lon="-6.389125">
        <ele>552.7</ele>
        <time>1970-01-01T00:00:00Z</time>
      </trkpt>
      <trkpt lat="38.444306" lon="-6.388846">
        <ele>548.9</ele>
        <time>1970-01-01T00:00:00Z</time>
      </trkpt>
      <trkpt lat="38.444472" lon="-6.388731">
        <ele>546.2</ele>
        <time>1970-01-01T00:00:00Z</time>
      </trkpt>
      <trkpt lat="38.444749" lon="-6.388280">
        <ele>542.6</ele>
        <time>1970-01-01T00:00:00Z</time>
      </trkpt>
      <trkpt lat="38.446036" lon="-6.387125">
        <ele>534.0</ele>
        <time>1970-01-01T00:00:00Z</time>
      </trkpt>
      <trkpt lat="38.447826" lon="-6.385867">
        <ele>533.0</ele>
        <time>1970-01-01T00:00:00Z</time>
      </trkpt>
      <trkpt lat="38.447981" lon="-6.385725">
        <ele>532.9</ele>
        <time>1970-01-01T00:00:00Z</time>
      </trkpt>
      <trkpt lat="38.448271" lon="-6.385041">
        <ele>530.3</ele>
        <time>1970-01-01T00:00:00Z</time>
      </trkpt>
      <trkpt lat="38.448458" lon="-6.384285">
        <ele>525.0</ele>
        <time>1970-01-01T00:00:00Z</time>
      </trkpt>
      <trkpt lat="38.448865" lon="-6.384507">
        <ele>525.0</ele>
        <time>1970-01-01T00:00:00Z</time>
      </trkpt>
      <trkpt lat="38.449103" lon="-6.384076">
        <ele>524.0</ele>
        <time>1970-01-01T00:00:00Z</time>
      </trkpt>
      <trkpt lat="38.449132" lon="-6.383705">
        <ele>524.0</ele>
        <time>1970-01-01T00:00:00Z</time>
      </trkpt>
      <trkpt lat="38.448942" lon="-6.383623">
        <ele>524.9</ele>
        <time>1970-01-01T00:00:00Z</time>
      </trkpt>
      <trkpt lat="38.448949" lon="-6.383123">
        <ele>527.0</ele>
        <time>1970-01-01T00:00:00Z</time>
      </trkpt>
      <trkpt lat="38.449480" lon="-6.382568">
        <ele>528.0</ele>
        <time>1970-01-01T00:00:00Z</time>
      </trkpt>
      <trkpt lat="38.449863" lon="-6.381645">
        <ele>528.2</ele>
        <time>1970-01-01T00:00:00Z</time>
      </trkpt>
      <trkpt lat="38.451289" lon="-6.378319">
        <ele>501.5</ele>
        <time>1970-01-01T00:00:00Z</time>
      </trkpt>
      <trkpt lat="38.451092" lon="-6.377850">
        <ele>501.2</ele>
        <time>1970-01-01T00:00:00Z</time>
      </trkpt>
      <trkpt lat="38.451295" lon="-6.375653">
        <ele>506.3</ele>
        <time>1970-01-01T00:00:00Z</time>
      </trkpt>
      <trkpt lat="38.451510" lon="-6.374022">
        <ele>504.1</ele>
        <time>1970-01-01T00:00:00Z</time>
      </trkpt>
      <trkpt lat="38.451854" lon="-6.373303">
        <ele>502.4</ele>
        <time>1970-01-01T00:00:00Z</time>
      </trkpt>
      <trkpt lat="38.452198" lon="-6.373083">
        <ele>505.9</ele>
        <time>1970-01-01T00:00:00Z</time>
      </trkpt>
      <trkpt lat="38.453270" lon="-6.371581">
        <ele>530.8</ele>
        <time>1970-01-01T00:00:00Z</time>
      </trkpt>
      <trkpt lat="38.453652" lon="-6.371061">
        <ele>532.9</ele>
        <time>1970-01-01T00:00:00Z</time>
      </trkpt>
      <trkpt lat="38.454278" lon="-6.369872">
        <ele>529.8</ele>
        <time>1970-01-01T00:00:00Z</time>
      </trkpt>
      <trkpt lat="38.455530" lon="-6.366583">
        <ele>544.8</ele>
        <time>1970-01-01T00:00:00Z</time>
      </trkpt>
      <trkpt lat="38.455731" lon="-6.366245">
        <ele>545.9</ele>
        <time>1970-01-01T00:00:00Z</time>
      </trkpt>
      <trkpt lat="38.456496" lon="-6.365591">
        <ele>539.0</ele>
        <time>1970-01-01T00:00:00Z</time>
      </trkpt>
      <trkpt lat="38.456945" lon="-6.364695">
        <ele>535.7</ele>
        <time>1970-01-01T00:00:00Z</time>
      </trkpt>
      <trkpt lat="38.457072" lon="-6.364497">
        <ele>536.1</ele>
        <time>1970-01-01T00:00:00Z</time>
      </trkpt>
      <trkpt lat="38.464726" lon="-6.364732">
        <ele>532.1</ele>
        <time>1970-01-01T00:00:00Z</time>
      </trkpt>
      <trkpt lat="38.465408" lon="-6.364705">
        <ele>528.4</ele>
        <time>1970-01-01T00:00:00Z</time>
      </trkpt>
      <trkpt lat="38.466284" lon="-6.364633">
        <ele>527.8</ele>
        <time>1970-01-01T00:00:00Z</time>
      </trkpt>
      <trkpt lat="38.467126" lon="-6.364491">
        <ele>524.4</ele>
        <time>1970-01-01T00:00:00Z</time>
      </trkpt>
      <trkpt lat="38.473527" lon="-6.362739">
        <ele>521.1</ele>
        <time>1970-01-01T00:00:00Z</time>
      </trkpt>
      <trkpt lat="38.479964" lon="-6.360618">
        <ele>506.1</ele>
        <time>1970-01-01T00:00:00Z</time>
      </trkpt>
      <trkpt lat="38.480997" lon="-6.360254">
        <ele>504.5</ele>
        <time>1970-01-01T00:00:00Z</time>
      </trkpt>
      <trkpt lat="38.491994" lon="-6.356644">
        <ele>483.7</ele>
        <time>1970-01-01T00:00:00Z</time>
      </trkpt>
      <trkpt lat="38.493403" lon="-6.356612">
        <ele>468.6</ele>
        <time>1970-01-01T00:00:00Z</time>
      </trkpt>
      <trkpt lat="38.495752" lon="-6.356748">
        <ele>474.0</ele>
        <time>1970-01-01T00:00:00Z</time>
      </trkpt>
      <trkpt lat="38.497444" lon="-6.356850">
        <ele>465.2</ele>
        <time>1970-01-01T00:00:00Z</time>
      </trkpt>
      <trkpt lat="38.501045" lon="-6.357090">
        <ele>477.8</ele>
        <time>1970-01-01T00:00:00Z</time>
      </trkpt>
      <trkpt lat="38.502645" lon="-6.357160">
        <ele>468.6</ele>
        <time>1970-01-01T00:00:00Z</time>
      </trkpt>
      <trkpt lat="38.504385" lon="-6.356799">
        <ele>467.6</ele>
        <time>1970-01-01T00:00:00Z</time>
      </trkpt>
      <trkpt lat="38.530049" lon="-6.349278">
        <ele>424.2</ele>
        <time>1970-01-01T00:00:00Z</time>
      </trkpt>
      <trkpt lat="38.531189" lon="-6.349367">
        <ele>422.7</ele>
        <time>1970-01-01T00:00:00Z</time>
      </trkpt>
      <trkpt lat="38.536083" lon="-6.351110">
        <ele>415.0</ele>
        <time>1970-01-01T00:00:00Z</time>
      </trkpt>
      <trkpt lat="38.537933" lon="-6.351432">
        <ele>408.0</ele>
        <time>1970-01-01T00:00:00Z</time>
      </trkpt>
      <trkpt lat="38.539033" lon="-6.351453">
        <ele>410.8</ele>
        <time>1970-01-01T00:00:00Z</time>
      </trkpt>
      <trkpt lat="38.540973" lon="-6.351073">
        <ele>411.9</ele>
        <time>1970-01-01T00:00:00Z</time>
      </trkpt>
      <trkpt lat="38.546849" lon="-6.351016">
        <ele>405.3</ele>
        <time>1970-01-01T00:00:00Z</time>
      </trkpt>
      <trkpt lat="38.548890" lon="-6.350421">
        <ele>406.7</ele>
        <time>1970-01-01T00:00:00Z</time>
      </trkpt>
      <trkpt lat="38.550099" lon="-6.350147">
        <ele>395.9</ele>
        <time>1970-01-01T00:00:00Z</time>
      </trkpt>
      <trkpt lat="38.551615" lon="-6.350260">
        <ele>400.8</ele>
        <time>1970-01-01T00:00:00Z</time>
      </trkpt>
      <trkpt lat="38.554129" lon="-6.350429">
        <ele>401.4</ele>
        <time>1970-01-01T00:00:00Z</time>
      </trkpt>
      <trkpt lat="38.556025" lon="-6.350220">
        <ele>401.5</ele>
        <time>1970-01-01T00:00:00Z</time>
      </trkpt>
      <trkpt lat="38.557158" lon="-6.350118">
        <ele>402.7</ele>
        <time>1970-01-01T00:00:00Z</time>
      </trkpt>
      <trkpt lat="38.559521" lon="-6.350198">
        <ele>397.1</ele>
        <time>1970-01-01T00:00:00Z</time>
      </trkpt>
      <trkpt lat="38.560952" lon="-6.350185">
        <ele>396.6</ele>
        <time>1970-01-01T00:00:00Z</time>
      </trkpt>
      <trkpt lat="38.564231" lon="-6.349946">
        <ele>395.3</ele>
        <time>1970-01-01T00:00:00Z</time>
      </trkpt>
      <trkpt lat="38.564818" lon="-6.349924">
        <ele>395.4</ele>
        <time>1970-01-01T00:00:00Z</time>
      </trkpt>
      <trkpt lat="38.567443" lon="-6.350469">
        <ele>378.2</ele>
        <time>1970-01-01T00:00:00Z</time>
      </trkpt>
      <trkpt lat="38.570725" lon="-6.351507">
        <ele>383.0</ele>
        <time>1970-01-01T00:00:00Z</time>
      </trkpt>
      <trkpt lat="38.570994" lon="-6.351678">
        <ele>383.0</ele>
        <time>1970-01-01T00:00:00Z</time>
      </trkpt>
      <trkpt lat="38.571065" lon="-6.351810">
        <ele>383.0</ele>
        <time>1970-01-01T00:00:00Z</time>
      </trkpt>
      <trkpt lat="38.571119" lon="-6.351893">
        <ele>383.0</ele>
        <time>1970-01-01T00:00:00Z</time>
      </trkpt>
      <trkpt lat="38.571373" lon="-6.351944">
        <ele>383.0</ele>
        <time>1970-01-01T00:00:00Z</time>
      </trkpt>
      <trkpt lat="38.571774" lon="-6.351858">
        <ele>381.6</ele>
        <time>1970-01-01T00:00:00Z</time>
      </trkpt>
      <trkpt lat="38.574315" lon="-6.352660">
        <ele>374.0</ele>
        <time>1970-01-01T00:00:00Z</time>
      </trkpt>
      <trkpt lat="38.580419" lon="-6.355573">
        <ele>375.8</ele>
        <time>1970-01-01T00:00:00Z</time>
      </trkpt>
      <trkpt lat="38.584513" lon="-6.356488">
        <ele>375.3</ele>
        <time>1970-01-01T00:00:00Z</time>
      </trkpt>
      <trkpt lat="38.585825" lon="-6.356820">
        <ele>378.0</ele>
        <time>1970-01-01T00:00:00Z</time>
      </trkpt>
      <trkpt lat="38.600440" lon="-6.362638">
        <ele>370.3</ele>
        <time>1970-01-01T00:00:00Z</time>
      </trkpt>
      <trkpt lat="38.602727" lon="-6.362885">
        <ele>373.1</ele>
        <time>1970-01-01T00:00:00Z</time>
      </trkpt>
      <trkpt lat="38.614045" lon="-6.362410">
        <ele>364.0</ele>
        <time>1970-01-01T00:00:00Z</time>
      </trkpt>
      <trkpt lat="38.615409" lon="-6.362429">
        <ele>361.6</ele>
        <time>1970-01-01T00:00:00Z</time>
      </trkpt>
      <trkpt lat="38.617658" lon="-6.362836">
        <ele>355.6</ele>
        <time>1970-01-01T00:00:00Z</time>
      </trkpt>
      <trkpt lat="38.654821" lon="-6.377975">
        <ele>348.1</ele>
        <time>1970-01-01T00:00:00Z</time>
      </trkpt>
      <trkpt lat="38.655552" lon="-6.378425">
        <ele>346.8</ele>
        <time>1970-01-01T00:00:00Z</time>
      </trkpt>
      <trkpt lat="38.658011" lon="-6.378964">
        <ele>340.0</ele>
        <time>1970-01-01T00:00:00Z</time>
      </trkpt>
      <trkpt lat="38.658998" lon="-6.378766">
        <ele>355.5</ele>
        <time>1970-01-01T00:00:00Z</time>
      </trkpt>
      <trkpt lat="38.660221" lon="-6.378407">
        <ele>353.4</ele>
        <time>1970-01-01T00:00:00Z</time>
      </trkpt>
      <trkpt lat="38.661373" lon="-6.378500">
        <ele>351.0</ele>
        <time>1970-01-01T00:00:00Z</time>
      </trkpt>
      <trkpt lat="38.662018" lon="-6.378919">
        <ele>352.1</ele>
        <time>1970-01-01T00:00:00Z</time>
      </trkpt>
      <trkpt lat="38.663532" lon="-6.380539">
        <ele>348.0</ele>
        <time>1970-01-01T00:00:00Z</time>
      </trkpt>
      <trkpt lat="38.663601" lon="-6.380928">
        <ele>346.6</ele>
        <time>1970-01-01T00:00:00Z</time>
      </trkpt>
      <trkpt lat="38.663721" lon="-6.381207">
        <ele>345.2</ele>
        <time>1970-01-01T00:00:00Z</time>
      </trkpt>
      <trkpt lat="38.664487" lon="-6.381446">
        <ele>346.2</ele>
        <time>1970-01-01T00:00:00Z</time>
      </trkpt>
      <trkpt lat="38.665553" lon="-6.382524">
        <ele>355.0</ele>
        <time>1970-01-01T00:00:00Z</time>
      </trkpt>
      <trkpt lat="38.670533" lon="-6.387466">
        <ele>363.9</ele>
        <time>1970-01-01T00:00:00Z</time>
      </trkpt>
      <trkpt lat="38.670693" lon="-6.387887">
        <ele>359.1</ele>
        <time>1970-01-01T00:00:00Z</time>
      </trkpt>
      <trkpt lat="38.670994" lon="-6.387949">
        <ele>360.5</ele>
        <time>1970-01-01T00:00:00Z</time>
      </trkpt>
      <trkpt lat="38.674491" lon="-6.391270">
        <ele>357.1</ele>
        <time>1970-01-01T00:00:00Z</time>
      </trkpt>
      <trkpt lat="38.675513" lon="-6.392235">
        <ele>356.8</ele>
        <time>1970-01-01T00:00:00Z</time>
      </trkpt>
      <trkpt lat="38.675664" lon="-6.392554">
        <ele>357.2</ele>
        <time>1970-01-01T00:00:00Z</time>
      </trkpt>
      <trkpt lat="38.675734" lon="-6.392683">
        <ele>357.0</ele>
        <time>1970-01-01T00:00:00Z</time>
      </trkpt>
      <trkpt lat="38.675983" lon="-6.392705">
        <ele>353.8</ele>
        <time>1970-01-01T00:00:00Z</time>
      </trkpt>
      <trkpt lat="38.683651" lon="-6.400042">
        <ele>342.0</ele>
        <time>1970-01-01T00:00:00Z</time>
      </trkpt>
      <trkpt lat="38.683698" lon="-6.400164">
        <ele>342.5</ele>
        <time>1970-01-01T00:00:00Z</time>
      </trkpt>
      <trkpt lat="38.684374" lon="-6.400630">
        <ele>339.8</ele>
        <time>1970-01-01T00:00:00Z</time>
      </trkpt>
      <trkpt lat="38.688400" lon="-6.404455">
        <ele>339.9</ele>
        <time>1970-01-01T00:00:00Z</time>
      </trkpt>
      <trkpt lat="38.689950" lon="-6.405901">
        <ele>335.5</ele>
        <time>1970-01-01T00:00:00Z</time>
      </trkpt>
      <trkpt lat="38.690429" lon="-6.405990">
        <ele>330.5</ele>
        <time>1970-01-01T00:00:00Z</time>
      </trkpt>
      <trkpt lat="38.691366" lon="-6.405731">
        <ele>320.0</ele>
        <time>1970-01-01T00:00:00Z</time>
      </trkpt>
      <trkpt lat="38.691459" lon="-6.405724">
        <ele>319.6</ele>
        <time>1970-01-01T00:00:00Z</time>
      </trkpt>
      <trkpt lat="38.691612" lon="-6.405819">
        <ele>318.9</ele>
        <time>1970-01-01T00:00:00Z</time>
      </trkpt>
      <trkpt lat="38.691783" lon="-6.405800">
        <ele>318.2</ele>
        <time>1970-01-01T00:00:00Z</time>
      </trkpt>
      <trkpt lat="38.692015" lon="-6.405495">
        <ele>318.0</ele>
        <time>1970-01-01T00:00:00Z</time>
      </trkpt>
      <trkpt lat="38.696119" lon="-6.404155">
        <ele>325.1</ele>
        <time>1970-01-01T00:00:00Z</time>
      </trkpt>
      <trkpt lat="38.698534" lon="-6.403362">
        <ele>327.0</ele>
        <time>1970-01-01T00:00:00Z</time>
      </trkpt>
      <trkpt lat="38.699265" lon="-6.403157">
        <ele>323.7</ele>
        <time>1970-01-01T00:00:00Z</time>
      </trkpt>
      <trkpt lat="38.699417" lon="-6.403254">
        <ele>322.4</ele>
        <time>1970-01-01T00:00:00Z</time>
      </trkpt>
      <trkpt lat="38.699952" lon="-6.402910">
        <ele>317.8</ele>
        <time>1970-01-01T00:00:00Z</time>
      </trkpt>
      <trkpt lat="38.702000" lon="-6.402263">
        <ele>317.3</ele>
        <time>1970-01-01T00:00:00Z</time>
      </trkpt>
      <trkpt lat="38.704279" lon="-6.401596">
        <ele>317.0</ele>
        <time>1970-01-01T00:00:00Z</time>
      </trkpt>
      <trkpt lat="38.704352" lon="-6.401657">
        <ele>317.0</ele>
        <time>1970-01-01T00:00:00Z</time>
      </trkpt>
      <trkpt lat="38.704681" lon="-6.401521">
        <ele>317.2</ele>
        <time>1970-01-01T00:00:00Z</time>
      </trkpt>
      <trkpt lat="38.704813" lon="-6.401346">
        <ele>317.3</ele>
        <time>1970-01-01T00:00:00Z</time>
      </trkpt>
      <trkpt lat="38.706194" lon="-6.400896">
        <ele>319.3</ele>
        <time>1970-01-01T00:00:00Z</time>
      </trkpt>
      <trkpt lat="38.709928" lon="-6.399664">
        <ele>323.8</ele>
        <time>1970-01-01T00:00:00Z</time>
      </trkpt>
      <trkpt lat="38.710338" lon="-6.399812">
        <ele>324.9</ele>
        <time>1970-01-01T00:00:00Z</time>
      </trkpt>
      <trkpt lat="38.710615" lon="-6.399707">
        <ele>324.9</ele>
        <time>1970-01-01T00:00:00Z</time>
      </trkpt>
      <trkpt lat="38.710736" lon="-6.399427">
        <ele>325.0</ele>
        <time>1970-01-01T00:00:00Z</time>
      </trkpt>
      <trkpt lat="38.710943" lon="-6.399314">
        <ele>325.0</ele>
        <time>1970-01-01T00:00:00Z</time>
      </trkpt>
      <trkpt lat="38.716416" lon="-6.397549">
        <ele>313.2</ele>
        <time>1970-01-01T00:00:00Z</time>
      </trkpt>
      <trkpt lat="38.721461" lon="-6.395896">
        <ele>314.3</ele>
        <time>1970-01-01T00:00:00Z</time>
      </trkpt>
      <trkpt lat="38.766857" lon="-6.381105">
        <ele>297.7</ele>
        <time>1970-01-01T00:00:00Z</time>
      </trkpt>
      <trkpt lat="38.768208" lon="-6.380877">
        <ele>302.3</ele>
        <time>1970-01-01T00:00:00Z</time>
      </trkpt>
      <trkpt lat="38.769153" lon="-6.380941">
        <ele>301.5</ele>
        <time>1970-01-01T00:00:00Z</time>
      </trkpt>
      <trkpt lat="38.772102" lon="-6.382036">
        <ele>296.4</ele>
        <time>1970-01-01T00:00:00Z</time>
      </trkpt>
      <trkpt lat="38.773101" lon="-6.381891">
        <ele>301.3</ele>
        <time>1970-01-01T00:00:00Z</time>
      </trkpt>
      <trkpt lat="38.773369" lon="-6.381754">
        <ele>300.1</ele>
        <time>1970-01-01T00:00:00Z</time>
      </trkpt>
      <trkpt lat="38.773604" lon="-6.381666">
        <ele>299.0</ele>
        <time>1970-01-01T00:00:00Z</time>
      </trkpt>
      <trkpt lat="38.773775" lon="-6.381704">
        <ele>298.6</ele>
        <time>1970-01-01T00:00:00Z</time>
      </trkpt>
      <trkpt lat="38.773993" lon="-6.381497">
        <ele>295.9</ele>
        <time>1970-01-01T00:00:00Z</time>
      </trkpt>
      <trkpt lat="38.773853" lon="-6.380921">
        <ele>296.2</ele>
        <time>1970-01-01T00:00:00Z</time>
      </trkpt>
      <trkpt lat="38.773984" lon="-6.380151">
        <ele>301.8</ele>
        <time>1970-01-01T00:00:00Z</time>
      </trkpt>
      <trkpt lat="38.774137" lon="-6.379808">
        <ele>304.7</ele>
        <time>1970-01-01T00:00:00Z</time>
      </trkpt>
      <trkpt lat="38.774288" lon="-6.379682">
        <ele>305.5</ele>
        <time>1970-01-01T00:00:00Z</time>
      </trkpt>
      <trkpt lat="38.774440" lon="-6.379175">
        <ele>308.0</ele>
        <time>1970-01-01T00:00:00Z</time>
      </trkpt>
      <trkpt lat="38.775810" lon="-6.378662">
        <ele>295.0</ele>
        <time>1970-01-01T00:00:00Z</time>
      </trkpt>
      <trkpt lat="38.790032" lon="-6.378294">
        <ele>298.0</ele>
        <time>1970-01-01T00:00:00Z</time>
      </trkpt>
      <trkpt lat="38.797250" lon="-6.377229">
        <ele>299.5</ele>
        <time>1970-01-01T00:00:00Z</time>
      </trkpt>
      <trkpt lat="38.797756" lon="-6.377125">
        <ele>297.4</ele>
        <time>1970-01-01T00:00:00Z</time>
      </trkpt>
      <trkpt lat="38.801081" lon="-6.375971">
        <ele>297.0</ele>
        <time>1970-01-01T00:00:00Z</time>
      </trkpt>
      <trkpt lat="38.810990" lon="-6.372397">
        <ele>277.4</ele>
        <time>1970-01-01T00:00:00Z</time>
      </trkpt>
      <trkpt lat="38.812679" lon="-6.371804">
        <ele>276.1</ele>
        <time>1970-01-01T00:00:00Z</time>
      </trkpt>
      <trkpt lat="38.813924" lon="-6.371434">
        <ele>283.0</ele>
        <time>1970-01-01T00:00:00Z</time>
      </trkpt>
      <trkpt lat="38.817101" lon="-6.370281">
        <ele>297.7</ele>
        <time>1970-01-01T00:00:00Z</time>
      </trkpt>
      <trkpt lat="38.822037" lon="-6.368844">
        <ele>300.1</ele>
        <time>1970-01-01T00:00:00Z</time>
      </trkpt>
      <trkpt lat="38.825544" lon="-6.367833">
        <ele>284.9</ele>
        <time>1970-01-01T00:00:00Z</time>
      </trkpt>
      <trkpt lat="38.831236" lon="-6.365857">
        <ele>262.7</ele>
        <time>1970-01-01T00:00:00Z</time>
      </trkpt>
      <trkpt lat="38.843259" lon="-6.363011">
        <ele>276.6</ele>
        <time>1970-01-01T00:00:00Z</time>
      </trkpt>
      <trkpt lat="38.843618" lon="-6.362863">
        <ele>276.6</ele>
        <time>1970-01-01T00:00:00Z</time>
      </trkpt>
      <trkpt lat="38.845766" lon="-6.361388">
        <ele>284.9</ele>
        <time>1970-01-01T00:00:00Z</time>
      </trkpt>
      <trkpt lat="38.846787" lon="-6.360994">
        <ele>279.5</ele>
        <time>1970-01-01T00:00:00Z</time>
      </trkpt>
      <trkpt lat="38.849488" lon="-6.360673">
        <ele>267.1</ele>
        <time>1970-01-01T00:00:00Z</time>
      </trkpt>
      <trkpt lat="38.851297" lon="-6.360353">
        <ele>265.4</ele>
        <time>1970-01-01T00:00:00Z</time>
      </trkpt>
      <trkpt lat="38.851775" lon="-6.360324">
        <ele>267.5</ele>
        <time>1970-01-01T00:00:00Z</time>
      </trkpt>
      <trkpt lat="38.852149" lon="-6.360348">
        <ele>265.8</ele>
        <time>1970-01-01T00:00:00Z</time>
      </trkpt>
      <trkpt lat="38.856965" lon="-6.361866">
        <ele>242.8</ele>
        <time>1970-01-01T00:00:00Z</time>
      </trkpt>
      <trkpt lat="38.858821" lon="-6.362483">
        <ele>240.6</ele>
        <time>1970-01-01T00:00:00Z</time>
      </trkpt>
      <trkpt lat="38.859705" lon="-6.362617">
        <ele>240.7</ele>
        <time>1970-01-01T00:00:00Z</time>
      </trkpt>
      <trkpt lat="38.860244" lon="-6.362547">
        <ele>241.5</ele>
        <time>1970-01-01T00:00:00Z</time>
      </trkpt>
      <trkpt lat="38.861643" lon="-6.362185">
        <ele>250.1</ele>
        <time>1970-01-01T00:00:00Z</time>
      </trkpt>
      <trkpt lat="38.862180" lon="-6.362159">
        <ele>247.7</ele>
        <time>1970-01-01T00:00:00Z</time>
      </trkpt>
      <trkpt lat="38.863341" lon="-6.362555">
        <ele>235.6</ele>
        <time>1970-01-01T00:00:00Z</time>
      </trkpt>
      <trkpt lat="38.863888" lon="-6.362855">
        <ele>232.0</ele>
        <time>1970-01-01T00:00:00Z</time>
      </trkpt>
      <trkpt lat="38.864193" lon="-6.363016">
        <ele>228.7</ele>
        <time>1970-01-01T00:00:00Z</time>
      </trkpt>
      <trkpt lat="38.864726" lon="-6.363231">
        <ele>223.8</ele>
        <time>1970-01-01T00:00:00Z</time>
      </trkpt>
      <trkpt lat="38.865043" lon="-6.363319">
        <ele>216.3</ele>
        <time>1970-01-01T00:00:00Z</time>
      </trkpt>
      <trkpt lat="38.876425" lon="-6.364313">
        <ele>228.7</ele>
        <time>1970-01-01T00:00:00Z</time>
      </trkpt>
      <trkpt lat="38.878486" lon="-6.364659">
        <ele>235.6</ele>
        <time>1970-01-01T00:00:00Z</time>
      </trkpt>
      <trkpt lat="38.880686" lon="-6.365019">
        <ele>231.9</ele>
        <time>1970-01-01T00:00:00Z</time>
      </trkpt>
      <trkpt lat="38.887604" lon="-6.366157">
        <ele>238.2</ele>
        <time>1970-01-01T00:00:00Z</time>
      </trkpt>
      <trkpt lat="38.889541" lon="-6.366388">
        <ele>248.3</ele>
        <time>1970-01-01T00:00:00Z</time>
      </trkpt>
      <trkpt lat="38.889804" lon="-6.366396">
        <ele>250.0</ele>
        <time>1970-01-01T00:00:00Z</time>
      </trkpt>
      <trkpt lat="38.890920" lon="-6.366417">
        <ele>249.6</ele>
        <time>1970-01-01T00:00:00Z</time>
      </trkpt>
      <trkpt lat="38.892096" lon="-6.366008">
        <ele>249.5</ele>
        <time>1970-01-01T00:00:00Z</time>
      </trkpt>
      <trkpt lat="38.892748" lon="-6.366091">
        <ele>246.6</ele>
        <time>1970-01-01T00:00:00Z</time>
      </trkpt>
      <trkpt lat="38.892927" lon="-6.366311">
        <ele>244.8</ele>
        <time>1970-01-01T00:00:00Z</time>
      </trkpt>
      <trkpt lat="38.893048" lon="-6.366711">
        <ele>242.3</ele>
        <time>1970-01-01T00:00:00Z</time>
      </trkpt>
      <trkpt lat="38.893429" lon="-6.366558">
        <ele>244.8</ele>
        <time>1970-01-01T00:00:00Z</time>
      </trkpt>
      <trkpt lat="38.897544" lon="-6.366556">
        <ele>235.3</ele>
        <time>1970-01-01T00:00:00Z</time>
      </trkpt>
      <trkpt lat="38.898714" lon="-6.365014">
        <ele>244.9</ele>
        <time>1970-01-01T00:00:00Z</time>
      </trkpt>
      <trkpt lat="38.899535" lon="-6.363675">
        <ele>241.0</ele>
        <time>1970-01-01T00:00:00Z</time>
      </trkpt>
      <trkpt lat="38.900057" lon="-6.362554">
        <ele>239.7</ele>
        <time>1970-01-01T00:00:00Z</time>
      </trkpt>
      <trkpt lat="38.900211" lon="-6.362066">
        <ele>238.3</ele>
        <time>1970-01-01T00:00:00Z</time>
      </trkpt>
      <trkpt lat="38.900550" lon="-6.360317">
        <ele>228.7</ele>
        <time>1970-01-01T00:00:00Z</time>
      </trkpt>
      <trkpt lat="38.900751" lon="-6.360052">
        <ele>227.0</ele>
        <time>1970-01-01T00:00:00Z</time>
      </trkpt>
      <trkpt lat="38.901586" lon="-6.359502">
        <ele>217.8</ele>
        <time>1970-01-01T00:00:00Z</time>
      </trkpt>
      <trkpt lat="38.902156" lon="-6.359008">
        <ele>216.8</ele>
        <time>1970-01-01T00:00:00Z</time>
      </trkpt>
      <trkpt lat="38.903060" lon="-6.357793">
        <ele>213.5</ele>
        <time>1970-01-01T00:00:00Z</time>
      </trkpt>
      <trkpt lat="38.903325" lon="-6.357297">
        <ele>208.9</ele>
        <time>1970-01-01T00:00:00Z</time>
      </trkpt>
      <trkpt lat="38.904589" lon="-6.356522">
        <ele>205.4</ele>
        <time>1970-01-01T00:00:00Z</time>
      </trkpt>
      <trkpt lat="38.904893" lon="-6.356365">
        <ele>207.7</ele>
        <time>1970-01-01T00:00:00Z</time>
      </trkpt>
      <trkpt lat="38.904661" lon="-6.355204">
        <ele>204.4</ele>
        <time>1970-01-01T00:00:00Z</time>
      </trkpt>
      <trkpt lat="38.905321" lon="-6.353086">
        <ele>197.8</ele>
        <time>1970-01-01T00:00:00Z</time>
      </trkpt>
      <trkpt lat="38.905390" lon="-6.352953">
        <ele>197.4</ele>
        <time>1970-01-01T00:00:00Z</time>
      </trkpt>
      <trkpt lat="38.906140" lon="-6.353513">
        <ele>205.0</ele>
        <time>1970-01-01T00:00:00Z</time>
      </trkpt>
      <trkpt lat="38.906172" lon="-6.353674">
        <ele>205.7</ele>
        <time>1970-01-01T00:00:00Z</time>
      </trkpt>
      <trkpt lat="38.906525" lon="-6.353752">
        <ele>206.0</ele>
        <time>1970-01-01T00:00:00Z</time>
      </trkpt>
      <trkpt lat="38.906539" lon="-6.353300">
        <ele>205.0</ele>
        <time>1970-01-01T00:00:00Z</time>
      </trkpt>
      <trkpt lat="38.907664" lon="-6.348704">
        <ele>197.4</ele>
        <time>1970-01-01T00:00:00Z</time>
      </trkpt>
      <trkpt lat="38.908221" lon="-6.348834">
        <ele>198.2</ele>
        <time>1970-01-01T00:00:00Z</time>
      </trkpt>
      <trkpt lat="38.909290" lon="-6.349876">
        <ele>187.3</ele>
        <time>1970-01-01T00:00:00Z</time>
      </trkpt>
      <trkpt lat="38.910247" lon="-6.350867">
        <ele>189.5</ele>
        <time>1970-01-01T00:00:00Z</time>
      </trkpt>
      <trkpt lat="38.911125" lon="-6.351784">
        <ele>185.9</ele>
        <time>1970-01-01T00:00:00Z</time>
      </trkpt>
      <trkpt lat="38.911233" lon="-6.351591">
        <ele>184.5</ele>
        <time>1970-01-01T00:00:00Z</time>
      </trkpt>
      <trkpt lat="38.911609" lon="-6.351925">
        <ele>185.8</ele>
        <time>1970-01-01T00:00:00Z</time>
      </trkpt>
      <trkpt lat="38.912297" lon="-6.352502">
        <ele>190.0</ele>
        <time>1970-01-01T00:00:00Z</time>
      </trkpt>
      <trkpt lat="38.914387" lon="-6.349145">
        <ele>183.7</ele>
        <time>1970-01-01T00:00:00Z</time>
      </trkpt>
      <trkpt lat="38.913873" lon="-6.348678">
        <ele>179.3</ele>
        <time>1970-01-01T00:00:00Z</time>
      </trkpt>
      <trkpt lat="38.913770" lon="-6.348565">
        <ele>178.2</ele>
        <time>1970-01-01T00:00:00Z</time>
      </trkpt>
      <trkpt lat="38.913782" lon="-6.348415">
        <ele>176.9</ele>
        <time>1970-01-01T00:00:00Z</time>
      </trkpt>
      <trkpt lat="38.914452" lon="-6.349147">
        <ele>183.5</ele>
        <time>1970-01-01T00:00:00Z</time>
      </trkpt>
      <trkpt lat="38.914709" lon="-6.349343">
        <ele>183.2</ele>
        <time>1970-01-01T00:00:00Z</time>
      </trkpt>
      <trkpt lat="38.915048" lon="-6.349619">
        <ele>181.6</ele>
        <time>1970-01-01T00:00:00Z</time>
      </trkpt>
      <trkpt lat="38.916299" lon="-6.350698">
        <ele>176.0</ele>
        <time>1970-01-01T00:00:00Z</time>
      </trkpt>
      <trkpt lat="38.917007" lon="-6.351358">
        <ele>181.1</ele>
        <time>1970-01-01T00:00:00Z</time>
      </trkpt>
      <trkpt lat="38.917322" lon="-6.351576">
        <ele>187.2</ele>
        <time>1970-01-01T00:00:00Z</time>
      </trkpt>
      <trkpt lat="38.918380" lon="-6.352179">
        <ele>188.2</ele>
        <time>1970-01-01T00:00:00Z</time>
      </trkpt>
      <trkpt lat="38.918905" lon="-6.353164">
        <ele>183.5</ele>
        <time>1970-01-01T00:00:00Z</time>
      </trkpt>
      <trkpt lat="38.919333" lon="-6.353789">
        <ele>180.1</ele>
        <time>1970-01-01T00:00:00Z</time>
      </trkpt>
      <trkpt lat="38.919483" lon="-6.353934">
        <ele>179.5</ele>
        <time>1970-01-01T00:00:00Z</time>
      </trkpt>
      <trkpt lat="38.920956" lon="-6.355363">
        <ele>179.9</ele>
        <time>1970-01-01T00:00:00Z</time>
      </trkpt>
      <trkpt lat="38.922122" lon="-6.356267">
        <ele>187.9</ele>
        <time>1970-01-01T00:00:00Z</time>
      </trkpt>
      <trkpt lat="38.922911" lon="-6.355996">
        <ele>190.2</ele>
        <time>1970-01-01T00:00:00Z</time>
      </trkpt>
      <trkpt lat="38.923242" lon="-6.353748">
        <ele>194.2</ele>
        <time>1970-01-01T00:00:00Z</time>
      </trkpt>
      <trkpt lat="38.923230" lon="-6.353051">
        <ele>196.0</ele>
        <time>1970-01-01T00:00:00Z</time>
      </trkpt>
      <trkpt lat="38.923212" lon="-6.350765">
        <ele>196.6</ele>
        <time>1970-01-01T00:00:00Z</time>
      </trkpt>
      <trkpt lat="38.923274" lon="-6.350419">
        <ele>197.1</ele>
        <time>1970-01-01T00:00:00Z</time>
      </trkpt>
      <trkpt lat="38.922997" lon="-6.350004">
        <ele>198.8</ele>
        <time>1970-01-01T00:00:00Z</time>
      </trkpt>
      <trkpt lat="38.922917" lon="-6.349886">
        <ele>199.9</ele>
        <time>1970-01-01T00:00:00Z</time>
      </trkpt>
      <trkpt lat="38.923189" lon="-6.349634">
        <ele>197.0</ele>
        <time>1970-01-01T00:00:00Z</time>
      </trkpt>
      <trkpt lat="38.923017" lon="-6.349414">
        <ele>198.0</ele>
        <time>1970-01-01T00:00:00Z</time>
      </trkpt>
    </trkseg>
    <trkseg>
      <trkpt lat="38.923017" lon="-6.349414">
        <ele>198.0</ele>
        <time>1970-01-01T00:00:00Z</time>
      </trkpt>
      <trkpt lat="38.925358" lon="-6.348691">
        <ele>206.9</ele>
        <time>1970-01-01T00:00:00Z</time>
      </trkpt>
      <trkpt lat="38.926205" lon="-6.349040">
        <ele>206.4</ele>
        <time>1970-01-01T00:00:00Z</time>
      </trkpt>
      <trkpt lat="38.926394" lon="-6.348433">
        <ele>209.3</ele>
        <time>1970-01-01T00:00:00Z</time>
      </trkpt>
      <trkpt lat="38.926537" lon="-6.348374">
        <ele>210.2</ele>
        <time>1970-01-01T00:00:00Z</time>
      </trkpt>
      <trkpt lat="38.929791" lon="-6.347468">
        <ele>226.2</ele>
        <time>1970-01-01T00:00:00Z</time>
      </trkpt>
      <trkpt lat="38.929993" lon="-6.347535">
        <ele>227.7</ele>
        <time>1970-01-01T00:00:00Z</time>
      </trkpt>
      <trkpt lat="38.930213" lon="-6.347240">
        <ele>228.9</ele>
        <time>1970-01-01T00:00:00Z</time>
      </trkpt>
      <trkpt lat="38.931225" lon="-6.346920">
        <ele>227.5</ele>
        <time>1970-01-01T00:00:00Z</time>
      </trkpt>
      <trkpt lat="38.932778" lon="-6.346472">
        <ele>229.0</ele>
        <time>1970-01-01T00:00:00Z</time>
      </trkpt>
      <trkpt lat="38.932942" lon="-6.346564">
        <ele>229.7</ele>
        <time>1970-01-01T00:00:00Z</time>
      </trkpt>
      <trkpt lat="38.933178" lon="-6.346319">
        <ele>231.0</ele>
        <time>1970-01-01T00:00:00Z</time>
      </trkpt>
      <trkpt lat="38.934159" lon="-6.346008">
        <ele>241.9</ele>
        <time>1970-01-01T00:00:00Z</time>
      </trkpt>
      <trkpt lat="38.935095" lon="-6.345804">
        <ele>245.5</ele>
        <time>1970-01-01T00:00:00Z</time>
      </trkpt>
      <trkpt lat="38.935308" lon="-6.345615">
        <ele>243.8</ele>
        <time>1970-01-01T00:00:00Z</time>
      </trkpt>
      <trkpt lat="38.935557" lon="-6.345210">
        <ele>240.3</ele>
        <time>1970-01-01T00:00:00Z</time>
      </trkpt>
      <trkpt lat="38.935721" lon="-6.345199">
        <ele>240.2</ele>
        <time>1970-01-01T00:00:00Z</time>
      </trkpt>
      <trkpt lat="38.935901" lon="-6.345369">
        <ele>240.8</ele>
        <time>1970-01-01T00:00:00Z</time>
      </trkpt>
      <trkpt lat="38.935943" lon="-6.345709">
        <ele>243.7</ele>
        <time>1970-01-01T00:00:00Z</time>
      </trkpt>
      <trkpt lat="38.936048" lon="-6.345709">
        <ele>243.6</ele>
        <time>1970-01-01T00:00:00Z</time>
      </trkpt>
      <trkpt lat="38.936121" lon="-6.345818">
        <ele>244.3</ele>
        <time>1970-01-01T00:00:00Z</time>
      </trkpt>
      <trkpt lat="38.936147" lon="-6.345967">
        <ele>244.9</ele>
        <time>1970-01-01T00:00:00Z</time>
      </trkpt>
      <trkpt lat="38.936503" lon="-6.351229">
        <ele>225.2</ele>
        <time>1970-01-01T00:00:00Z</time>
      </trkpt>
      <trkpt lat="38.936910" lon="-6.352203">
        <ele>229.3</ele>
        <time>1970-01-01T00:00:00Z</time>
      </trkpt>
      <trkpt lat="38.940505" lon="-6.353287">
        <ele>235.4</ele>
        <time>1970-01-01T00:00:00Z</time>
      </trkpt>
      <trkpt lat="38.941452" lon="-6.353638">
        <ele>244.1</ele>
        <time>1970-01-01T00:00:00Z</time>
      </trkpt>
      <trkpt lat="38.943763" lon="-6.354177">
        <ele>238.2</ele>
        <time>1970-01-01T00:00:00Z</time>
      </trkpt>
      <trkpt lat="38.945970" lon="-6.355039">
        <ele>237.3</ele>
        <time>1970-01-01T00:00:00Z</time>
      </trkpt>
      <trkpt lat="38.947271" lon="-6.354795">
        <ele>256.2</ele>
        <time>1970-01-01T00:00:00Z</time>
      </trkpt>
      <trkpt lat="38.948640" lon="-6.354827">
        <ele>270.8</ele>
        <time>1970-01-01T00:00:00Z</time>
      </trkpt>
      <trkpt lat="38.949207" lon="-6.354849">
        <ele>271.4</ele>
        <time>1970-01-01T00:00:00Z</time>
      </trkpt>
      <trkpt lat="38.953121" lon="-6.356634">
        <ele>271.9</ele>
        <time>1970-01-01T00:00:00Z</time>
      </trkpt>
      <trkpt lat="38.953864" lon="-6.356859">
        <ele>276.6</ele>
        <time>1970-01-01T00:00:00Z</time>
      </trkpt>
      <trkpt lat="38.954198" lon="-6.356656">
        <ele>280.7</ele>
        <time>1970-01-01T00:00:00Z</time>
      </trkpt>
      <trkpt lat="38.954590" lon="-6.356784">
        <ele>281.3</ele>
        <time>1970-01-01T00:00:00Z</time>
      </trkpt>
      <trkpt lat="38.954698" lon="-6.357042">
        <ele>275.9</ele>
        <time>1970-01-01T00:00:00Z</time>
      </trkpt>
      <trkpt lat="38.954973" lon="-6.357165">
        <ele>273.7</ele>
        <time>1970-01-01T00:00:00Z</time>
      </trkpt>
      <trkpt lat="38.956698" lon="-6.357589">
        <ele>266.2</ele>
        <time>1970-01-01T00:00:00Z</time>
      </trkpt>
      <trkpt lat="38.957182" lon="-6.358040">
        <ele>265.8</ele>
        <time>1970-01-01T00:00:00Z</time>
      </trkpt>
      <trkpt lat="38.957966" lon="-6.359316">
        <ele>258.2</ele>
        <time>1970-01-01T00:00:00Z</time>
      </trkpt>
      <trkpt lat="38.959473" lon="-6.361866">
        <ele>249.9</ele>
        <time>1970-01-01T00:00:00Z</time>
      </trkpt>
      <trkpt lat="38.960139" lon="-6.362794">
        <ele>238.6</ele>
        <time>1970-01-01T00:00:00Z</time>
      </trkpt>
      <trkpt lat="38.962912" lon="-6.364103">
        <ele>226.4</ele>
        <time>1970-01-01T00:00:00Z</time>
      </trkpt>
      <trkpt lat="38.963567" lon="-6.364403">
        <ele>227.8</ele>
        <time>1970-01-01T00:00:00Z</time>
      </trkpt>
      <trkpt lat="38.964000" lon="-6.364426">
        <ele>230.4</ele>
        <time>1970-01-01T00:00:00Z</time>
      </trkpt>
      <trkpt lat="38.963981" lon="-6.364462">
        <ele>230.0</ele>
        <time>1970-01-01T00:00:00Z</time>
      </trkpt>
      <trkpt lat="38.963898" lon="-6.364498">
        <ele>229.1</ele>
        <time>1970-01-01T00:00:00Z</time>
      </trkpt>
      <trkpt lat="38.963871" lon="-6.365424">
        <ele>224.5</ele>
        <time>1970-01-01T00:00:00Z</time>
      </trkpt>
      <trkpt lat="38.963871" lon="-6.366674">
        <ele>221.7</ele>
        <time>1970-01-01T00:00:00Z</time>
      </trkpt>
      <trkpt lat="38.964276" lon="-6.368058">
        <ele>218.1</ele>
        <time>1970-01-01T00:00:00Z</time>
      </trkpt>
      <trkpt lat="38.966428" lon="-6.370901">
        <ele>206.6</ele>
        <time>1970-01-01T00:00:00Z</time>
      </trkpt>
      <trkpt lat="38.967458" lon="-6.371953">
        <ele>207.0</ele>
        <time>1970-01-01T00:00:00Z</time>
      </trkpt>
      <trkpt lat="38.968455" lon="-6.372194">
        <ele>205.0</ele>
        <time>1970-01-01T00:00:00Z</time>
      </trkpt>
      <trkpt lat="38.968814" lon="-6.372103">
        <ele>205.4</ele>
        <time>1970-01-01T00:00:00Z</time>
      </trkpt>
      <trkpt lat="38.969598" lon="-6.371405">
        <ele>208.1</ele>
        <time>1970-01-01T00:00:00Z</time>
      </trkpt>
      <trkpt lat="38.970194" lon="-6.369726">
        <ele>221.1</ele>
        <time>1970-01-01T00:00:00Z</time>
      </trkpt>
      <trkpt lat="38.970883" lon="-6.368873">
        <ele>231.2</ele>
        <time>1970-01-01T00:00:00Z</time>
      </trkpt>
      <trkpt lat="38.971008" lon="-6.368766">
        <ele>232.0</ele>
        <time>1970-01-01T00:00:00Z</time>
      </trkpt>
      <trkpt lat="38.970912" lon="-6.368439">
        <ele>231.0</ele>
        <time>1970-01-01T00:00:00Z</time>
      </trkpt>
      <trkpt lat="38.971391" lon="-6.366996">
        <ele>234.5</ele>
        <time>1970-01-01T00:00:00Z</time>
      </trkpt>
      <trkpt lat="38.972235" lon="-6.366751">
        <ele>244.7</ele>
        <time>1970-01-01T00:00:00Z</time>
      </trkpt>
      <trkpt lat="38.972978" lon="-6.366260">
        <ele>249.6</ele>
        <time>1970-01-01T00:00:00Z</time>
      </trkpt>
      <trkpt lat="38.973904" lon="-6.365549">
        <ele>244.1</ele>
        <time>1970-01-01T00:00:00Z</time>
      </trkpt>
      <trkpt lat="38.974128" lon="-6.364997">
        <ele>239.0</ele>
        <time>1970-01-01T00:00:00Z</time>
      </trkpt>
      <trkpt lat="38.974134" lon="-6.364586">
        <ele>237.9</ele>
        <time>1970-01-01T00:00:00Z</time>
      </trkpt>
      <trkpt lat="38.975196" lon="-6.363374">
        <ele>229.9</ele>
        <time>1970-01-01T00:00:00Z</time>
      </trkpt>
      <trkpt lat="38.979510" lon="-6.360815">
        <ele>239.7</ele>
        <time>1970-01-01T00:00:00Z</time>
      </trkpt>
      <trkpt lat="38.980020" lon="-6.360673">
        <ele>243.0</ele>
        <time>1970-01-01T00:00:00Z</time>
      </trkpt>
      <trkpt lat="38.980268" lon="-6.360442">
        <ele>242.7</ele>
        <time>1970-01-01T00:00:00Z</time>
      </trkpt>
      <trkpt lat="38.980822" lon="-6.359967">
        <ele>238.9</ele>
        <time>1970-01-01T00:00:00Z</time>
      </trkpt>
      <trkpt lat="38.982571" lon="-6.359981">
        <ele>231.9</ele>
        <time>1970-01-01T00:00:00Z</time>
      </trkpt>
      <trkpt lat="38.983603" lon="-6.359908">
        <ele>232.2</ele>
        <time>1970-01-01T00:00:00Z</time>
      </trkpt>
      <trkpt lat="38.985001" lon="-6.359695">
        <ele>246.1</ele>
        <time>1970-01-01T00:00:00Z</time>
      </trkpt>
      <trkpt lat="38.987740" lon="-6.357316">
        <ele>241.4</ele>
        <time>1970-01-01T00:00:00Z</time>
      </trkpt>
      <trkpt lat="38.987738" lon="-6.356385">
        <ele>246.8</ele>
        <time>1970-01-01T00:00:00Z</time>
      </trkpt>
      <trkpt lat="38.987865" lon="-6.355824">
        <ele>250.9</ele>
        <time>1970-01-01T00:00:00Z</time>
      </trkpt>
      <trkpt lat="38.990659" lon="-6.353011">
        <ele>257.0</ele>
        <time>1970-01-01T00:00:00Z</time>
      </trkpt>
      <trkpt lat="38.993724" lon="-6.351652">
        <ele>247.3</ele>
        <time>1970-01-01T00:00:00Z</time>
      </trkpt>
      <trkpt lat="38.994120" lon="-6.351381">
        <ele>250.0</ele>
        <time>1970-01-01T00:00:00Z</time>
      </trkpt>
      <trkpt lat="38.995079" lon="-6.349050">
        <ele>240.4</ele>
        <time>1970-01-01T00:00:00Z</time>
      </trkpt>
      <trkpt lat="38.994522" lon="-6.346161">
        <ele>240.7</ele>
        <time>1970-01-01T00:00:00Z</time>
      </trkpt>
      <trkpt lat="38.994328" lon="-6.345292">
        <ele>241.4</ele>
        <time>1970-01-01T00:00:00Z</time>
      </trkpt>
      <trkpt lat="38.994107" lon="-6.345088">
        <ele>241.4</ele>
        <time>1970-01-01T00:00:00Z</time>
      </trkpt>
      <trkpt lat="38.993465" lon="-6.345118">
        <ele>244.9</ele>
        <time>1970-01-01T00:00:00Z</time>
      </trkpt>
      <trkpt lat="38.993225" lon="-6.344721">
        <ele>247.8</ele>
        <time>1970-01-01T00:00:00Z</time>
      </trkpt>
      <trkpt lat="38.993029" lon="-6.342106">
        <ele>255.0</ele>
        <time>1970-01-01T00:00:00Z</time>
      </trkpt>
      <trkpt lat="38.992554" lon="-6.341197">
        <ele>255.6</ele>
        <time>1970-01-01T00:00:00Z</time>
      </trkpt>
      <trkpt lat="38.991332" lon="-6.339510">
        <ele>256.6</ele>
        <time>1970-01-01T00:00:00Z</time>
      </trkpt>
      <trkpt lat="38.989916" lon="-6.336598">
        <ele>264.2</ele>
        <time>1970-01-01T00:00:00Z</time>
      </trkpt>
      <trkpt lat="38.989160" lon="-6.335208">
        <ele>270.5</ele>
        <time>1970-01-01T00:00:00Z</time>
      </trkpt>
      <trkpt lat="38.989000" lon="-6.333672">
        <ele>277.0</ele>
        <time>1970-01-01T00:00:00Z</time>
      </trkpt>
      <trkpt lat="38.989196" lon="-6.332351">
        <ele>271.9</ele>
        <time>1970-01-01T00:00:00Z</time>
      </trkpt>
      <trkpt lat="38.989236" lon="-6.331471">
        <ele>270.4</ele>
        <time>1970-01-01T00:00:00Z</time>
      </trkpt>
      <trkpt lat="38.989085" lon="-6.331118">
        <ele>272.0</ele>
        <time>1970-01-01T00:00:00Z</time>
      </trkpt>
      <trkpt lat="38.989257" lon="-6.330593">
        <ele>271.0</ele>
        <time>1970-01-01T00:00:00Z</time>
      </trkpt>
      <trkpt lat="38.989220" lon="-6.330258">
        <ele>270.5</ele>
        <time>1970-01-01T00:00:00Z</time>
      </trkpt>
      <trkpt lat="38.989100" lon="-6.329705">
        <ele>270.4</ele>
        <time>1970-01-01T00:00:00Z</time>
      </trkpt>
      <trkpt lat="38.989082" lon="-6.329438">
        <ele>269.6</ele>
        <time>1970-01-01T00:00:00Z</time>
      </trkpt>
      <trkpt lat="38.989445" lon="-6.328657">
        <ele>265.9</ele>
        <time>1970-01-01T00:00:00Z</time>
      </trkpt>
      <trkpt lat="38.989481" lon="-6.328060">
        <ele>264.1</ele>
        <time>1970-01-01T00:00:00Z</time>
      </trkpt>
      <trkpt lat="38.996036" lon="-6.329036">
        <ele>253.9</ele>
        <time>1970-01-01T00:00:00Z</time>
      </trkpt>
      <trkpt lat="38.997283" lon="-6.329165">
        <ele>249.7</ele>
        <time>1970-01-01T00:00:00Z</time>
      </trkpt>
      <trkpt lat="38.999188" lon="-6.330029">
        <ele>253.7</ele>
        <time>1970-01-01T00:00:00Z</time>
      </trkpt>
      <trkpt lat="38.999851" lon="-6.330340">
        <ele>249.1</ele>
        <time>1970-01-01T00:00:00Z</time>
      </trkpt>
      <trkpt lat="39.001739" lon="-6.330463">
        <ele>250.2</ele>
        <time>1970-01-01T00:00:00Z</time>
      </trkpt>
      <trkpt lat="39.002919" lon="-6.330190">
        <ele>271.9</ele>
        <time>1970-01-01T00:00:00Z</time>
      </trkpt>
      <trkpt lat="39.003244" lon="-6.330007">
        <ele>277.0</ele>
        <time>1970-01-01T00:00:00Z</time>
      </trkpt>
      <trkpt lat="39.006542" lon="-6.326097">
        <ele>289.9</ele>
        <time>1970-01-01T00:00:00Z</time>
      </trkpt>
      <trkpt lat="39.007017" lon="-6.325533">
        <ele>295.3</ele>
        <time>1970-01-01T00:00:00Z</time>
      </trkpt>
      <trkpt lat="39.008513" lon="-6.324359">
        <ele>300.4</ele>
        <time>1970-01-01T00:00:00Z</time>
      </trkpt>
      <trkpt lat="39.009831" lon="-6.323758">
        <ele>287.9</ele>
        <time>1970-01-01T00:00:00Z</time>
      </trkpt>
      <trkpt lat="39.013073" lon="-6.322626">
        <ele>293.7</ele>
        <time>1970-01-01T00:00:00Z</time>
      </trkpt>
      <trkpt lat="39.014878" lon="-6.321977">
        <ele>305.1</ele>
        <time>1970-01-01T00:00:00Z</time>
      </trkpt>
      <trkpt lat="39.016145" lon="-6.321462">
        <ele>299.1</ele>
        <time>1970-01-01T00:00:00Z</time>
      </trkpt>
      <trkpt lat="39.017046" lon="-6.321516">
        <ele>288.2</ele>
        <time>1970-01-01T00:00:00Z</time>
      </trkpt>
      <trkpt lat="39.018067" lon="-6.322096">
        <ele>286.7</ele>
        <time>1970-01-01T00:00:00Z</time>
      </trkpt>
      <trkpt lat="39.018984" lon="-6.322295">
        <ele>287.1</ele>
        <time>1970-01-01T00:00:00Z</time>
      </trkpt>
      <trkpt lat="39.020888" lon="-6.321549">
        <ele>315.4</ele>
        <time>1970-01-01T00:00:00Z</time>
      </trkpt>
      <trkpt lat="39.021584" lon="-6.321216">
        <ele>299.5</ele>
        <time>1970-01-01T00:00:00Z</time>
      </trkpt>
      <trkpt lat="39.021905" lon="-6.321136">
        <ele>291.1</ele>
        <time>1970-01-01T00:00:00Z</time>
      </trkpt>
      <trkpt lat="39.022330" lon="-6.321098">
        <ele>287.1</ele>
        <time>1970-01-01T00:00:00Z</time>
      </trkpt>
      <trkpt lat="39.023139" lon="-6.321361">
        <ele>285.2</ele>
        <time>1970-01-01T00:00:00Z</time>
      </trkpt>
      <trkpt lat="39.023647" lon="-6.321812">
        <ele>286.1</ele>
        <time>1970-01-01T00:00:00Z</time>
      </trkpt>
      <trkpt lat="39.026081" lon="-6.325261">
        <ele>284.9</ele>
        <time>1970-01-01T00:00:00Z</time>
      </trkpt>
      <trkpt lat="39.026769" lon="-6.325883">
        <ele>279.3</ele>
        <time>1970-01-01T00:00:00Z</time>
      </trkpt>
      <trkpt lat="39.028040" lon="-6.326152">
        <ele>289.7</ele>
        <time>1970-01-01T00:00:00Z</time>
      </trkpt>
      <trkpt lat="39.030957" lon="-6.325873">
        <ele>289.7</ele>
        <time>1970-01-01T00:00:00Z</time>
      </trkpt>
      <trkpt lat="39.031649" lon="-6.325827">
        <ele>286.5</ele>
        <time>1970-01-01T00:00:00Z</time>
      </trkpt>
      <trkpt lat="39.033605" lon="-6.325721">
        <ele>284.4</ele>
        <time>1970-01-01T00:00:00Z</time>
      </trkpt>
      <trkpt lat="39.033949" lon="-6.325726">
        <ele>283.0</ele>
        <time>1970-01-01T00:00:00Z</time>
      </trkpt>
      <trkpt lat="39.034768" lon="-6.325887">
        <ele>282.8</ele>
        <time>1970-01-01T00:00:00Z</time>
      </trkpt>
      <trkpt lat="39.036672" lon="-6.326762">
        <ele>279.5</ele>
        <time>1970-01-01T00:00:00Z</time>
      </trkpt>
      <trkpt lat="39.037953" lon="-6.327352">
        <ele>271.3</ele>
        <time>1970-01-01T00:00:00Z</time>
      </trkpt>
      <trkpt lat="39.041120" lon="-6.328835">
        <ele>256.0</ele>
        <time>1970-01-01T00:00:00Z</time>
      </trkpt>
      <trkpt lat="39.041263" lon="-6.329165">
        <ele>257.7</ele>
        <time>1970-01-01T00:00:00Z</time>
      </trkpt>
      <trkpt lat="39.041465" lon="-6.329495">
        <ele>260.3</ele>
        <time>1970-01-01T00:00:00Z</time>
      </trkpt>
      <trkpt lat="39.041638" lon="-6.329468">
        <ele>260.4</ele>
        <time>1970-01-01T00:00:00Z</time>
      </trkpt>
      <trkpt lat="39.041822" lon="-6.329068">
        <ele>258.5</ele>
        <time>1970-01-01T00:00:00Z</time>
      </trkpt>
      <trkpt lat="39.042090" lon="-6.329012">
        <ele>259.6</ele>
        <time>1970-01-01T00:00:00Z</time>
      </trkpt>
      <trkpt lat="39.042287" lon="-6.329021">
        <ele>260.5</ele>
        <time>1970-01-01T00:00:00Z</time>
      </trkpt>
      <trkpt lat="39.043760" lon="-6.328680">
        <ele>255.5</ele>
        <time>1970-01-01T00:00:00Z</time>
      </trkpt>
      <trkpt lat="39.047323" lon="-6.326411">
        <ele>261.8</ele>
        <time>1970-01-01T00:00:00Z</time>
      </trkpt>
      <trkpt lat="39.048210" lon="-6.325488">
        <ele>256.3</ele>
        <time>1970-01-01T00:00:00Z</time>
      </trkpt>
      <trkpt lat="39.048573" lon="-6.324957">
        <ele>255.8</ele>
        <time>1970-01-01T00:00:00Z</time>
      </trkpt>
      <trkpt lat="39.050435" lon="-6.322162">
        <ele>246.9</ele>
        <time>1970-01-01T00:00:00Z</time>
      </trkpt>
      <trkpt lat="39.051214" lon="-6.321191">
        <ele>243.0</ele>
        <time>1970-01-01T00:00:00Z</time>
      </trkpt>
      <trkpt lat="39.051418" lon="-6.321046">
        <ele>241.2</ele>
        <time>1970-01-01T00:00:00Z</time>
      </trkpt>
      <trkpt lat="39.052251" lon="-6.320826">
        <ele>238.8</ele>
        <time>1970-01-01T00:00:00Z</time>
      </trkpt>
      <trkpt lat="39.054505" lon="-6.321674">
        <ele>250.4</ele>
        <time>1970-01-01T00:00:00Z</time>
      </trkpt>
      <trkpt lat="39.055484" lon="-6.321599">
        <ele>246.8</ele>
        <time>1970-01-01T00:00:00Z</time>
      </trkpt>
      <trkpt lat="39.056071" lon="-6.321100">
        <ele>244.4</ele>
        <time>1970-01-01T00:00:00Z</time>
      </trkpt>
      <trkpt lat="39.056417" lon="-6.320499">
        <ele>246.2</ele>
        <time>1970-01-01T00:00:00Z</time>
      </trkpt>
      <trkpt lat="39.057296" lon="-6.318938">
        <ele>256.9</ele>
        <time>1970-01-01T00:00:00Z</time>
      </trkpt>
      <trkpt lat="39.057783" lon="-6.318445">
        <ele>257.5</ele>
        <time>1970-01-01T00:00:00Z</time>
      </trkpt>
      <trkpt lat="39.060399" lon="-6.317576">
        <ele>277.2</ele>
        <time>1970-01-01T00:00:00Z</time>
      </trkpt>
      <trkpt lat="39.061353" lon="-6.317200">
        <ele>281.0</ele>
        <time>1970-01-01T00:00:00Z</time>
      </trkpt>
      <trkpt lat="39.062053" lon="-6.316841">
        <ele>279.1</ele>
        <time>1970-01-01T00:00:00Z</time>
      </trkpt>
      <trkpt lat="39.065835" lon="-6.314158">
        <ele>299.8</ele>
        <time>1970-01-01T00:00:00Z</time>
      </trkpt>
      <trkpt lat="39.067134" lon="-6.313456">
        <ele>299.7</ele>
        <time>1970-01-01T00:00:00Z</time>
      </trkpt>
      <trkpt lat="39.069504" lon="-6.312474">
        <ele>295.3</ele>
        <time>1970-01-01T00:00:00Z</time>
      </trkpt>
      <trkpt lat="39.070254" lon="-6.312549">
        <ele>292.1</ele>
        <time>1970-01-01T00:00:00Z</time>
      </trkpt>
      <trkpt lat="39.071157" lon="-6.312903">
        <ele>295.4</ele>
        <time>1970-01-01T00:00:00Z</time>
      </trkpt>
      <trkpt lat="39.071874" lon="-6.312909">
        <ele>307.4</ele>
        <time>1970-01-01T00:00:00Z</time>
      </trkpt>
      <trkpt lat="39.072911" lon="-6.312517">
        <ele>332.9</ele>
        <time>1970-01-01T00:00:00Z</time>
      </trkpt>
      <trkpt lat="39.073573" lon="-6.311562">
        <ele>330.8</ele>
        <time>1970-01-01T00:00:00Z</time>
      </trkpt>
      <trkpt lat="39.073731" lon="-6.310398">
        <ele>326.0</ele>
        <time>1970-01-01T00:00:00Z</time>
      </trkpt>
      <trkpt lat="39.073714" lon="-6.308928">
        <ele>341.7</ele>
        <time>1970-01-01T00:00:00Z</time>
      </trkpt>
      <trkpt lat="39.073989" lon="-6.308091">
        <ele>354.4</ele>
        <time>1970-01-01T00:00:00Z</time>
      </trkpt>
      <trkpt lat="39.084895" lon="-6.294385">
        <ele>358.6</ele>
        <time>1970-01-01T00:00:00Z</time>
      </trkpt>
      <trkpt lat="39.087191" lon="-6.291486">
        <ele>369.9</ele>
        <time>1970-01-01T00:00:00Z</time>
      </trkpt>
      <trkpt lat="39.087961" lon="-6.290740">
        <ele>371.4</ele>
        <time>1970-01-01T00:00:00Z</time>
      </trkpt>
      <trkpt lat="39.089972" lon="-6.289415">
        <ele>361.1</ele>
        <time>1970-01-01T00:00:00Z</time>
      </trkpt>
      <trkpt lat="39.094461" lon="-6.286422">
        <ele>365.7</ele>
        <time>1970-01-01T00:00:00Z</time>
      </trkpt>
      <trkpt lat="39.095568" lon="-6.285998">
        <ele>347.1</ele>
        <time>1970-01-01T00:00:00Z</time>
      </trkpt>
      <trkpt lat="39.097025" lon="-6.286035">
        <ele>344.9</ele>
        <time>1970-01-01T00:00:00Z</time>
      </trkpt>
      <trkpt lat="39.098066" lon="-6.285864">
        <ele>369.4</ele>
        <time>1970-01-01T00:00:00Z</time>
      </trkpt>
      <trkpt lat="39.099961" lon="-6.284830">
        <ele>375.0</ele>
        <time>1970-01-01T00:00:00Z</time>
      </trkpt>
      <trkpt lat="39.105190" lon="-6.281574">
        <ele>383.0</ele>
        <time>1970-01-01T00:00:00Z</time>
      </trkpt>
      <trkpt lat="39.106197" lon="-6.281199">
        <ele>369.3</ele>
        <time>1970-01-01T00:00:00Z</time>
      </trkpt>
      <trkpt lat="39.139642" lon="-6.273092">
        <ele>401.4</ele>
        <time>1970-01-01T00:00:00Z</time>
      </trkpt>
      <trkpt lat="39.146270" lon="-6.272057">
        <ele>435.8</ele>
        <time>1970-01-01T00:00:00Z</time>
      </trkpt>
      <trkpt lat="39.150796" lon="-6.270120">
        <ele>453.5</ele>
        <time>1970-01-01T00:00:00Z</time>
      </trkpt>
      <trkpt lat="39.151474" lon="-6.269895">
        <ele>452.2</ele>
        <time>1970-01-01T00:00:00Z</time>
      </trkpt>
      <trkpt lat="39.152764" lon="-6.269901">
        <ele>452.4</ele>
        <time>1970-01-01T00:00:00Z</time>
      </trkpt>
      <trkpt lat="39.153991" lon="-6.269831">
        <ele>470.9</ele>
        <time>1970-01-01T00:00:00Z</time>
      </trkpt>
      <trkpt lat="39.157281" lon="-6.268125">
        <ele>484.2</ele>
        <time>1970-01-01T00:00:00Z</time>
      </trkpt>
      <trkpt lat="39.162605" lon="-6.264788">
        <ele>462.7</ele>
        <time>1970-01-01T00:00:00Z</time>
      </trkpt>
      <trkpt lat="39.162892" lon="-6.264815">
        <ele>462.0</ele>
        <time>1970-01-01T00:00:00Z</time>
      </trkpt>
      <trkpt lat="39.163054" lon="-6.264933">
        <ele>462.1</ele>
        <time>1970-01-01T00:00:00Z</time>
      </trkpt>
      <trkpt lat="39.163333" lon="-6.264922">
        <ele>462.0</ele>
        <time>1970-01-01T00:00:00Z</time>
      </trkpt>
      <trkpt lat="39.163433" lon="-6.264579">
        <ele>462.0</ele>
        <time>1970-01-01T00:00:00Z</time>
      </trkpt>
      <trkpt lat="39.164201" lon="-6.264365">
        <ele>460.0</ele>
        <time>1970-01-01T00:00:00Z</time>
      </trkpt>
      <trkpt lat="39.166627" lon="-6.264015">
        <ele>464.7</ele>
        <time>1970-01-01T00:00:00Z</time>
      </trkpt>
      <trkpt lat="39.168518" lon="-6.263861">
        <ele>454.6</ele>
        <time>1970-01-01T00:00:00Z</time>
      </trkpt>
      <trkpt lat="39.175561" lon="-6.265137">
        <ele>430.6</ele>
        <time>1970-01-01T00:00:00Z</time>
      </trkpt>
      <trkpt lat="39.184968" lon="-6.268356">
        <ele>402.4</ele>
        <time>1970-01-01T00:00:00Z</time>
      </trkpt>
      <trkpt lat="39.196063" lon="-6.274435">
        <ele>392.4</ele>
        <time>1970-01-01T00:00:00Z</time>
      </trkpt>
      <trkpt lat="39.199536" lon="-6.276355">
        <ele>385.6</ele>
        <time>1970-01-01T00:00:00Z</time>
      </trkpt>
      <trkpt lat="39.199969" lon="-6.276583">
        <ele>383.8</ele>
        <time>1970-01-01T00:00:00Z</time>
      </trkpt>
      <trkpt lat="39.201471" lon="-6.277382">
        <ele>386.3</ele>
        <time>1970-01-01T00:00:00Z</time>
      </trkpt>
      <trkpt lat="39.208725" lon="-6.281266">
        <ele>375.2</ele>
        <time>1970-01-01T00:00:00Z</time>
      </trkpt>
      <trkpt lat="39.209448" lon="-6.281625">
        <ele>378.0</ele>
        <time>1970-01-01T00:00:00Z</time>
      </trkpt>
      <trkpt lat="39.210275" lon="-6.282173">
        <ele>380.0</ele>
        <time>1970-01-01T00:00:00Z</time>
      </trkpt>
      <trkpt lat="39.214195" lon="-6.286164">
        <ele>377.5</ele>
        <time>1970-01-01T00:00:00Z</time>
      </trkpt>
      <trkpt lat="39.215101" lon="-6.287017">
        <ele>371.6</ele>
        <time>1970-01-01T00:00:00Z</time>
      </trkpt>
      <trkpt lat="39.234351" lon="-6.297487">
        <ele>371.7</ele>
        <time>1970-01-01T00:00:00Z</time>
      </trkpt>
      <trkpt lat="39.237565" lon="-6.300224">
        <ele>368.0</ele>
        <time>1970-01-01T00:00:00Z</time>
      </trkpt>
      <trkpt lat="39.238171" lon="-6.300659">
        <ele>368.4</ele>
        <time>1970-01-01T00:00:00Z</time>
      </trkpt>
      <trkpt lat="39.238981" lon="-6.301108">
        <ele>369.0</ele>
        <time>1970-01-01T00:00:00Z</time>
      </trkpt>
      <trkpt lat="39.249048" lon="-6.306204">
        <ele>362.9</ele>
        <time>1970-01-01T00:00:00Z</time>
      </trkpt>
      <trkpt lat="39.256551" lon="-6.309967">
        <ele>363.4</ele>
        <time>1970-01-01T00:00:00Z</time>
      </trkpt>
      <trkpt lat="39.267720" lon="-6.315583">
        <ele>365.8</ele>
        <time>1970-01-01T00:00:00Z</time>
      </trkpt>
      <trkpt lat="39.268638" lon="-6.316007">
        <ele>359.0</ele>
        <time>1970-01-01T00:00:00Z</time>
      </trkpt>
      <trkpt lat="39.284438" lon="-6.318432">
        <ele>364.7</ele>
        <time>1970-01-01T00:00:00Z</time>
      </trkpt>
      <trkpt lat="39.285260" lon="-6.318850">
        <ele>370.6</ele>
        <time>1970-01-01T00:00:00Z</time>
      </trkpt>
      <trkpt lat="39.285692" lon="-6.319269">
        <ele>374.0</ele>
        <time>1970-01-01T00:00:00Z</time>
      </trkpt>
      <trkpt lat="39.286892" lon="-6.320492">
        <ele>381.3</ele>
        <time>1970-01-01T00:00:00Z</time>
      </trkpt>
      <trkpt lat="39.288420" lon="-6.321753">
        <ele>379.2</ele>
        <time>1970-01-01T00:00:00Z</time>
      </trkpt>
      <trkpt lat="39.289184" lon="-6.322192">
        <ele>380.0</ele>
        <time>1970-01-01T00:00:00Z</time>
      </trkpt>
      <trkpt lat="39.300995" lon="-6.325001">
        <ele>394.0</ele>
        <time>1970-01-01T00:00:00Z</time>
      </trkpt>
      <trkpt lat="39.302892" lon="-6.325446">
        <ele>402.3</ele>
        <time>1970-01-01T00:00:00Z</time>
      </trkpt>
      <trkpt lat="39.305341" lon="-6.326809">
        <ele>389.0</ele>
        <time>1970-01-01T00:00:00Z</time>
      </trkpt>
      <trkpt lat="39.306088" lon="-6.327061">
        <ele>390.0</ele>
        <time>1970-01-01T00:00:00Z</time>
      </trkpt>
      <trkpt lat="39.307989" lon="-6.327120">
        <ele>387.0</ele>
        <time>1970-01-01T00:00:00Z</time>
      </trkpt>
      <trkpt lat="39.312704" lon="-6.326540">
        <ele>385.0</ele>
        <time>1970-01-01T00:00:00Z</time>
      </trkpt>
      <trkpt lat="39.316983" lon="-6.326122">
        <ele>397.1</ele>
        <time>1970-01-01T00:00:00Z</time>
      </trkpt>
      <trkpt lat="39.340335" lon="-6.332285">
        <ele>402.9</ele>
        <time>1970-01-01T00:00:00Z</time>
      </trkpt>
      <trkpt lat="39.343148" lon="-6.333068">
        <ele>398.3</ele>
        <time>1970-01-01T00:00:00Z</time>
      </trkpt>
      <trkpt lat="39.345292" lon="-6.334130">
        <ele>396.7</ele>
        <time>1970-01-01T00:00:00Z</time>
      </trkpt>
      <trkpt lat="39.348246" lon="-6.335734">
        <ele>382.7</ele>
        <time>1970-01-01T00:00:00Z</time>
      </trkpt>
      <trkpt lat="39.353635" lon="-6.337653">
        <ele>375.1</ele>
        <time>1970-01-01T00:00:00Z</time>
      </trkpt>
      <trkpt lat="39.354017" lon="-6.337787">
        <ele>375.0</ele>
        <time>1970-01-01T00:00:00Z</time>
      </trkpt>
      <trkpt lat="39.355456" lon="-6.338214">
        <ele>374.1</ele>
        <time>1970-01-01T00:00:00Z</time>
      </trkpt>
      <trkpt lat="39.356282" lon="-6.338152">
        <ele>374.9</ele>
        <time>1970-01-01T00:00:00Z</time>
      </trkpt>
      <trkpt lat="39.357481" lon="-6.337685">
        <ele>379.3</ele>
        <time>1970-01-01T00:00:00Z</time>
      </trkpt>
      <trkpt lat="39.358468" lon="-6.337637">
        <ele>381.5</ele>
        <time>1970-01-01T00:00:00Z</time>
      </trkpt>
      <trkpt lat="39.359279" lon="-6.337978">
        <ele>378.5</ele>
        <time>1970-01-01T00:00:00Z</time>
      </trkpt>
      <trkpt lat="39.360647" lon="-6.339332">
        <ele>378.9</ele>
        <time>1970-01-01T00:00:00Z</time>
      </trkpt>
      <trkpt lat="39.361489" lon="-6.340190">
        <ele>378.6</ele>
        <time>1970-01-01T00:00:00Z</time>
      </trkpt>
      <trkpt lat="39.362887" lon="-6.340850">
        <ele>368.9</ele>
        <time>1970-01-01T00:00:00Z</time>
      </trkpt>
      <trkpt lat="39.384333" lon="-6.348296">
        <ele>380.6</ele>
        <time>1970-01-01T00:00:00Z</time>
      </trkpt>
      <trkpt lat="39.385243" lon="-6.349087">
        <ele>377.0</ele>
        <time>1970-01-01T00:00:00Z</time>
      </trkpt>
      <trkpt lat="39.385925" lon="-6.350216">
        <ele>382.7</ele>
        <time>1970-01-01T00:00:00Z</time>
      </trkpt>
      <trkpt lat="39.386083" lon="-6.350410">
        <ele>384.0</ele>
        <time>1970-01-01T00:00:00Z</time>
      </trkpt>
      <trkpt lat="39.386228" lon="-6.351085">
        <ele>386.0</ele>
        <time>1970-01-01T00:00:00Z</time>
      </trkpt>
      <trkpt lat="39.386543" lon="-6.351448">
        <ele>386.0</ele>
        <time>1970-01-01T00:00:00Z</time>
      </trkpt>
      <trkpt lat="39.386966" lon="-6.351198">
        <ele>387.0</ele>
        <time>1970-01-01T00:00:00Z</time>
      </trkpt>
      <trkpt lat="39.386999" lon="-6.351128">
        <ele>386.7</ele>
        <time>1970-01-01T00:00:00Z</time>
      </trkpt>
      <trkpt lat="39.388894" lon="-6.351005">
        <ele>385.1</ele>
        <time>1970-01-01T00:00:00Z</time>
      </trkpt>
      <trkpt lat="39.390755" lon="-6.351032">
        <ele>381.7</ele>
        <time>1970-01-01T00:00:00Z</time>
      </trkpt>
      <trkpt lat="39.391251" lon="-6.351469">
        <ele>381.7</ele>
        <time>1970-01-01T00:00:00Z</time>
      </trkpt>
      <trkpt lat="39.391425" lon="-6.351515">
        <ele>382.4</ele>
        <time>1970-01-01T00:00:00Z</time>
      </trkpt>
      <trkpt lat="39.391947" lon="-6.351077">
        <ele>386.2</ele>
        <time>1970-01-01T00:00:00Z</time>
      </trkpt>
      <trkpt lat="39.392303" lon="-6.351091">
        <ele>387.5</ele>
        <time>1970-01-01T00:00:00Z</time>
      </trkpt>
      <trkpt lat="39.394882" lon="-6.351965">
        <ele>396.1</ele>
        <time>1970-01-01T00:00:00Z</time>
      </trkpt>
      <trkpt lat="39.396905" lon="-6.352711">
        <ele>396.5</ele>
        <time>1970-01-01T00:00:00Z</time>
      </trkpt>
      <trkpt lat="39.397800" lon="-6.352802">
        <ele>398.0</ele>
        <time>1970-01-01T00:00:00Z</time>
      </trkpt>
      <trkpt lat="39.400113" lon="-6.352571">
        <ele>404.0</ele>
        <time>1970-01-01T00:00:00Z</time>
      </trkpt>
      <trkpt lat="39.401311" lon="-6.353102">
        <ele>408.1</ele>
        <time>1970-01-01T00:00:00Z</time>
      </trkpt>
      <trkpt lat="39.402630" lon="-6.354561">
        <ele>412.9</ele>
        <time>1970-01-01T00:00:00Z</time>
      </trkpt>
      <trkpt lat="39.403939" lon="-6.355109">
        <ele>416.1</ele>
        <time>1970-01-01T00:00:00Z</time>
      </trkpt>
      <trkpt lat="39.404792" lon="-6.355039">
        <ele>420.4</ele>
        <time>1970-01-01T00:00:00Z</time>
      </trkpt>
      <trkpt lat="39.409794" lon="-6.354105">
        <ele>434.3</ele>
        <time>1970-01-01T00:00:00Z</time>
      </trkpt>
      <trkpt lat="39.410893" lon="-6.354014">
        <ele>436.5</ele>
        <time>1970-01-01T00:00:00Z</time>
      </trkpt>
      <trkpt lat="39.411738" lon="-6.354180">
        <ele>435.3</ele>
        <time>1970-01-01T00:00:00Z</time>
      </trkpt>
      <trkpt lat="39.413607" lon="-6.354931">
        <ele>448.0</ele>
        <time>1970-01-01T00:00:00Z</time>
      </trkpt>
      <trkpt lat="39.415563" lon="-6.355634">
        <ele>453.6</ele>
        <time>1970-01-01T00:00:00Z</time>
      </trkpt>
      <trkpt lat="39.417660" lon="-6.355516">
        <ele>462.0</ele>
        <time>1970-01-01T00:00:00Z</time>
      </trkpt>
      <trkpt lat="39.419799" lon="-6.355527">
        <ele>460.7</ele>
        <time>1970-01-01T00:00:00Z</time>
      </trkpt>
      <trkpt lat="39.421564" lon="-6.355897">
        <ele>458.4</ele>
        <time>1970-01-01T00:00:00Z</time>
      </trkpt>
      <trkpt lat="39.422352" lon="-6.356423">
        <ele>456.5</ele>
        <time>1970-01-01T00:00:00Z</time>
      </trkpt>
      <trkpt lat="39.422733" lon="-6.356863">
        <ele>456.0</ele>
        <time>1970-01-01T00:00:00Z</time>
      </trkpt>
      <trkpt lat="39.422973" lon="-6.357244">
        <ele>453.8</ele>
        <time>1970-01-01T00:00:00Z</time>
      </trkpt>
      <trkpt lat="39.424573" lon="-6.360194">
        <ele>450.1</ele>
        <time>1970-01-01T00:00:00Z</time>
      </trkpt>
      <trkpt lat="39.425364" lon="-6.361642">
        <ele>447.8</ele>
        <time>1970-01-01T00:00:00Z</time>
      </trkpt>
      <trkpt lat="39.425977" lon="-6.362447">
        <ele>446.0</ele>
        <time>1970-01-01T00:00:00Z</time>
      </trkpt>
      <trkpt lat="39.428820" lon="-6.364502">
        <ele>443.0</ele>
        <time>1970-01-01T00:00:00Z</time>
      </trkpt>
      <trkpt lat="39.429325" lon="-6.364657">
        <ele>445.0</ele>
        <time>1970-01-01T00:00:00Z</time>
      </trkpt>
      <trkpt lat="39.430071" lon="-6.364818">
        <ele>445.1</ele>
        <time>1970-01-01T00:00:00Z</time>
      </trkpt>
      <trkpt lat="39.430217" lon="-6.365145">
        <ele>445.0</ele>
        <time>1970-01-01T00:00:00Z</time>
      </trkpt>
      <trkpt lat="39.430393" lon="-6.365210">
        <ele>445.8</ele>
        <time>1970-01-01T00:00:00Z</time>
      </trkpt>
      <trkpt lat="39.430569" lon="-6.365124">
        <ele>446.5</ele>
        <time>1970-01-01T00:00:00Z</time>
      </trkpt>
      <trkpt lat="39.430639" lon="-6.364920">
        <ele>446.8</ele>
        <time>1970-01-01T00:00:00Z</time>
      </trkpt>
      <trkpt lat="39.430598" lon="-6.364469">
        <ele>446.7</ele>
        <time>1970-01-01T00:00:00Z</time>
      </trkpt>
      <trkpt lat="39.430733" lon="-6.364443">
        <ele>447.3</ele>
        <time>1970-01-01T00:00:00Z</time>
      </trkpt>
      <trkpt lat="39.430950" lon="-6.364636">
        <ele>447.9</ele>
        <time>1970-01-01T00:00:00Z</time>
      </trkpt>
      <trkpt lat="39.431336" lon="-6.365644">
        <ele>447.9</ele>
        <time>1970-01-01T00:00:00Z</time>
      </trkpt>
      <trkpt lat="39.431618" lon="-6.367007">
        <ele>447.1</ele>
        <time>1970-01-01T00:00:00Z</time>
      </trkpt>
      <trkpt lat="39.432538" lon="-6.368745">
        <ele>452.2</ele>
        <time>1970-01-01T00:00:00Z</time>
      </trkpt>
      <trkpt lat="39.433071" lon="-6.369812">
        <ele>452.9</ele>
        <time>1970-01-01T00:00:00Z</time>
      </trkpt>
      <trkpt lat="39.433581" lon="-6.370740">
        <ele>458.0</ele>
        <time>1970-01-01T00:00:00Z</time>
      </trkpt>
      <trkpt lat="39.433997" lon="-6.371518">
        <ele>455.7</ele>
        <time>1970-01-01T00:00:00Z</time>
      </trkpt>
      <trkpt lat="39.434213" lon="-6.371760">
        <ele>455.2</ele>
        <time>1970-01-01T00:00:00Z</time>
      </trkpt>
      <trkpt lat="39.434428" lon="-6.371738">
        <ele>455.6</ele>
        <time>1970-01-01T00:00:00Z</time>
      </trkpt>
      <trkpt lat="39.435049" lon="-6.372478">
        <ele>453.0</ele>
        <time>1970-01-01T00:00:00Z</time>
      </trkpt>
      <trkpt lat="39.435055" lon="-6.372741">
        <ele>452.0</ele>
        <time>1970-01-01T00:00:00Z</time>
      </trkpt>
      <trkpt lat="39.434914" lon="-6.372865">
        <ele>452.0</ele>
        <time>1970-01-01T00:00:00Z</time>
      </trkpt>
      <trkpt lat="39.434989" lon="-6.372984">
        <ele>451.8</ele>
        <time>1970-01-01T00:00:00Z</time>
      </trkpt>
      <trkpt lat="39.435139" lon="-6.373113">
        <ele>451.2</ele>
        <time>1970-01-01T00:00:00Z</time>
      </trkpt>
      <trkpt lat="39.444862" lon="-6.378612">
        <ele>444.0</ele>
        <time>1970-01-01T00:00:00Z</time>
      </trkpt>
      <trkpt lat="39.445032" lon="-6.378886">
        <ele>444.0</ele>
        <time>1970-01-01T00:00:00Z</time>
      </trkpt>
      <trkpt lat="39.445029" lon="-6.378961">
        <ele>444.0</ele>
        <time>1970-01-01T00:00:00Z</time>
      </trkpt>
      <trkpt lat="39.444976" lon="-6.379125">
        <ele>444.0</ele>
        <time>1970-01-01T00:00:00Z</time>
      </trkpt>
      <trkpt lat="39.444850" lon="-6.379768">
        <ele>443.5</ele>
        <time>1970-01-01T00:00:00Z</time>
      </trkpt>
      <trkpt lat="39.445161" lon="-6.380246">
        <ele>441.7</ele>
        <time>1970-01-01T00:00:00Z</time>
      </trkpt>
      <trkpt lat="39.445597" lon="-6.380273">
        <ele>442.0</ele>
        <time>1970-01-01T00:00:00Z</time>
      </trkpt>
      <trkpt lat="39.445846" lon="-6.380058">
        <ele>442.3</ele>
        <time>1970-01-01T00:00:00Z</time>
      </trkpt>
      <trkpt lat="39.446162" lon="-6.379669">
        <ele>443.9</ele>
        <time>1970-01-01T00:00:00Z</time>
      </trkpt>
      <trkpt lat="39.446514" lon="-6.379709">
        <ele>446.1</ele>
        <time>1970-01-01T00:00:00Z</time>
      </trkpt>
      <trkpt lat="39.451088" lon="-6.382222">
        <ele>446.9</ele>
        <time>1970-01-01T00:00:00Z</time>
      </trkpt>
      <trkpt lat="39.453335" lon="-6.383592">
        <ele>437.1</ele>
        <time>1970-01-01T00:00:00Z</time>
      </trkpt>
      <trkpt lat="39.455343" lon="-6.384010">
        <ele>435.4</ele>
        <time>1970-01-01T00:00:00Z</time>
      </trkpt>
      <trkpt lat="39.456105" lon="-6.384213">
        <ele>433.1</ele>
        <time>1970-01-01T00:00:00Z</time>
      </trkpt>
      <trkpt lat="39.456060" lon="-6.384469">
        <ele>433.3</ele>
        <time>1970-01-01T00:00:00Z</time>
      </trkpt>
      <trkpt lat="39.457029" lon="-6.384285">
        <ele>434.0</ele>
        <time>1970-01-01T00:00:00Z</time>
      </trkpt>
      <trkpt lat="39.457968" lon="-6.384399">
        <ele>436.0</ele>
        <time>1970-01-01T00:00:00Z</time>
      </trkpt>
      <trkpt lat="39.460434" lon="-6.384769">
        <ele>440.6</ele>
        <time>1970-01-01T00:00:00Z</time>
      </trkpt>
      <trkpt lat="39.460675" lon="-6.384713">
        <ele>441.3</ele>
        <time>1970-01-01T00:00:00Z</time>
      </trkpt>
      <trkpt lat="39.460857" lon="-6.384877">
        <ele>442.0</ele>
        <time>1970-01-01T00:00:00Z</time>
      </trkpt>
      <trkpt lat="39.460888" lon="-6.385008">
        <ele>442.0</ele>
        <time>1970-01-01T00:00:00Z</time>
      </trkpt>
      <trkpt lat="39.461090" lon="-6.384975">
        <ele>442.0</ele>
        <time>1970-01-01T00:00:00Z</time>
      </trkpt>
      <trkpt lat="39.461198" lon="-6.385212">
        <ele>442.0</ele>
        <time>1970-01-01T00:00:00Z</time>
      </trkpt>
      <trkpt lat="39.461192" lon="-6.385379">
        <ele>442.6</ele>
        <time>1970-01-01T00:00:00Z</time>
      </trkpt>
    </trkseg>
    <trkseg>
      <trkpt lat="39.461192" lon="-6.385379">
        <ele>442.6</ele>
        <time>1970-01-01T00:00:00Z</time>
      </trkpt>
      <trkpt lat="39.461375" lon="-6.385120">
        <ele>442.4</ele>
        <time>1970-01-01T00:00:00Z</time>
      </trkpt>
      <trkpt lat="39.461602" lon="-6.385120">
        <ele>442.8</ele>
        <time>1970-01-01T00:00:00Z</time>
      </trkpt>
      <trkpt lat="39.461882" lon="-6.384678">
        <ele>443.3</ele>
        <time>1970-01-01T00:00:00Z</time>
      </trkpt>
      <trkpt lat="39.462583" lon="-6.384810">
        <ele>444.0</ele>
        <time>1970-01-01T00:00:00Z</time>
      </trkpt>
      <trkpt lat="39.463809" lon="-6.385568">
        <ele>440.4</ele>
        <time>1970-01-01T00:00:00Z</time>
      </trkpt>
      <trkpt lat="39.465778" lon="-6.387510">
        <ele>441.3</ele>
        <time>1970-01-01T00:00:00Z</time>
      </trkpt>
      <trkpt lat="39.465836" lon="-6.388113">
        <ele>440.8</ele>
        <time>1970-01-01T00:00:00Z</time>
      </trkpt>
      <trkpt lat="39.466302" lon="-6.388537">
        <ele>445.8</ele>
        <time>1970-01-01T00:00:00Z</time>
      </trkpt>
      <trkpt lat="39.467587" lon="-6.391035">
        <ele>447.2</ele>
        <time>1970-01-01T00:00:00Z</time>
      </trkpt>
      <trkpt lat="39.468158" lon="-6.392762">
        <ele>440.3</ele>
        <time>1970-01-01T00:00:00Z</time>
      </trkpt>
      <trkpt lat="39.468792" lon="-6.393849">
        <ele>438.6</ele>
        <time>1970-01-01T00:00:00Z</time>
      </trkpt>
      <trkpt lat="39.469376" lon="-6.393426">
        <ele>442.1</ele>
        <time>1970-01-01T00:00:00Z</time>
      </trkpt>
      <trkpt lat="39.469657" lon="-6.392600">
        <ele>444.5</ele>
        <time>1970-01-01T00:00:00Z</time>
      </trkpt>
      <trkpt lat="39.470074" lon="-6.392936">
        <ele>447.4</ele>
        <time>1970-01-01T00:00:00Z</time>
      </trkpt>
      <trkpt lat="39.469937" lon="-6.393504">
        <ele>445.3</ele>
        <time>1970-01-01T00:00:00Z</time>
      </trkpt>
      <trkpt lat="39.470047" lon="-6.393724">
        <ele>445.3</ele>
        <time>1970-01-01T00:00:00Z</time>
      </trkpt>
      <trkpt lat="39.469822" lon="-6.394255">
        <ele>442.1</ele>
        <time>1970-01-01T00:00:00Z</time>
      </trkpt>
      <trkpt lat="39.469890" lon="-6.394448">
        <ele>441.5</ele>
        <time>1970-01-01T00:00:00Z</time>
      </trkpt>
      <trkpt lat="39.470881" lon="-6.394920">
        <ele>444.8</ele>
        <time>1970-01-01T00:00:00Z</time>
      </trkpt>
      <trkpt lat="39.473496" lon="-6.395340">
        <ele>457.0</ele>
        <time>1970-01-01T00:00:00Z</time>
      </trkpt>
      <trkpt lat="39.474133" lon="-6.395694">
        <ele>460.3</ele>
        <time>1970-01-01T00:00:00Z</time>
      </trkpt>
      <trkpt lat="39.474463" lon="-6.396210">
        <ele>459.7</ele>
        <time>1970-01-01T00:00:00Z</time>
      </trkpt>
      <trkpt lat="39.474741" lon="-6.397165">
        <ele>456.4</ele>
        <time>1970-01-01T00:00:00Z</time>
      </trkpt>
      <trkpt lat="39.474859" lon="-6.399362">
        <ele>450.0</ele>
        <time>1970-01-01T00:00:00Z</time>
      </trkpt>
      <trkpt lat="39.475180" lon="-6.399842">
        <ele>447.0</ele>
        <time>1970-01-01T00:00:00Z</time>
      </trkpt>
      <trkpt lat="39.475429" lon="-6.399909">
        <ele>447.3</ele>
        <time>1970-01-01T00:00:00Z</time>
      </trkpt>
      <trkpt lat="39.475565" lon="-6.400118">
        <ele>447.9</ele>
        <time>1970-01-01T00:00:00Z</time>
      </trkpt>
      <trkpt lat="39.475868" lon="-6.399691">
        <ele>449.7</ele>
        <time>1970-01-01T00:00:00Z</time>
      </trkpt>
      <trkpt lat="39.475515" lon="-6.400343">
        <ele>447.6</ele>
        <time>1970-01-01T00:00:00Z</time>
      </trkpt>
      <trkpt lat="39.475904" lon="-6.400777">
        <ele>449.4</ele>
        <time>1970-01-01T00:00:00Z</time>
      </trkpt>
      <trkpt lat="39.476347" lon="-6.400091">
        <ele>452.0</ele>
        <time>1970-01-01T00:00:00Z</time>
      </trkpt>
      <trkpt lat="39.476952" lon="-6.398487">
        <ele>453.9</ele>
        <time>1970-01-01T00:00:00Z</time>
      </trkpt>
      <trkpt lat="39.477616" lon="-6.395437">
        <ele>440.6</ele>
        <time>1970-01-01T00:00:00Z</time>
      </trkpt>
      <trkpt lat="39.477883" lon="-6.392860">
        <ele>431.1</ele>
        <time>1970-01-01T00:00:00Z</time>
      </trkpt>
      <trkpt lat="39.477765" lon="-6.385535">
        <ele>426.3</ele>
        <time>1970-01-01T00:00:00Z</time>
      </trkpt>
      <trkpt lat="39.478034" lon="-6.384291">
        <ele>425.8</ele>
        <time>1970-01-01T00:00:00Z</time>
      </trkpt>
      <trkpt lat="39.478427" lon="-6.383266">
        <ele>428.7</ele>
        <time>1970-01-01T00:00:00Z</time>
      </trkpt>
      <trkpt lat="39.478966" lon="-6.382402">
        <ele>427.0</ele>
        <time>1970-01-01T00:00:00Z</time>
      </trkpt>
      <trkpt lat="39.479646" lon="-6.381881">
        <ele>417.3</ele>
        <time>1970-01-01T00:00:00Z</time>
      </trkpt>
      <trkpt lat="39.480197" lon="-6.381742">
        <ele>410.1</ele>
        <time>1970-01-01T00:00:00Z</time>
      </trkpt>
      <trkpt lat="39.480595" lon="-6.381758">
        <ele>407.9</ele>
        <time>1970-01-01T00:00:00Z</time>
      </trkpt>
      <trkpt lat="39.482880" lon="-6.382820">
        <ele>396.0</ele>
        <time>1970-01-01T00:00:00Z</time>
      </trkpt>
      <trkpt lat="39.484228" lon="-6.383190">
        <ele>386.4</ele>
        <time>1970-01-01T00:00:00Z</time>
      </trkpt>
      <trkpt lat="39.484779" lon="-6.383201">
        <ele>381.6</ele>
        <time>1970-01-01T00:00:00Z</time>
      </trkpt>
      <trkpt lat="39.486550" lon="-6.382720">
        <ele>384.8</ele>
        <time>1970-01-01T00:00:00Z</time>
      </trkpt>
      <trkpt lat="39.494921" lon="-6.385812">
        <ele>365.2</ele>
        <time>1970-01-01T00:00:00Z</time>
      </trkpt>
      <trkpt lat="39.507462" lon="-6.392125">
        <ele>340.6</ele>
        <time>1970-01-01T00:00:00Z</time>
      </trkpt>
      <trkpt lat="39.507408" lon="-6.392650">
        <ele>341.6</ele>
        <time>1970-01-01T00:00:00Z</time>
      </trkpt>
      <trkpt lat="39.507834" lon="-6.392944">
        <ele>341.3</ele>
        <time>1970-01-01T00:00:00Z</time>
      </trkpt>
      <trkpt lat="39.511403" lon="-6.394402">
        <ele>346.9</ele>
        <time>1970-01-01T00:00:00Z</time>
      </trkpt>
      <trkpt lat="39.513542" lon="-6.396698">
        <ele>354.0</ele>
        <time>1970-01-01T00:00:00Z</time>
      </trkpt>
      <trkpt lat="39.516239" lon="-6.397336">
        <ele>340.3</ele>
        <time>1970-01-01T00:00:00Z</time>
      </trkpt>
      <trkpt lat="39.518265" lon="-6.398158">
        <ele>335.0</ele>
        <time>1970-01-01T00:00:00Z</time>
      </trkpt>
      <trkpt lat="39.519162" lon="-6.398890">
        <ele>337.0</ele>
        <time>1970-01-01T00:00:00Z</time>
      </trkpt>
      <trkpt lat="39.520902" lon="-6.399956">
        <ele>341.0</ele>
        <time>1970-01-01T00:00:00Z</time>
      </trkpt>
      <trkpt lat="39.521880" lon="-6.401045">
        <ele>340.0</ele>
        <time>1970-01-01T00:00:00Z</time>
      </trkpt>
      <trkpt lat="39.522445" lon="-6.401106">
        <ele>341.8</ele>
        <time>1970-01-01T00:00:00Z</time>
      </trkpt>
      <trkpt lat="39.523082" lon="-6.401436">
        <ele>343.3</ele>
        <time>1970-01-01T00:00:00Z</time>
      </trkpt>
      <trkpt lat="39.523555" lon="-6.402139">
        <ele>345.3</ele>
        <time>1970-01-01T00:00:00Z</time>
      </trkpt>
      <trkpt lat="39.524583" lon="-6.403213">
        <ele>353.8</ele>
        <time>1970-01-01T00:00:00Z</time>
      </trkpt>
      <trkpt lat="39.526362" lon="-6.404546">
        <ele>348.1</ele>
        <time>1970-01-01T00:00:00Z</time>
      </trkpt>
      <trkpt lat="39.527235" lon="-6.405543">
        <ele>344.7</ele>
        <time>1970-01-01T00:00:00Z</time>
      </trkpt>
      <trkpt lat="39.528333" lon="-6.406183">
        <ele>343.6</ele>
        <time>1970-01-01T00:00:00Z</time>
      </trkpt>
      <trkpt lat="39.528851" lon="-6.406875">
        <ele>341.9</ele>
        <time>1970-01-01T00:00:00Z</time>
      </trkpt>
      <trkpt lat="39.530168" lon="-6.408055">
        <ele>344.0</ele>
        <time>1970-01-01T00:00:00Z</time>
      </trkpt>
      <trkpt lat="39.531230" lon="-6.408351">
        <ele>344.4</ele>
        <time>1970-01-01T00:00:00Z</time>
      </trkpt>
      <trkpt lat="39.532645" lon="-6.409376">
        <ele>352.8</ele>
        <time>1970-01-01T00:00:00Z</time>
      </trkpt>
      <trkpt lat="39.533349" lon="-6.409328">
        <ele>352.8</ele>
        <time>1970-01-01T00:00:00Z</time>
      </trkpt>
      <trkpt lat="39.533717" lon="-6.409054">
        <ele>354.0</ele>
        <time>1970-01-01T00:00:00Z</time>
      </trkpt>
      <trkpt lat="39.534808" lon="-6.408762">
        <ele>355.8</ele>
        <time>1970-01-01T00:00:00Z</time>
      </trkpt>
      <trkpt lat="39.535996" lon="-6.410033">
        <ele>361.0</ele>
        <time>1970-01-01T00:00:00Z</time>
      </trkpt>
      <trkpt lat="39.537930" lon="-6.409342">
        <ele>362.2</ele>
        <time>1970-01-01T00:00:00Z</time>
      </trkpt>
      <trkpt lat="39.539578" lon="-6.410154">
        <ele>366.0</ele>
        <time>1970-01-01T00:00:00Z</time>
      </trkpt>
      <trkpt lat="39.540927" lon="-6.410476">
        <ele>365.0</ele>
        <time>1970-01-01T00:00:00Z</time>
      </trkpt>
      <trkpt lat="39.546533" lon="-6.412638">
        <ele>367.2</ele>
        <time>1970-01-01T00:00:00Z</time>
      </trkpt>
      <trkpt lat="39.551918" lon="-6.415262">
        <ele>365.8</ele>
        <time>1970-01-01T00:00:00Z</time>
      </trkpt>
      <trkpt lat="39.552175" lon="-6.414371">
        <ele>368.0</ele>
        <time>1970-01-01T00:00:00Z</time>
      </trkpt>
      <trkpt lat="39.560518" lon="-6.416823">
        <ele>365.7</ele>
        <time>1970-01-01T00:00:00Z</time>
      </trkpt>
      <trkpt lat="39.560542" lon="-6.418840">
        <ele>364.6</ele>
        <time>1970-01-01T00:00:00Z</time>
      </trkpt>
      <trkpt lat="39.560274" lon="-6.420401">
        <ele>357.1</ele>
        <time>1970-01-01T00:00:00Z</time>
      </trkpt>
      <trkpt lat="39.560571" lon="-6.421088">
        <ele>354.0</ele>
        <time>1970-01-01T00:00:00Z</time>
      </trkpt>
      <trkpt lat="39.560688" lon="-6.422028">
        <ele>350.3</ele>
        <time>1970-01-01T00:00:00Z</time>
      </trkpt>
      <trkpt lat="39.561222" lon="-6.423752">
        <ele>355.5</ele>
        <time>1970-01-01T00:00:00Z</time>
      </trkpt>
      <trkpt lat="39.562822" lon="-6.427196">
        <ele>366.4</ele>
        <time>1970-01-01T00:00:00Z</time>
      </trkpt>
      <trkpt lat="39.562956" lon="-6.428866">
        <ele>380.4</ele>
        <time>1970-01-01T00:00:00Z</time>
      </trkpt>
      <trkpt lat="39.563200" lon="-6.429891">
        <ele>385.0</ele>
        <time>1970-01-01T00:00:00Z</time>
      </trkpt>
      <trkpt lat="39.564482" lon="-6.431961">
        <ele>386.0</ele>
        <time>1970-01-01T00:00:00Z</time>
      </trkpt>
      <trkpt lat="39.565822" lon="-6.436704">
        <ele>380.1</ele>
        <time>1970-01-01T00:00:00Z</time>
      </trkpt>
      <trkpt lat="39.567465" lon="-6.444130">
        <ele>368.0</ele>
        <time>1970-01-01T00:00:00Z</time>
      </trkpt>
      <trkpt lat="39.567857" lon="-6.444999">
        <ele>370.7</ele>
        <time>1970-01-01T00:00:00Z</time>
      </trkpt>
      <trkpt lat="39.572356" lon="-6.449364">
        <ele>362.0</ele>
        <time>1970-01-01T00:00:00Z</time>
      </trkpt>
      <trkpt lat="39.572812" lon="-6.450266">
        <ele>359.0</ele>
        <time>1970-01-01T00:00:00Z</time>
      </trkpt>
      <trkpt lat="39.573984" lon="-6.453625">
        <ele>368.6</ele>
        <time>1970-01-01T00:00:00Z</time>
      </trkpt>
      <trkpt lat="39.574623" lon="-6.454237">
        <ele>370.9</ele>
        <time>1970-01-01T00:00:00Z</time>
      </trkpt>
      <trkpt lat="39.574719" lon="-6.455040">
        <ele>371.3</ele>
        <time>1970-01-01T00:00:00Z</time>
      </trkpt>
      <trkpt lat="39.583278" lon="-6.460247">
        <ele>396.0</ele>
        <time>1970-01-01T00:00:00Z</time>
      </trkpt>
      <trkpt lat="39.588769" lon="-6.467521">
        <ele>384.6</ele>
        <time>1970-01-01T00:00:00Z</time>
      </trkpt>
      <trkpt lat="39.592436" lon="-6.471163">
        <ele>371.7</ele>
        <time>1970-01-01T00:00:00Z</time>
      </trkpt>
      <trkpt lat="39.595858" lon="-6.473647">
        <ele>368.4</ele>
        <time>1970-01-01T00:00:00Z</time>
      </trkpt>
      <trkpt lat="39.599760" lon="-6.474974">
        <ele>386.2</ele>
        <time>1970-01-01T00:00:00Z</time>
      </trkpt>
      <trkpt lat="39.605450" lon="-6.477816">
        <ele>362.9</ele>
        <time>1970-01-01T00:00:00Z</time>
      </trkpt>
      <trkpt lat="39.611021" lon="-6.479659">
        <ele>347.8</ele>
        <time>1970-01-01T00:00:00Z</time>
      </trkpt>
      <trkpt lat="39.615022" lon="-6.479437">
        <ele>340.9</ele>
        <time>1970-01-01T00:00:00Z</time>
      </trkpt>
      <trkpt lat="39.625505" lon="-6.480707">
        <ele>340.1</ele>
        <time>1970-01-01T00:00:00Z</time>
      </trkpt>
      <trkpt lat="39.633250" lon="-6.480732">
        <ele>352.9</ele>
        <time>1970-01-01T00:00:00Z</time>
      </trkpt>
      <trkpt lat="39.636560" lon="-6.481160">
        <ele>356.0</ele>
        <time>1970-01-01T00:00:00Z</time>
      </trkpt>
      <trkpt lat="39.643024" lon="-6.482771">
        <ele>350.4</ele>
        <time>1970-01-01T00:00:00Z</time>
      </trkpt>
      <trkpt lat="39.644598" lon="-6.482658">
        <ele>342.6</ele>
        <time>1970-01-01T00:00:00Z</time>
      </trkpt>
      <trkpt lat="39.647273" lon="-6.482039">
        <ele>362.1</ele>
        <time>1970-01-01T00:00:00Z</time>
      </trkpt>
      <trkpt lat="39.648343" lon="-6.482009">
        <ele>360.7</ele>
        <time>1970-01-01T00:00:00Z</time>
      </trkpt>
      <trkpt lat="39.654763" lon="-6.483340">
        <ele>327.0</ele>
        <time>1970-01-01T00:00:00Z</time>
      </trkpt>
      <trkpt lat="39.663039" lon="-6.483578">
        <ele>339.7</ele>
        <time>1970-01-01T00:00:00Z</time>
      </trkpt>
      <trkpt lat="39.663787" lon="-6.483321">
        <ele>330.0</ele>
        <time>1970-01-01T00:00:00Z</time>
      </trkpt>
      <trkpt lat="39.664770" lon="-6.482376">
        <ele>325.8</ele>
        <time>1970-01-01T00:00:00Z</time>
      </trkpt>
      <trkpt lat="39.667029" lon="-6.476913">
        <ele>315.3</ele>
        <time>1970-01-01T00:00:00Z</time>
      </trkpt>
      <trkpt lat="39.670031" lon="-6.472959">
        <ele>297.7</ele>
        <time>1970-01-01T00:00:00Z</time>
      </trkpt>
      <trkpt lat="39.670872" lon="-6.471106">
        <ele>293.8</ele>
        <time>1970-01-01T00:00:00Z</time>
      </trkpt>
      <trkpt lat="39.671336" lon="-6.470683">
        <ele>301.8</ele>
        <time>1970-01-01T00:00:00Z</time>
      </trkpt>
      <trkpt lat="39.671827" lon="-6.470604">
        <ele>304.9</ele>
        <time>1970-01-01T00:00:00Z</time>
      </trkpt>
      <trkpt lat="39.672273" lon="-6.470790">
        <ele>304.4</ele>
        <time>1970-01-01T00:00:00Z</time>
      </trkpt>
      <trkpt lat="39.674079" lon="-6.472061">
        <ele>298.9</ele>
        <time>1970-01-01T00:00:00Z</time>
      </trkpt>
      <trkpt lat="39.674511" lon="-6.472603">
        <ele>295.8</ele>
        <time>1970-01-01T00:00:00Z</time>
      </trkpt>
      <trkpt lat="39.675064" lon="-6.473751">
        <ele>295.4</ele>
        <time>1970-01-01T00:00:00Z</time>
      </trkpt>
      <trkpt lat="39.675715" lon="-6.474230">
        <ele>292.4</ele>
        <time>1970-01-01T00:00:00Z</time>
      </trkpt>
      <trkpt lat="39.677362" lon="-6.473915">
        <ele>277.8</ele>
        <time>1970-01-01T00:00:00Z</time>
      </trkpt>
      <trkpt lat="39.678846" lon="-6.474835">
        <ele>271.3</ele>
        <time>1970-01-01T00:00:00Z</time>
      </trkpt>
      <trkpt lat="39.679331" lon="-6.474978">
        <ele>265.2</ele>
        <time>1970-01-01T00:00:00Z</time>
      </trkpt>
      <trkpt lat="39.680951" lon="-6.474738">
        <ele>258.4</ele>
        <time>1970-01-01T00:00:00Z</time>
      </trkpt>
      <trkpt lat="39.682061" lon="-6.473981">
        <ele>254.0</ele>
        <time>1970-01-01T00:00:00Z</time>
      </trkpt>
      <trkpt lat="39.683217" lon="-6.473825">
        <ele>248.8</ele>
        <time>1970-01-01T00:00:00Z</time>
      </trkpt>
      <trkpt lat="39.683818" lon="-6.473321">
        <ele>251.2</ele>
        <time>1970-01-01T00:00:00Z</time>
      </trkpt>
      <trkpt lat="39.684354" lon="-6.471747">
        <ele>258.5</ele>
        <time>1970-01-01T00:00:00Z</time>
      </trkpt>
      <trkpt lat="39.684822" lon="-6.471250">
        <ele>252.4</ele>
        <time>1970-01-01T00:00:00Z</time>
      </trkpt>
      <trkpt lat="39.685300" lon="-6.471152">
        <ele>246.9</ele>
        <time>1970-01-01T00:00:00Z</time>
      </trkpt>
      <trkpt lat="39.686361" lon="-6.471674">
        <ele>238.4</ele>
        <time>1970-01-01T00:00:00Z</time>
      </trkpt>
      <trkpt lat="39.686859" lon="-6.471674">
        <ele>236.3</ele>
        <time>1970-01-01T00:00:00Z</time>
      </trkpt>
      <trkpt lat="39.687840" lon="-6.470877">
        <ele>232.8</ele>
        <time>1970-01-01T00:00:00Z</time>
      </trkpt>
      <trkpt lat="39.688853" lon="-6.470579">
        <ele>220.8</ele>
        <time>1970-01-01T00:00:00Z</time>
      </trkpt>
      <trkpt lat="39.689367" lon="-6.470236">
        <ele>219.9</ele>
        <time>1970-01-01T00:00:00Z</time>
      </trkpt>
      <trkpt lat="39.691245" lon="-6.465290">
        <ele>205.9</ele>
        <time>1970-01-01T00:00:00Z</time>
      </trkpt>
      <trkpt lat="39.691895" lon="-6.464054">
        <ele>203.2</ele>
        <time>1970-01-01T00:00:00Z</time>
      </trkpt>
      <trkpt lat="39.692339" lon="-6.463863">
        <ele>211.2</ele>
        <time>1970-01-01T00:00:00Z</time>
      </trkpt>
      <trkpt lat="39.692844" lon="-6.463941">
        <ele>220.2</ele>
        <time>1970-01-01T00:00:00Z</time>
      </trkpt>
      <trkpt lat="39.694575" lon="-6.464813">
        <ele>223.5</ele>
        <time>1970-01-01T00:00:00Z</time>
      </trkpt>
      <trkpt lat="39.695033" lon="-6.464888">
        <ele>219.7</ele>
        <time>1970-01-01T00:00:00Z</time>
      </trkpt>
      <trkpt lat="39.695566" lon="-6.464644">
        <ele>217.8</ele>
        <time>1970-01-01T00:00:00Z</time>
      </trkpt>
      <trkpt lat="39.696604" lon="-6.463552">
        <ele>224.3</ele>
        <time>1970-01-01T00:00:00Z</time>
      </trkpt>
      <trkpt lat="39.698136" lon="-6.463193">
        <ele>222.5</ele>
        <time>1970-01-01T00:00:00Z</time>
      </trkpt>
      <trkpt lat="39.698689" lon="-6.462844">
        <ele>221.6</ele>
        <time>1970-01-01T00:00:00Z</time>
      </trkpt>
      <trkpt lat="39.700076" lon="-6.460344">
        <ele>236.1</ele>
        <time>1970-01-01T00:00:00Z</time>
      </trkpt>
      <trkpt lat="39.700868" lon="-6.457730">
        <ele>242.2</ele>
        <time>1970-01-01T00:00:00Z</time>
      </trkpt>
      <trkpt lat="39.701404" lon="-6.457145">
        <ele>244.3</ele>
        <time>1970-01-01T00:00:00Z</time>
      </trkpt>
      <trkpt lat="39.705846" lon="-6.456614">
        <ele>245.1</ele>
        <time>1970-01-01T00:00:00Z</time>
      </trkpt>
      <trkpt lat="39.707673" lon="-6.456829">
        <ele>243.1</ele>
        <time>1970-01-01T00:00:00Z</time>
      </trkpt>
      <trkpt lat="39.708323" lon="-6.456738">
        <ele>247.5</ele>
        <time>1970-01-01T00:00:00Z</time>
      </trkpt>
      <trkpt lat="39.711379" lon="-6.454523">
        <ele>236.0</ele>
        <time>1970-01-01T00:00:00Z</time>
      </trkpt>
      <trkpt lat="39.712670" lon="-6.452916">
        <ele>226.6</ele>
        <time>1970-01-01T00:00:00Z</time>
      </trkpt>
      <trkpt lat="39.714166" lon="-6.452335">
        <ele>218.1</ele>
        <time>1970-01-01T00:00:00Z</time>
      </trkpt>
      <trkpt lat="39.715334" lon="-6.450532">
        <ele>201.5</ele>
        <time>1970-01-01T00:00:00Z</time>
      </trkpt>
      <trkpt lat="39.719819" lon="-6.448541">
        <ele>208.4</ele>
        <time>1970-01-01T00:00:00Z</time>
      </trkpt>
      <trkpt lat="39.721399" lon="-6.449155">
        <ele>223.8</ele>
        <time>1970-01-01T00:00:00Z</time>
      </trkpt>
      <trkpt lat="39.724352" lon="-6.448030">
        <ele>253.3</ele>
        <time>1970-01-01T00:00:00Z</time>
      </trkpt>
      <trkpt lat="39.727587" lon="-6.448952">
        <ele>254.6</ele>
        <time>1970-01-01T00:00:00Z</time>
      </trkpt>
      <trkpt lat="39.729120" lon="-6.449084">
        <ele>259.0</ele>
        <time>1970-01-01T00:00:00Z</time>
      </trkpt>
      <trkpt lat="39.729438" lon="-6.449305">
        <ele>258.1</ele>
        <time>1970-01-01T00:00:00Z</time>
      </trkpt>
      <trkpt lat="39.730252" lon="-6.450379">
        <ele>237.5</ele>
        <time>1970-01-01T00:00:00Z</time>
      </trkpt>
      <trkpt lat="39.730592" lon="-6.450559">
        <ele>231.0</ele>
        <time>1970-01-01T00:00:00Z</time>
      </trkpt>
      <trkpt lat="39.731147" lon="-6.450524">
        <ele>219.8</ele>
        <time>1970-01-01T00:00:00Z</time>
      </trkpt>
      <trkpt lat="39.733866" lon="-6.448347">
        <ele>205.1</ele>
        <time>1970-01-01T00:00:00Z</time>
      </trkpt>
      <trkpt lat="39.737869" lon="-6.446703">
        <ele>208.8</ele>
        <time>1970-01-01T00:00:00Z</time>
      </trkpt>
      <trkpt lat="39.740380" lon="-6.444070">
        <ele>207.9</ele>
        <time>1970-01-01T00:00:00Z</time>
      </trkpt>
      <trkpt lat="39.748639" lon="-6.437927">
        <ele>197.3</ele>
        <time>1970-01-01T00:00:00Z</time>
      </trkpt>
      <trkpt lat="39.750388" lon="-6.437304">
        <ele>199.0</ele>
        <time>1970-01-01T00:00:00Z</time>
      </trkpt>
      <trkpt lat="39.752642" lon="-6.435480">
        <ele>214.3</ele>
        <time>1970-01-01T00:00:00Z</time>
      </trkpt>
      <trkpt lat="39.755342" lon="-6.431995">
        <ele>210.2</ele>
        <time>1970-01-01T00:00:00Z</time>
      </trkpt>
      <trkpt lat="39.755973" lon="-6.431506">
        <ele>210.7</ele>
        <time>1970-01-01T00:00:00Z</time>
      </trkpt>
      <trkpt lat="39.756685" lon="-6.431281">
        <ele>210.0</ele>
        <time>1970-01-01T00:00:00Z</time>
      </trkpt>
      <trkpt lat="39.757532" lon="-6.431340">
        <ele>208.4</ele>
        <time>1970-01-01T00:00:00Z</time>
      </trkpt>
      <trkpt lat="39.761515" lon="-6.433244">
        <ele>217.7</ele>
        <time>1970-01-01T00:00:00Z</time>
      </trkpt>
      <trkpt lat="39.762483" lon="-6.433399">
        <ele>215.6</ele>
        <time>1970-01-01T00:00:00Z</time>
      </trkpt>
      <trkpt lat="39.763496" lon="-6.432929">
        <ele>210.3</ele>
        <time>1970-01-01T00:00:00Z</time>
      </trkpt>
      <trkpt lat="39.765116" lon="-6.431287">
        <ele>206.0</ele>
        <time>1970-01-01T00:00:00Z</time>
      </trkpt>
      <trkpt lat="39.767465" lon="-6.430564">
        <ele>220.8</ele>
        <time>1970-01-01T00:00:00Z</time>
      </trkpt>
      <trkpt lat="39.769566" lon="-6.428673">
        <ele>224.1</ele>
        <time>1970-01-01T00:00:00Z</time>
      </trkpt>
      <trkpt lat="39.769968" lon="-6.427262">
        <ele>225.1</ele>
        <time>1970-01-01T00:00:00Z</time>
      </trkpt>
      <trkpt lat="39.770665" lon="-6.426133">
        <ele>230.3</ele>
        <time>1970-01-01T00:00:00Z</time>
      </trkpt>
      <trkpt lat="39.771968" lon="-6.420826">
        <ele>229.8</ele>
        <time>1970-01-01T00:00:00Z</time>
      </trkpt>
      <trkpt lat="39.773292" lon="-6.418695">
        <ele>235.8</ele>
        <time>1970-01-01T00:00:00Z</time>
      </trkpt>
      <trkpt lat="39.774255" lon="-6.417574">
        <ele>235.9</ele>
        <time>1970-01-01T00:00:00Z</time>
      </trkpt>
      <trkpt lat="39.775845" lon="-6.416458">
        <ele>240.4</ele>
        <time>1970-01-01T00:00:00Z</time>
      </trkpt>
      <trkpt lat="39.776348" lon="-6.415600">
        <ele>243.4</ele>
        <time>1970-01-01T00:00:00Z</time>
      </trkpt>
      <trkpt lat="39.777488" lon="-6.412301">
        <ele>246.9</ele>
        <time>1970-01-01T00:00:00Z</time>
      </trkpt>
      <trkpt lat="39.777117" lon="-6.409801">
        <ele>252.6</ele>
        <time>1970-01-01T00:00:00Z</time>
      </trkpt>
      <trkpt lat="39.777306" lon="-6.408959">
        <ele>255.3</ele>
        <time>1970-01-01T00:00:00Z</time>
      </trkpt>
      <trkpt lat="39.778062" lon="-6.407252">
        <ele>259.8</ele>
        <time>1970-01-01T00:00:00Z</time>
      </trkpt>
      <trkpt lat="39.780203" lon="-6.404719">
        <ele>263.8</ele>
        <time>1970-01-01T00:00:00Z</time>
      </trkpt>
      <trkpt lat="39.780578" lon="-6.402275">
        <ele>273.1</ele>
        <time>1970-01-01T00:00:00Z</time>
      </trkpt>
      <trkpt lat="39.780429" lon="-6.400374">
        <ele>277.1</ele>
        <time>1970-01-01T00:00:00Z</time>
      </trkpt>
      <trkpt lat="39.781131" lon="-6.398360">
        <ele>283.4</ele>
        <time>1970-01-01T00:00:00Z</time>
      </trkpt>
      <trkpt lat="39.782540" lon="-6.395892">
        <ele>293.8</ele>
        <time>1970-01-01T00:00:00Z</time>
      </trkpt>
      <trkpt lat="39.783257" lon="-6.395002">
        <ele>292.7</ele>
        <time>1970-01-01T00:00:00Z</time>
      </trkpt>
      <trkpt lat="39.785798" lon="-6.394628">
        <ele>321.4</ele>
        <time>1970-01-01T00:00:00Z</time>
      </trkpt>
      <trkpt lat="39.788100" lon="-6.393572">
        <ele>338.9</ele>
        <time>1970-01-01T00:00:00Z</time>
      </trkpt>
      <trkpt lat="39.789839" lon="-6.394143">
        <ele>350.2</ele>
        <time>1970-01-01T00:00:00Z</time>
      </trkpt>
      <trkpt lat="39.790049" lon="-6.393955">
        <ele>352.3</ele>
        <time>1970-01-01T00:00:00Z</time>
      </trkpt>
      <trkpt lat="39.790247" lon="-6.394059">
        <ele>353.0</ele>
        <time>1970-01-01T00:00:00Z</time>
      </trkpt>
      <trkpt lat="39.792265" lon="-6.390947">
        <ele>355.7</ele>
        <time>1970-01-01T00:00:00Z</time>
      </trkpt>
      <trkpt lat="39.792854" lon="-6.390598">
        <ele>358.6</ele>
        <time>1970-01-01T00:00:00Z</time>
      </trkpt>
      <trkpt lat="39.792945" lon="-6.390203">
        <ele>357.8</ele>
        <time>1970-01-01T00:00:00Z</time>
      </trkpt>
      <trkpt lat="39.792815" lon="-6.388945">
        <ele>356.4</ele>
        <time>1970-01-01T00:00:00Z</time>
      </trkpt>
      <trkpt lat="39.793001" lon="-6.388044">
        <ele>350.0</ele>
        <time>1970-01-01T00:00:00Z</time>
      </trkpt>
      <trkpt lat="39.795544" lon="-6.383231">
        <ele>360.2</ele>
        <time>1970-01-01T00:00:00Z</time>
      </trkpt>
      <trkpt lat="39.795419" lon="-6.380785">
        <ele>366.8</ele>
        <time>1970-01-01T00:00:00Z</time>
      </trkpt>
      <trkpt lat="39.796500" lon="-6.377653">
        <ele>372.1</ele>
        <time>1970-01-01T00:00:00Z</time>
      </trkpt>
      <trkpt lat="39.797009" lon="-6.375223">
        <ele>381.6</ele>
        <time>1970-01-01T00:00:00Z</time>
      </trkpt>
      <trkpt lat="39.797347" lon="-6.374614">
        <ele>384.2</ele>
        <time>1970-01-01T00:00:00Z</time>
      </trkpt>
      <trkpt lat="39.797823" lon="-6.374139">
        <ele>384.2</ele>
        <time>1970-01-01T00:00:00Z</time>
      </trkpt>
      <trkpt lat="39.800329" lon="-6.372605">
        <ele>384.0</ele>
        <time>1970-01-01T00:00:00Z</time>
      </trkpt>
      <trkpt lat="39.801924" lon="-6.369392">
        <ele>388.8</ele>
        <time>1970-01-01T00:00:00Z</time>
      </trkpt>
      <trkpt lat="39.802757" lon="-6.368674">
        <ele>387.1</ele>
        <time>1970-01-01T00:00:00Z</time>
      </trkpt>
      <trkpt lat="39.807418" lon="-6.367607">
        <ele>401.3</ele>
        <time>1970-01-01T00:00:00Z</time>
      </trkpt>
      <trkpt lat="39.808168" lon="-6.368448">
        <ele>406.0</ele>
        <time>1970-01-01T00:00:00Z</time>
      </trkpt>
      <trkpt lat="39.809113" lon="-6.370677">
        <ele>421.3</ele>
        <time>1970-01-01T00:00:00Z</time>
      </trkpt>
      <trkpt lat="39.809443" lon="-6.370811">
        <ele>424.9</ele>
        <time>1970-01-01T00:00:00Z</time>
      </trkpt>
      <trkpt lat="39.810637" lon="-6.370530">
        <ele>430.6</ele>
        <time>1970-01-01T00:00:00Z</time>
      </trkpt>
      <trkpt lat="39.811280" lon="-6.370147">
        <ele>433.6</ele>
        <time>1970-01-01T00:00:00Z</time>
      </trkpt>
      <trkpt lat="39.811848" lon="-6.368659">
        <ele>441.7</ele>
        <time>1970-01-01T00:00:00Z</time>
      </trkpt>
      <trkpt lat="39.812241" lon="-6.368233">
        <ele>442.2</ele>
        <time>1970-01-01T00:00:00Z</time>
      </trkpt>
      <trkpt lat="39.814481" lon="-6.366789">
        <ele>447.1</ele>
        <time>1970-01-01T00:00:00Z</time>
      </trkpt>
      <trkpt lat="39.816786" lon="-6.366111">
        <ele>455.3</ele>
        <time>1970-01-01T00:00:00Z</time>
      </trkpt>
      <trkpt lat="39.818103" lon="-6.365236">
        <ele>470.5</ele>
        <time>1970-01-01T00:00:00Z</time>
      </trkpt>
      <trkpt lat="39.819089" lon="-6.365083">
        <ele>473.1</ele>
        <time>1970-01-01T00:00:00Z</time>
      </trkpt>
      <trkpt lat="39.820147" lon="-6.365384">
        <ele>473.1</ele>
        <time>1970-01-01T00:00:00Z</time>
      </trkpt>
      <trkpt lat="39.820530" lon="-6.364826">
        <ele>473.0</ele>
        <time>1970-01-01T00:00:00Z</time>
      </trkpt>
      <trkpt lat="39.821280" lon="-6.364813">
        <ele>472.9</ele>
        <time>1970-01-01T00:00:00Z</time>
      </trkpt>
      <trkpt lat="39.833115" lon="-6.360861">
        <ele>482.8</ele>
        <time>1970-01-01T00:00:00Z</time>
      </trkpt>
      <trkpt lat="39.834954" lon="-6.360105">
        <ele>456.2</ele>
        <time>1970-01-01T00:00:00Z</time>
      </trkpt>
      <trkpt lat="39.835341" lon="-6.360220">
        <ele>450.5</ele>
        <time>1970-01-01T00:00:00Z</time>
      </trkpt>
      <trkpt lat="39.835582" lon="-6.360129">
        <ele>448.7</ele>
        <time>1970-01-01T00:00:00Z</time>
      </trkpt>
      <trkpt lat="39.835669" lon="-6.359654">
        <ele>449.8</ele>
        <time>1970-01-01T00:00:00Z</time>
      </trkpt>
      <trkpt lat="39.835384" lon="-6.359330">
        <ele>453.4</ele>
        <time>1970-01-01T00:00:00Z</time>
      </trkpt>
      <trkpt lat="39.835244" lon="-6.358480">
        <ele>462.8</ele>
        <time>1970-01-01T00:00:00Z</time>
      </trkpt>
      <trkpt lat="39.835516" lon="-6.356728">
        <ele>463.0</ele>
        <time>1970-01-01T00:00:00Z</time>
      </trkpt>
      <trkpt lat="39.837072" lon="-6.353722">
        <ele>461.2</ele>
        <time>1970-01-01T00:00:00Z</time>
      </trkpt>
      <trkpt lat="39.837732" lon="-6.351278">
        <ele>448.0</ele>
        <time>1970-01-01T00:00:00Z</time>
      </trkpt>
      <trkpt lat="39.839536" lon="-6.349248">
        <ele>463.6</ele>
        <time>1970-01-01T00:00:00Z</time>
      </trkpt>
      <trkpt lat="39.841529" lon="-6.344117">
        <ele>467.0</ele>
        <time>1970-01-01T00:00:00Z</time>
      </trkpt>
      <trkpt lat="39.844072" lon="-6.339230">
        <ele>453.0</ele>
        <time>1970-01-01T00:00:00Z</time>
      </trkpt>
      <trkpt lat="39.847620" lon="-6.334040">
        <ele>439.1</ele>
        <time>1970-01-01T00:00:00Z</time>
      </trkpt>
      <trkpt lat="39.848697" lon="-6.332977">
        <ele>430.9</ele>
        <time>1970-01-01T00:00:00Z</time>
      </trkpt>
      <trkpt lat="39.854047" lon="-6.323187">
        <ele>404.1</ele>
        <time>1970-01-01T00:00:00Z</time>
      </trkpt>
      <trkpt lat="39.855657" lon="-6.319004">
        <ele>401.1</ele>
        <time>1970-01-01T00:00:00Z</time>
      </trkpt>
      <trkpt lat="39.856220" lon="-6.318382">
        <ele>400.5</ele>
        <time>1970-01-01T00:00:00Z</time>
      </trkpt>
      <trkpt lat="39.858558" lon="-6.316512">
        <ele>389.6</ele>
        <time>1970-01-01T00:00:00Z</time>
      </trkpt>
      <trkpt lat="39.858875" lon="-6.316105">
        <ele>389.3</ele>
        <time>1970-01-01T00:00:00Z</time>
      </trkpt>
      <trkpt lat="39.860148" lon="-6.312731">
        <ele>380.3</ele>
        <time>1970-01-01T00:00:00Z</time>
      </trkpt>
      <trkpt lat="39.863465" lon="-6.306739">
        <ele>368.5</ele>
        <time>1970-01-01T00:00:00Z</time>
      </trkpt>
      <trkpt lat="39.866461" lon="-6.302521">
        <ele>362.9</ele>
        <time>1970-01-01T00:00:00Z</time>
      </trkpt>
      <trkpt lat="39.868360" lon="-6.299134">
        <ele>359.3</ele>
        <time>1970-01-01T00:00:00Z</time>
      </trkpt>
      <trkpt lat="39.869591" lon="-6.297246">
        <ele>355.4</ele>
        <time>1970-01-01T00:00:00Z</time>
      </trkpt>
      <trkpt lat="39.877758" lon="-6.285994">
        <ele>347.8</ele>
        <time>1970-01-01T00:00:00Z</time>
      </trkpt>
      <trkpt lat="39.881648" lon="-6.279579">
        <ele>335.1</ele>
        <time>1970-01-01T00:00:00Z</time>
      </trkpt>
      <trkpt lat="39.893297" lon="-6.264985">
        <ele>319.0</ele>
        <time>1970-01-01T00:00:00Z</time>
      </trkpt>
      <trkpt lat="39.895040" lon="-6.263480">
        <ele>318.7</ele>
        <time>1970-01-01T00:00:00Z</time>
      </trkpt>
      <trkpt lat="39.897300" lon="-6.261967">
        <ele>321.7</ele>
        <time>1970-01-01T00:00:00Z</time>
      </trkpt>
      <trkpt lat="39.900550" lon="-6.258996">
        <ele>316.4</ele>
        <time>1970-01-01T00:00:00Z</time>
      </trkpt>
      <trkpt lat="39.904496" lon="-6.256362">
        <ele>317.3</ele>
        <time>1970-01-01T00:00:00Z</time>
      </trkpt>
      <trkpt lat="39.911542" lon="-6.250985">
        <ele>323.9</ele>
        <time>1970-01-01T00:00:00Z</time>
      </trkpt>
      <trkpt lat="39.916190" lon="-6.245997">
        <ele>332.5</ele>
        <time>1970-01-01T00:00:00Z</time>
      </trkpt>
      <trkpt lat="39.917830" lon="-6.244061">
        <ele>337.8</ele>
        <time>1970-01-01T00:00:00Z</time>
      </trkpt>
      <trkpt lat="39.919052" lon="-6.242359">
        <ele>336.4</ele>
        <time>1970-01-01T00:00:00Z</time>
      </trkpt>
      <trkpt lat="39.919362" lon="-6.242448">
        <ele>336.6</ele>
        <time>1970-01-01T00:00:00Z</time>
      </trkpt>
      <trkpt lat="39.920222" lon="-6.244210">
        <ele>336.9</ele>
        <time>1970-01-01T00:00:00Z</time>
      </trkpt>
      <trkpt lat="39.920780" lon="-6.246387">
        <ele>342.3</ele>
        <time>1970-01-01T00:00:00Z</time>
      </trkpt>
      <trkpt lat="39.920901" lon="-6.247763">
        <ele>350.2</ele>
        <time>1970-01-01T00:00:00Z</time>
      </trkpt>
      <trkpt lat="39.920829" lon="-6.249449">
        <ele>359.3</ele>
        <time>1970-01-01T00:00:00Z</time>
      </trkpt>
      <trkpt lat="39.919861" lon="-6.254165">
        <ele>367.6</ele>
        <time>1970-01-01T00:00:00Z</time>
      </trkpt>
      <trkpt lat="39.919748" lon="-6.255686">
        <ele>362.8</ele>
        <time>1970-01-01T00:00:00Z</time>
      </trkpt>
      <trkpt lat="39.920162" lon="-6.257297">
        <ele>365.5</ele>
        <time>1970-01-01T00:00:00Z</time>
      </trkpt>
      <trkpt lat="39.920701" lon="-6.258148">
        <ele>357.8</ele>
        <time>1970-01-01T00:00:00Z</time>
      </trkpt>
      <trkpt lat="39.922281" lon="-6.259780">
        <ele>331.8</ele>
        <time>1970-01-01T00:00:00Z</time>
      </trkpt>
      <trkpt lat="39.922935" lon="-6.261422">
        <ele>327.0</ele>
        <time>1970-01-01T00:00:00Z</time>
      </trkpt>
      <trkpt lat="39.923080" lon="-6.263025">
        <ele>317.4</ele>
        <time>1970-01-01T00:00:00Z</time>
      </trkpt>
      <trkpt lat="39.922656" lon="-6.266908">
        <ele>293.7</ele>
        <time>1970-01-01T00:00:00Z</time>
      </trkpt>
      <trkpt lat="39.923677" lon="-6.267147">
        <ele>298.1</ele>
        <time>1970-01-01T00:00:00Z</time>
      </trkpt>
      <trkpt lat="39.925051" lon="-6.266421">
        <ele>308.3</ele>
        <time>1970-01-01T00:00:00Z</time>
      </trkpt>
      <trkpt lat="39.926655" lon="-6.266380">
        <ele>318.0</ele>
        <time>1970-01-01T00:00:00Z</time>
      </trkpt>
      <trkpt lat="39.927226" lon="-6.266596">
        <ele>320.0</ele>
        <time>1970-01-01T00:00:00Z</time>
      </trkpt>
      <trkpt lat="39.927839" lon="-6.266501">
        <ele>321.0</ele>
        <time>1970-01-01T00:00:00Z</time>
      </trkpt>
      <trkpt lat="39.928365" lon="-6.266316">
        <ele>318.9</ele>
        <time>1970-01-01T00:00:00Z</time>
      </trkpt>
      <trkpt lat="39.929632" lon="-6.265096">
        <ele>311.2</ele>
        <time>1970-01-01T00:00:00Z</time>
      </trkpt>
      <trkpt lat="39.930021" lon="-6.264925">
        <ele>307.4</ele>
        <time>1970-01-01T00:00:00Z</time>
      </trkpt>
      <trkpt lat="39.931515" lon="-6.265653">
        <ele>298.9</ele>
        <time>1970-01-01T00:00:00Z</time>
      </trkpt>
      <trkpt lat="39.933149" lon="-6.265688">
        <ele>295.3</ele>
        <time>1970-01-01T00:00:00Z</time>
      </trkpt>
      <trkpt lat="39.933554" lon="-6.265398">
        <ele>292.3</ele>
        <time>1970-01-01T00:00:00Z</time>
      </trkpt>
      <trkpt lat="39.934367" lon="-6.266047">
        <ele>293.8</ele>
        <time>1970-01-01T00:00:00Z</time>
      </trkpt>
      <trkpt lat="39.935080" lon="-6.266318">
        <ele>293.2</ele>
        <time>1970-01-01T00:00:00Z</time>
      </trkpt>
      <trkpt lat="39.935664" lon="-6.266739">
        <ele>296.2</ele>
        <time>1970-01-01T00:00:00Z</time>
      </trkpt>
      <trkpt lat="39.937244" lon="-6.267135">
        <ele>298.8</ele>
        <time>1970-01-01T00:00:00Z</time>
      </trkpt>
      <trkpt lat="39.938289" lon="-6.267087">
        <ele>298.7</ele>
        <time>1970-01-01T00:00:00Z</time>
      </trkpt>
      <trkpt lat="39.939429" lon="-6.266732">
        <ele>292.1</ele>
        <time>1970-01-01T00:00:00Z</time>
      </trkpt>
      <trkpt lat="39.940845" lon="-6.266900">
        <ele>287.1</ele>
        <time>1970-01-01T00:00:00Z</time>
      </trkpt>
      <trkpt lat="39.941437" lon="-6.265433">
        <ele>291.3</ele>
        <time>1970-01-01T00:00:00Z</time>
      </trkpt>
      <trkpt lat="39.942498" lon="-6.265598">
        <ele>285.3</ele>
        <time>1970-01-01T00:00:00Z</time>
      </trkpt>
      <trkpt lat="39.943170" lon="-6.264354">
        <ele>292.2</ele>
        <time>1970-01-01T00:00:00Z</time>
      </trkpt>
      <trkpt lat="39.944257" lon="-6.263754">
        <ele>287.0</ele>
        <time>1970-01-01T00:00:00Z</time>
      </trkpt>
      <trkpt lat="39.944358" lon="-6.262643">
        <ele>287.6</ele>
        <time>1970-01-01T00:00:00Z</time>
      </trkpt>
      <trkpt lat="39.945554" lon="-6.262348">
        <ele>282.9</ele>
        <time>1970-01-01T00:00:00Z</time>
      </trkpt>
      <trkpt lat="39.945681" lon="-6.261922">
        <ele>284.6</ele>
        <time>1970-01-01T00:00:00Z</time>
      </trkpt>
      <trkpt lat="39.945584" lon="-6.261562">
        <ele>285.4</ele>
        <time>1970-01-01T00:00:00Z</time>
      </trkpt>
      <trkpt lat="39.946239" lon="-6.261107">
        <ele>286.9</ele>
        <time>1970-01-01T00:00:00Z</time>
      </trkpt>
      <trkpt lat="39.946979" lon="-6.260922">
        <ele>287.0</ele>
        <time>1970-01-01T00:00:00Z</time>
      </trkpt>
      <trkpt lat="39.948079" lon="-6.259394">
        <ele>279.0</ele>
        <time>1970-01-01T00:00:00Z</time>
      </trkpt>
      <trkpt lat="39.950212" lon="-6.259883">
        <ele>274.0</ele>
        <time>1970-01-01T00:00:00Z</time>
      </trkpt>
      <trkpt lat="39.950711" lon="-6.260408">
        <ele>270.5</ele>
        <time>1970-01-01T00:00:00Z</time>
      </trkpt>
      <trkpt lat="39.956109" lon="-6.260509">
        <ele>248.0</ele>
        <time>1970-01-01T00:00:00Z</time>
      </trkpt>
      <trkpt lat="39.958157" lon="-6.260178">
        <ele>246.5</ele>
        <time>1970-01-01T00:00:00Z</time>
      </trkpt>
      <trkpt lat="39.961270" lon="-6.257903">
        <ele>259.4</ele>
        <time>1970-01-01T00:00:00Z</time>
      </trkpt>
      <trkpt lat="39.961475" lon="-6.258337">
        <ele>257.8</ele>
        <time>1970-01-01T00:00:00Z</time>
      </trkpt>
      <trkpt lat="39.961415" lon="-6.258745">
        <ele>256.5</ele>
        <time>1970-01-01T00:00:00Z</time>
      </trkpt>
      <trkpt lat="39.962737" lon="-6.260167">
        <ele>251.2</ele>
        <time>1970-01-01T00:00:00Z</time>
      </trkpt>
      <trkpt lat="39.963377" lon="-6.260586">
        <ele>250.4</ele>
        <time>1970-01-01T00:00:00Z</time>
      </trkpt>
      <trkpt lat="39.964751" lon="-6.262184">
        <ele>254.4</ele>
        <time>1970-01-01T00:00:00Z</time>
      </trkpt>
      <trkpt lat="39.965184" lon="-6.262253">
        <ele>258.9</ele>
        <time>1970-01-01T00:00:00Z</time>
      </trkpt>
      <trkpt lat="39.965480" lon="-6.262551">
        <ele>267.2</ele>
        <time>1970-01-01T00:00:00Z</time>
      </trkpt>
      <trkpt lat="39.967918" lon="-6.265563">
        <ele>282.0</ele>
        <time>1970-01-01T00:00:00Z</time>
      </trkpt>
      <trkpt lat="39.972144" lon="-6.266226">
        <ele>263.1</ele>
        <time>1970-01-01T00:00:00Z</time>
      </trkpt>
      <trkpt lat="39.973807" lon="-6.265764">
        <ele>272.5</ele>
        <time>1970-01-01T00:00:00Z</time>
      </trkpt>
      <trkpt lat="39.973898" lon="-6.265206">
        <ele>276.2</ele>
        <time>1970-01-01T00:00:00Z</time>
      </trkpt>
      <trkpt lat="39.974917" lon="-6.268164">
        <ele>283.8</ele>
        <time>1970-01-01T00:00:00Z</time>
      </trkpt>
    </trkseg>
    <trkseg>
      <trkpt lat="39.974917" lon="-6.268164">
        <ele>283.8</ele>
        <time>1970-01-01T00:00:00Z</time>
      </trkpt>
      <trkpt lat="39.974918" lon="-6.268979">
        <ele>275.7</ele>
        <time>1970-01-01T00:00:00Z</time>
      </trkpt>
      <trkpt lat="39.975328" lon="-6.269714">
        <ele>273.0</ele>
        <time>1970-01-01T00:00:00Z</time>
      </trkpt>
      <trkpt lat="39.977293" lon="-6.269629">
        <ele>264.2</ele>
        <time>1970-01-01T00:00:00Z</time>
      </trkpt>
      <trkpt lat="39.978908" lon="-6.269754">
        <ele>246.5</ele>
        <time>1970-01-01T00:00:00Z</time>
      </trkpt>
      <trkpt lat="39.980332" lon="-6.271077">
        <ele>237.6</ele>
        <time>1970-01-01T00:00:00Z</time>
      </trkpt>
      <trkpt lat="39.980916" lon="-6.271339">
        <ele>235.0</ele>
        <time>1970-01-01T00:00:00Z</time>
      </trkpt>
      <trkpt lat="39.982840" lon="-6.271646">
        <ele>246.3</ele>
        <time>1970-01-01T00:00:00Z</time>
      </trkpt>
      <trkpt lat="39.983555" lon="-6.271081">
        <ele>251.1</ele>
        <time>1970-01-01T00:00:00Z</time>
      </trkpt>
      <trkpt lat="39.983820" lon="-6.269952">
        <ele>249.4</ele>
        <time>1970-01-01T00:00:00Z</time>
      </trkpt>
      <trkpt lat="39.984132" lon="-6.270033">
        <ele>251.4</ele>
        <time>1970-01-01T00:00:00Z</time>
      </trkpt>
      <trkpt lat="39.984465" lon="-6.269689">
        <ele>252.0</ele>
        <time>1970-01-01T00:00:00Z</time>
      </trkpt>
      <trkpt lat="39.985727" lon="-6.269453">
        <ele>251.1</ele>
        <time>1970-01-01T00:00:00Z</time>
      </trkpt>
      <trkpt lat="39.986360" lon="-6.269657">
        <ele>250.7</ele>
        <time>1970-01-01T00:00:00Z</time>
      </trkpt>
      <trkpt lat="39.986516" lon="-6.269255">
        <ele>251.0</ele>
        <time>1970-01-01T00:00:00Z</time>
      </trkpt>
      <trkpt lat="39.986327" lon="-6.268823">
        <ele>250.9</ele>
        <time>1970-01-01T00:00:00Z</time>
      </trkpt>
      <trkpt lat="39.986319" lon="-6.268276">
        <ele>250.5</ele>
        <time>1970-01-01T00:00:00Z</time>
      </trkpt>
      <trkpt lat="39.986607" lon="-6.267337">
        <ele>249.7</ele>
        <time>1970-01-01T00:00:00Z</time>
      </trkpt>
      <trkpt lat="39.989904" lon="-6.264753">
        <ele>234.8</ele>
        <time>1970-01-01T00:00:00Z</time>
      </trkpt>
      <trkpt lat="39.990665" lon="-6.264716">
        <ele>230.7</ele>
        <time>1970-01-01T00:00:00Z</time>
      </trkpt>
      <trkpt lat="39.993552" lon="-6.265728">
        <ele>244.5</ele>
        <time>1970-01-01T00:00:00Z</time>
      </trkpt>
      <trkpt lat="39.996161" lon="-6.264713">
        <ele>241.0</ele>
        <time>1970-01-01T00:00:00Z</time>
      </trkpt>
      <trkpt lat="39.997974" lon="-6.262593">
        <ele>240.0</ele>
        <time>1970-01-01T00:00:00Z</time>
      </trkpt>
      <trkpt lat="39.999051" lon="-6.260142">
        <ele>244.5</ele>
        <time>1970-01-01T00:00:00Z</time>
      </trkpt>
      <trkpt lat="40.000785" lon="-6.257476">
        <ele>252.7</ele>
        <time>1970-01-01T00:00:00Z</time>
      </trkpt>
      <trkpt lat="40.002741" lon="-6.253258">
        <ele>246.7</ele>
        <time>1970-01-01T00:00:00Z</time>
      </trkpt>
      <trkpt lat="40.003119" lon="-6.249868">
        <ele>250.4</ele>
        <time>1970-01-01T00:00:00Z</time>
      </trkpt>
      <trkpt lat="40.003999" lon="-6.248322">
        <ele>254.1</ele>
        <time>1970-01-01T00:00:00Z</time>
      </trkpt>
      <trkpt lat="40.005486" lon="-6.247067">
        <ele>253.0</ele>
        <time>1970-01-01T00:00:00Z</time>
      </trkpt>
      <trkpt lat="40.008232" lon="-6.242092">
        <ele>252.3</ele>
        <time>1970-01-01T00:00:00Z</time>
      </trkpt>
      <trkpt lat="40.010279" lon="-6.240193">
        <ele>254.0</ele>
        <time>1970-01-01T00:00:00Z</time>
      </trkpt>
      <trkpt lat="40.011002" lon="-6.239099">
        <ele>255.0</ele>
        <time>1970-01-01T00:00:00Z</time>
      </trkpt>
      <trkpt lat="40.012197" lon="-6.238284">
        <ele>252.5</ele>
        <time>1970-01-01T00:00:00Z</time>
      </trkpt>
      <trkpt lat="40.013298" lon="-6.235844">
        <ele>252.1</ele>
        <time>1970-01-01T00:00:00Z</time>
      </trkpt>
      <trkpt lat="40.014379" lon="-6.234128">
        <ele>251.7</ele>
        <time>1970-01-01T00:00:00Z</time>
      </trkpt>
      <trkpt lat="40.017513" lon="-6.230710">
        <ele>251.9</ele>
        <time>1970-01-01T00:00:00Z</time>
      </trkpt>
      <trkpt lat="40.032580" lon="-6.217825">
        <ele>256.2</ele>
        <time>1970-01-01T00:00:00Z</time>
      </trkpt>
      <trkpt lat="40.043351" lon="-6.212974">
        <ele>249.9</ele>
        <time>1970-01-01T00:00:00Z</time>
      </trkpt>
      <trkpt lat="40.045509" lon="-6.212728">
        <ele>254.6</ele>
        <time>1970-01-01T00:00:00Z</time>
      </trkpt>
      <trkpt lat="40.046496" lon="-6.211942">
        <ele>249.8</ele>
        <time>1970-01-01T00:00:00Z</time>
      </trkpt>
      <trkpt lat="40.047450" lon="-6.211462">
        <ele>249.8</ele>
        <time>1970-01-01T00:00:00Z</time>
      </trkpt>
      <trkpt lat="40.049330" lon="-6.212082">
        <ele>258.3</ele>
        <time>1970-01-01T00:00:00Z</time>
      </trkpt>
      <trkpt lat="40.049450" lon="-6.211164">
        <ele>253.0</ele>
        <time>1970-01-01T00:00:00Z</time>
      </trkpt>
      <trkpt lat="40.050977" lon="-6.212166">
        <ele>257.1</ele>
        <time>1970-01-01T00:00:00Z</time>
      </trkpt>
      <trkpt lat="40.051628" lon="-6.210972">
        <ele>252.5</ele>
        <time>1970-01-01T00:00:00Z</time>
      </trkpt>
      <trkpt lat="40.051866" lon="-6.209623">
        <ele>249.0</ele>
        <time>1970-01-01T00:00:00Z</time>
      </trkpt>
      <trkpt lat="40.051788" lon="-6.208939">
        <ele>250.4</ele>
        <time>1970-01-01T00:00:00Z</time>
      </trkpt>
      <trkpt lat="40.050957" lon="-6.207796">
        <ele>255.8</ele>
        <time>1970-01-01T00:00:00Z</time>
      </trkpt>
      <trkpt lat="40.051648" lon="-6.206822">
        <ele>247.5</ele>
        <time>1970-01-01T00:00:00Z</time>
      </trkpt>
      <trkpt lat="40.056531" lon="-6.206910">
        <ele>268.0</ele>
        <time>1970-01-01T00:00:00Z</time>
      </trkpt>
      <trkpt lat="40.056930" lon="-6.207216">
        <ele>266.4</ele>
        <time>1970-01-01T00:00:00Z</time>
      </trkpt>
      <trkpt lat="40.057086" lon="-6.207162">
        <ele>266.5</ele>
        <time>1970-01-01T00:00:00Z</time>
      </trkpt>
      <trkpt lat="40.057521" lon="-6.206020">
        <ele>271.0</ele>
        <time>1970-01-01T00:00:00Z</time>
      </trkpt>
      <trkpt lat="40.058573" lon="-6.205254">
        <ele>278.0</ele>
        <time>1970-01-01T00:00:00Z</time>
      </trkpt>
      <trkpt lat="40.059374" lon="-6.205818">
        <ele>276.1</ele>
        <time>1970-01-01T00:00:00Z</time>
      </trkpt>
      <trkpt lat="40.059878" lon="-6.205793">
        <ele>276.1</ele>
        <time>1970-01-01T00:00:00Z</time>
      </trkpt>
      <trkpt lat="40.060428" lon="-6.205546">
        <ele>277.0</ele>
        <time>1970-01-01T00:00:00Z</time>
      </trkpt>
      <trkpt lat="40.061109" lon="-6.204688">
        <ele>278.7</ele>
        <time>1970-01-01T00:00:00Z</time>
      </trkpt>
      <trkpt lat="40.061717" lon="-6.204430">
        <ele>276.0</ele>
        <time>1970-01-01T00:00:00Z</time>
      </trkpt>
      <trkpt lat="40.061889" lon="-6.204055">
        <ele>276.0</ele>
        <time>1970-01-01T00:00:00Z</time>
      </trkpt>
      <trkpt lat="40.061971" lon="-6.203078">
        <ele>276.0</ele>
        <time>1970-01-01T00:00:00Z</time>
      </trkpt>
      <trkpt lat="40.066150" lon="-6.201151">
        <ele>280.1</ele>
        <time>1970-01-01T00:00:00Z</time>
      </trkpt>
      <trkpt lat="40.066310" lon="-6.200941">
        <ele>280.0</ele>
        <time>1970-01-01T00:00:00Z</time>
      </trkpt>
      <trkpt lat="40.068349" lon="-6.199752">
        <ele>278.5</ele>
        <time>1970-01-01T00:00:00Z</time>
      </trkpt>
      <trkpt lat="40.069094" lon="-6.199748">
        <ele>278.7</ele>
        <time>1970-01-01T00:00:00Z</time>
      </trkpt>
      <trkpt lat="40.070014" lon="-6.199440">
        <ele>280.0</ele>
        <time>1970-01-01T00:00:00Z</time>
      </trkpt>
      <trkpt lat="40.070952" lon="-6.197898">
        <ele>283.4</ele>
        <time>1970-01-01T00:00:00Z</time>
      </trkpt>
      <trkpt lat="40.072541" lon="-6.196803">
        <ele>284.0</ele>
        <time>1970-01-01T00:00:00Z</time>
      </trkpt>
      <trkpt lat="40.072399" lon="-6.195304">
        <ele>284.9</ele>
        <time>1970-01-01T00:00:00Z</time>
      </trkpt>
      <trkpt lat="40.072898" lon="-6.194511">
        <ele>286.3</ele>
        <time>1970-01-01T00:00:00Z</time>
      </trkpt>
      <trkpt lat="40.073341" lon="-6.194570">
        <ele>284.2</ele>
        <time>1970-01-01T00:00:00Z</time>
      </trkpt>
      <trkpt lat="40.073501" lon="-6.194428">
        <ele>283.7</ele>
        <time>1970-01-01T00:00:00Z</time>
      </trkpt>
      <trkpt lat="40.073726" lon="-6.193979">
        <ele>282.0</ele>
        <time>1970-01-01T00:00:00Z</time>
      </trkpt>
      <trkpt lat="40.073604" lon="-6.193504">
        <ele>282.0</ele>
        <time>1970-01-01T00:00:00Z</time>
      </trkpt>
      <trkpt lat="40.073707" lon="-6.193295">
        <ele>281.8</ele>
        <time>1970-01-01T00:00:00Z</time>
      </trkpt>
      <trkpt lat="40.075197" lon="-6.192275">
        <ele>285.7</ele>
        <time>1970-01-01T00:00:00Z</time>
      </trkpt>
      <trkpt lat="40.074011" lon="-6.190385">
        <ele>287.5</ele>
        <time>1970-01-01T00:00:00Z</time>
      </trkpt>
      <trkpt lat="40.073695" lon="-6.189451">
        <ele>288.4</ele>
        <time>1970-01-01T00:00:00Z</time>
      </trkpt>
      <trkpt lat="40.073886" lon="-6.187855">
        <ele>291.5</ele>
        <time>1970-01-01T00:00:00Z</time>
      </trkpt>
      <trkpt lat="40.074395" lon="-6.186713">
        <ele>292.5</ele>
        <time>1970-01-01T00:00:00Z</time>
      </trkpt>
      <trkpt lat="40.074334" lon="-6.185001">
        <ele>289.5</ele>
        <time>1970-01-01T00:00:00Z</time>
      </trkpt>
      <trkpt lat="40.072724" lon="-6.183124">
        <ele>288.7</ele>
        <time>1970-01-01T00:00:00Z</time>
      </trkpt>
      <trkpt lat="40.071568" lon="-6.181129">
        <ele>284.8</ele>
        <time>1970-01-01T00:00:00Z</time>
      </trkpt>
      <trkpt lat="40.071108" lon="-6.179798">
        <ele>281.2</ele>
        <time>1970-01-01T00:00:00Z</time>
      </trkpt>
      <trkpt lat="40.071303" lon="-6.179302">
        <ele>284.8</ele>
        <time>1970-01-01T00:00:00Z</time>
      </trkpt>
      <trkpt lat="40.071201" lon="-6.178712">
        <ele>283.5</ele>
        <time>1970-01-01T00:00:00Z</time>
      </trkpt>
      <trkpt lat="40.071496" lon="-6.178217">
        <ele>286.0</ele>
        <time>1970-01-01T00:00:00Z</time>
      </trkpt>
      <trkpt lat="40.071521" lon="-6.177254">
        <ele>284.9</ele>
        <time>1970-01-01T00:00:00Z</time>
      </trkpt>
      <trkpt lat="40.072345" lon="-6.176133">
        <ele>286.6</ele>
        <time>1970-01-01T00:00:00Z</time>
      </trkpt>
      <trkpt lat="40.072279" lon="-6.174693">
        <ele>287.2</ele>
        <time>1970-01-01T00:00:00Z</time>
      </trkpt>
      <trkpt lat="40.071119" lon="-6.173229">
        <ele>287.9</ele>
        <time>1970-01-01T00:00:00Z</time>
      </trkpt>
      <trkpt lat="40.069990" lon="-6.173485">
        <ele>282.4</ele>
        <time>1970-01-01T00:00:00Z</time>
      </trkpt>
      <trkpt lat="40.069651" lon="-6.172836">
        <ele>283.6</ele>
        <time>1970-01-01T00:00:00Z</time>
      </trkpt>
      <trkpt lat="40.069319" lon="-6.172774">
        <ele>278.8</ele>
        <time>1970-01-01T00:00:00Z</time>
      </trkpt>
      <trkpt lat="40.069210" lon="-6.172557">
        <ele>278.6</ele>
        <time>1970-01-01T00:00:00Z</time>
      </trkpt>
      <trkpt lat="40.069247" lon="-6.171951">
        <ele>284.0</ele>
        <time>1970-01-01T00:00:00Z</time>
      </trkpt>
      <trkpt lat="40.068956" lon="-6.171398">
        <ele>283.3</ele>
        <time>1970-01-01T00:00:00Z</time>
      </trkpt>
      <trkpt lat="40.068835" lon="-6.169927">
        <ele>285.0</ele>
        <time>1970-01-01T00:00:00Z</time>
      </trkpt>
      <trkpt lat="40.069196" lon="-6.169193">
        <ele>288.6</ele>
        <time>1970-01-01T00:00:00Z</time>
      </trkpt>
      <trkpt lat="40.068827" lon="-6.168710">
        <ele>283.9</ele>
        <time>1970-01-01T00:00:00Z</time>
      </trkpt>
      <trkpt lat="40.068745" lon="-6.168029">
        <ele>282.8</ele>
        <time>1970-01-01T00:00:00Z</time>
      </trkpt>
      <trkpt lat="40.069123" lon="-6.167412">
        <ele>285.2</ele>
        <time>1970-01-01T00:00:00Z</time>
      </trkpt>
      <trkpt lat="40.069657" lon="-6.167181">
        <ele>288.5</ele>
        <time>1970-01-01T00:00:00Z</time>
      </trkpt>
      <trkpt lat="40.069821" lon="-6.166738">
        <ele>293.5</ele>
        <time>1970-01-01T00:00:00Z</time>
      </trkpt>
      <trkpt lat="40.069647" lon="-6.166427">
        <ele>293.8</ele>
        <time>1970-01-01T00:00:00Z</time>
      </trkpt>
      <trkpt lat="40.069013" lon="-6.166309">
        <ele>286.4</ele>
        <time>1970-01-01T00:00:00Z</time>
      </trkpt>
      <trkpt lat="40.068715" lon="-6.166004">
        <ele>284.5</ele>
        <time>1970-01-01T00:00:00Z</time>
      </trkpt>
      <trkpt lat="40.068678" lon="-6.165462">
        <ele>286.6</ele>
        <time>1970-01-01T00:00:00Z</time>
      </trkpt>
      <trkpt lat="40.068926" lon="-6.164625">
        <ele>293.1</ele>
        <time>1970-01-01T00:00:00Z</time>
      </trkpt>
      <trkpt lat="40.068592" lon="-6.163297">
        <ele>290.8</ele>
        <time>1970-01-01T00:00:00Z</time>
      </trkpt>
      <trkpt lat="40.068553" lon="-6.162575">
        <ele>290.1</ele>
        <time>1970-01-01T00:00:00Z</time>
      </trkpt>
      <trkpt lat="40.067900" lon="-6.159952">
        <ele>291.1</ele>
        <time>1970-01-01T00:00:00Z</time>
      </trkpt>
      <trkpt lat="40.067205" lon="-6.158230">
        <ele>291.9</ele>
        <time>1970-01-01T00:00:00Z</time>
      </trkpt>
      <trkpt lat="40.067340" lon="-6.157323">
        <ele>292.3</ele>
        <time>1970-01-01T00:00:00Z</time>
      </trkpt>
      <trkpt lat="40.066905" lon="-6.155668">
        <ele>288.1</ele>
        <time>1970-01-01T00:00:00Z</time>
      </trkpt>
      <trkpt lat="40.067065" lon="-6.154793">
        <ele>287.7</ele>
        <time>1970-01-01T00:00:00Z</time>
      </trkpt>
      <trkpt lat="40.066971" lon="-6.153074">
        <ele>287.6</ele>
        <time>1970-01-01T00:00:00Z</time>
      </trkpt>
      <trkpt lat="40.067061" lon="-6.152473">
        <ele>290.5</ele>
        <time>1970-01-01T00:00:00Z</time>
      </trkpt>
      <trkpt lat="40.066882" lon="-6.151808">
        <ele>284.5</ele>
        <time>1970-01-01T00:00:00Z</time>
      </trkpt>
      <trkpt lat="40.067038" lon="-6.150953">
        <ele>285.4</ele>
        <time>1970-01-01T00:00:00Z</time>
      </trkpt>
      <trkpt lat="40.066884" lon="-6.150435">
        <ele>280.9</ele>
        <time>1970-01-01T00:00:00Z</time>
      </trkpt>
      <trkpt lat="40.067133" lon="-6.149523">
        <ele>287.8</ele>
        <time>1970-01-01T00:00:00Z</time>
      </trkpt>
      <trkpt lat="40.066722" lon="-6.147709">
        <ele>279.2</ele>
        <time>1970-01-01T00:00:00Z</time>
      </trkpt>
      <trkpt lat="40.066948" lon="-6.147119">
        <ele>286.7</ele>
        <time>1970-01-01T00:00:00Z</time>
      </trkpt>
      <trkpt lat="40.066689" lon="-6.146891">
        <ele>281.2</ele>
        <time>1970-01-01T00:00:00Z</time>
      </trkpt>
      <trkpt lat="40.066644" lon="-6.146277">
        <ele>281.1</ele>
        <time>1970-01-01T00:00:00Z</time>
      </trkpt>
      <trkpt lat="40.067219" lon="-6.144836">
        <ele>289.5</ele>
        <time>1970-01-01T00:00:00Z</time>
      </trkpt>
      <trkpt lat="40.067262" lon="-6.144190">
        <ele>289.9</ele>
        <time>1970-01-01T00:00:00Z</time>
      </trkpt>
      <trkpt lat="40.066740" lon="-6.143706">
        <ele>276.0</ele>
        <time>1970-01-01T00:00:00Z</time>
      </trkpt>
      <trkpt lat="40.066627" lon="-6.142545">
        <ele>277.5</ele>
        <time>1970-01-01T00:00:00Z</time>
      </trkpt>
      <trkpt lat="40.066897" lon="-6.141818">
        <ele>287.3</ele>
        <time>1970-01-01T00:00:00Z</time>
      </trkpt>
      <trkpt lat="40.067521" lon="-6.140919">
        <ele>292.3</ele>
        <time>1970-01-01T00:00:00Z</time>
      </trkpt>
      <trkpt lat="40.067778" lon="-6.139232">
        <ele>290.1</ele>
        <time>1970-01-01T00:00:00Z</time>
      </trkpt>
      <trkpt lat="40.068742" lon="-6.137253">
        <ele>281.9</ele>
        <time>1970-01-01T00:00:00Z</time>
      </trkpt>
      <trkpt lat="40.069254" lon="-6.137256">
        <ele>282.5</ele>
        <time>1970-01-01T00:00:00Z</time>
      </trkpt>
      <trkpt lat="40.069707" lon="-6.137586">
        <ele>284.0</ele>
        <time>1970-01-01T00:00:00Z</time>
      </trkpt>
      <trkpt lat="40.070852" lon="-6.137709">
        <ele>291.4</ele>
        <time>1970-01-01T00:00:00Z</time>
      </trkpt>
      <trkpt lat="40.071761" lon="-6.137081">
        <ele>280.4</ele>
        <time>1970-01-01T00:00:00Z</time>
      </trkpt>
      <trkpt lat="40.073444" lon="-6.137780">
        <ele>285.1</ele>
        <time>1970-01-01T00:00:00Z</time>
      </trkpt>
      <trkpt lat="40.074764" lon="-6.136637">
        <ele>284.7</ele>
        <time>1970-01-01T00:00:00Z</time>
      </trkpt>
      <trkpt lat="40.074641" lon="-6.135999">
        <ele>281.4</ele>
        <time>1970-01-01T00:00:00Z</time>
      </trkpt>
      <trkpt lat="40.074935" lon="-6.135392">
        <ele>279.8</ele>
        <time>1970-01-01T00:00:00Z</time>
      </trkpt>
      <trkpt lat="40.076122" lon="-6.135436">
        <ele>287.3</ele>
        <time>1970-01-01T00:00:00Z</time>
      </trkpt>
      <trkpt lat="40.076563" lon="-6.134628">
        <ele>284.6</ele>
        <time>1970-01-01T00:00:00Z</time>
      </trkpt>
      <trkpt lat="40.077513" lon="-6.134301">
        <ele>281.5</ele>
        <time>1970-01-01T00:00:00Z</time>
      </trkpt>
      <trkpt lat="40.077773" lon="-6.134398">
        <ele>282.2</ele>
        <time>1970-01-01T00:00:00Z</time>
      </trkpt>
      <trkpt lat="40.078013" lon="-6.134811">
        <ele>284.4</ele>
        <time>1970-01-01T00:00:00Z</time>
      </trkpt>
      <trkpt lat="40.078699" lon="-6.134607">
        <ele>281.4</ele>
        <time>1970-01-01T00:00:00Z</time>
      </trkpt>
      <trkpt lat="40.079124" lon="-6.135052">
        <ele>281.4</ele>
        <time>1970-01-01T00:00:00Z</time>
      </trkpt>
      <trkpt lat="40.080900" lon="-6.134825">
        <ele>282.1</ele>
        <time>1970-01-01T00:00:00Z</time>
      </trkpt>
      <trkpt lat="40.081436" lon="-6.135447">
        <ele>283.5</ele>
        <time>1970-01-01T00:00:00Z</time>
      </trkpt>
      <trkpt lat="40.081594" lon="-6.135415">
        <ele>283.0</ele>
        <time>1970-01-01T00:00:00Z</time>
      </trkpt>
      <trkpt lat="40.081855" lon="-6.134997">
        <ele>282.0</ele>
        <time>1970-01-01T00:00:00Z</time>
      </trkpt>
      <trkpt lat="40.082179" lon="-6.134983">
        <ele>282.0</ele>
        <time>1970-01-01T00:00:00Z</time>
      </trkpt>
      <trkpt lat="40.082491" lon="-6.135230">
        <ele>282.0</ele>
        <time>1970-01-01T00:00:00Z</time>
      </trkpt>
      <trkpt lat="40.082846" lon="-6.135976">
        <ele>285.6</ele>
        <time>1970-01-01T00:00:00Z</time>
      </trkpt>
      <trkpt lat="40.083077" lon="-6.136104">
        <ele>286.0</ele>
        <time>1970-01-01T00:00:00Z</time>
      </trkpt>
      <trkpt lat="40.083569" lon="-6.135377">
        <ele>283.8</ele>
        <time>1970-01-01T00:00:00Z</time>
      </trkpt>
      <trkpt lat="40.084739" lon="-6.135614">
        <ele>281.7</ele>
        <time>1970-01-01T00:00:00Z</time>
      </trkpt>
      <trkpt lat="40.085715" lon="-6.135324">
        <ele>277.1</ele>
        <time>1970-01-01T00:00:00Z</time>
      </trkpt>
      <trkpt lat="40.087466" lon="-6.135626">
        <ele>277.7</ele>
        <time>1970-01-01T00:00:00Z</time>
      </trkpt>
      <trkpt lat="40.088351" lon="-6.135452">
        <ele>279.7</ele>
        <time>1970-01-01T00:00:00Z</time>
      </trkpt>
      <trkpt lat="40.088961" lon="-6.135747">
        <ele>280.2</ele>
        <time>1970-01-01T00:00:00Z</time>
      </trkpt>
      <trkpt lat="40.089287" lon="-6.136136">
        <ele>281.5</ele>
        <time>1970-01-01T00:00:00Z</time>
      </trkpt>
      <trkpt lat="40.089829" lon="-6.136335">
        <ele>281.6</ele>
        <time>1970-01-01T00:00:00Z</time>
      </trkpt>
      <trkpt lat="40.090288" lon="-6.136756">
        <ele>282.6</ele>
        <time>1970-01-01T00:00:00Z</time>
      </trkpt>
      <trkpt lat="40.090512" lon="-6.136772">
        <ele>282.5</ele>
        <time>1970-01-01T00:00:00Z</time>
      </trkpt>
      <trkpt lat="40.091107" lon="-6.136343">
        <ele>279.8</ele>
        <time>1970-01-01T00:00:00Z</time>
      </trkpt>
      <trkpt lat="40.092061" lon="-6.136665">
        <ele>288.0</ele>
        <time>1970-01-01T00:00:00Z</time>
      </trkpt>
      <trkpt lat="40.092688" lon="-6.136183">
        <ele>288.0</ele>
        <time>1970-01-01T00:00:00Z</time>
      </trkpt>
      <trkpt lat="40.092756" lon="-6.134954">
        <ele>293.8</ele>
        <time>1970-01-01T00:00:00Z</time>
      </trkpt>
      <trkpt lat="40.092440" lon="-6.134612">
        <ele>292.2</ele>
        <time>1970-01-01T00:00:00Z</time>
      </trkpt>
      <trkpt lat="40.091446" lon="-6.134206">
        <ele>280.8</ele>
        <time>1970-01-01T00:00:00Z</time>
      </trkpt>
      <trkpt lat="40.091060" lon="-6.133372">
        <ele>278.0</ele>
        <time>1970-01-01T00:00:00Z</time>
      </trkpt>
      <trkpt lat="40.091252" lon="-6.132687">
        <ele>284.3</ele>
        <time>1970-01-01T00:00:00Z</time>
      </trkpt>
      <trkpt lat="40.090627" lon="-6.130639">
        <ele>285.5</ele>
        <time>1970-01-01T00:00:00Z</time>
      </trkpt>
      <trkpt lat="40.090582" lon="-6.129896">
        <ele>284.7</ele>
        <time>1970-01-01T00:00:00Z</time>
      </trkpt>
      <trkpt lat="40.090716" lon="-6.129236">
        <ele>285.6</ele>
        <time>1970-01-01T00:00:00Z</time>
      </trkpt>
      <trkpt lat="40.090554" lon="-6.127132">
        <ele>282.6</ele>
        <time>1970-01-01T00:00:00Z</time>
      </trkpt>
      <trkpt lat="40.090761" lon="-6.126228">
        <ele>286.8</ele>
        <time>1970-01-01T00:00:00Z</time>
      </trkpt>
      <trkpt lat="40.090637" lon="-6.125331">
        <ele>283.1</ele>
        <time>1970-01-01T00:00:00Z</time>
      </trkpt>
      <trkpt lat="40.090912" lon="-6.124024">
        <ele>280.9</ele>
        <time>1970-01-01T00:00:00Z</time>
      </trkpt>
      <trkpt lat="40.090953" lon="-6.122820">
        <ele>279.1</ele>
        <time>1970-01-01T00:00:00Z</time>
      </trkpt>
      <trkpt lat="40.091125" lon="-6.122420">
        <ele>279.8</ele>
        <time>1970-01-01T00:00:00Z</time>
      </trkpt>
      <trkpt lat="40.091657" lon="-6.122142">
        <ele>283.6</ele>
        <time>1970-01-01T00:00:00Z</time>
      </trkpt>
      <trkpt lat="40.091866" lon="-6.121410">
        <ele>282.6</ele>
        <time>1970-01-01T00:00:00Z</time>
      </trkpt>
      <trkpt lat="40.092721" lon="-6.121112">
        <ele>282.0</ele>
        <time>1970-01-01T00:00:00Z</time>
      </trkpt>
      <trkpt lat="40.093158" lon="-6.120680">
        <ele>280.2</ele>
        <time>1970-01-01T00:00:00Z</time>
      </trkpt>
      <trkpt lat="40.093874" lon="-6.121048">
        <ele>285.2</ele>
        <time>1970-01-01T00:00:00Z</time>
      </trkpt>
      <trkpt lat="40.094239" lon="-6.121002">
        <ele>286.7</ele>
        <time>1970-01-01T00:00:00Z</time>
      </trkpt>
      <trkpt lat="40.094656" lon="-6.119192">
        <ele>288.0</ele>
        <time>1970-01-01T00:00:00Z</time>
      </trkpt>
      <trkpt lat="40.096069" lon="-6.117636">
        <ele>288.6</ele>
        <time>1970-01-01T00:00:00Z</time>
      </trkpt>
      <trkpt lat="40.096120" lon="-6.116952">
        <ele>288.6</ele>
        <time>1970-01-01T00:00:00Z</time>
      </trkpt>
      <trkpt lat="40.095779" lon="-6.116134">
        <ele>284.8</ele>
        <time>1970-01-01T00:00:00Z</time>
      </trkpt>
      <trkpt lat="40.096149" lon="-6.115338">
        <ele>291.0</ele>
        <time>1970-01-01T00:00:00Z</time>
      </trkpt>
      <trkpt lat="40.095915" lon="-6.114737">
        <ele>288.4</ele>
        <time>1970-01-01T00:00:00Z</time>
      </trkpt>
      <trkpt lat="40.095311" lon="-6.114187">
        <ele>284.3</ele>
        <time>1970-01-01T00:00:00Z</time>
      </trkpt>
      <trkpt lat="40.095143" lon="-6.112232">
        <ele>288.8</ele>
        <time>1970-01-01T00:00:00Z</time>
      </trkpt>
      <trkpt lat="40.094920" lon="-6.112087">
        <ele>287.3</ele>
        <time>1970-01-01T00:00:00Z</time>
      </trkpt>
      <trkpt lat="40.094539" lon="-6.112290">
        <ele>283.2</ele>
        <time>1970-01-01T00:00:00Z</time>
      </trkpt>
      <trkpt lat="40.094149" lon="-6.112156">
        <ele>282.9</ele>
        <time>1970-01-01T00:00:00Z</time>
      </trkpt>
      <trkpt lat="40.093998" lon="-6.111913">
        <ele>283.7</ele>
        <time>1970-01-01T00:00:00Z</time>
      </trkpt>
      <trkpt lat="40.093979" lon="-6.110923">
        <ele>287.4</ele>
        <time>1970-01-01T00:00:00Z</time>
      </trkpt>
      <trkpt lat="40.093578" lon="-6.110818">
        <ele>287.9</ele>
        <time>1970-01-01T00:00:00Z</time>
      </trkpt>
      <trkpt lat="40.093210" lon="-6.111714">
        <ele>285.5</ele>
        <time>1970-01-01T00:00:00Z</time>
      </trkpt>
      <trkpt lat="40.092392" lon="-6.112233">
        <ele>288.1</ele>
        <time>1970-01-01T00:00:00Z</time>
      </trkpt>
      <trkpt lat="40.092007" lon="-6.112973">
        <ele>286.1</ele>
        <time>1970-01-01T00:00:00Z</time>
      </trkpt>
      <trkpt lat="40.092089" lon="-6.113679">
        <ele>283.1</ele>
        <time>1970-01-01T00:00:00Z</time>
      </trkpt>
      <trkpt lat="40.091663" lon="-6.114858">
        <ele>279.6</ele>
        <time>1970-01-01T00:00:00Z</time>
      </trkpt>
      <trkpt lat="40.090013" lon="-6.115215">
        <ele>278.0</ele>
        <time>1970-01-01T00:00:00Z</time>
      </trkpt>
      <trkpt lat="40.089550" lon="-6.114885">
        <ele>283.4</ele>
        <time>1970-01-01T00:00:00Z</time>
      </trkpt>
      <trkpt lat="40.089394" lon="-6.114923">
        <ele>284.9</ele>
        <time>1970-01-01T00:00:00Z</time>
      </trkpt>
      <trkpt lat="40.089324" lon="-6.115226">
        <ele>283.9</ele>
        <time>1970-01-01T00:00:00Z</time>
      </trkpt>
      <trkpt lat="40.089504" lon="-6.115948">
        <ele>281.4</ele>
        <time>1970-01-01T00:00:00Z</time>
      </trkpt>
      <trkpt lat="40.089022" lon="-6.117316">
        <ele>285.0</ele>
        <time>1970-01-01T00:00:00Z</time>
      </trkpt>
      <trkpt lat="40.088059" lon="-6.117978">
        <ele>285.5</ele>
        <time>1970-01-01T00:00:00Z</time>
      </trkpt>
      <trkpt lat="40.087899" lon="-6.119391">
        <ele>280.3</ele>
        <time>1970-01-01T00:00:00Z</time>
      </trkpt>
      <trkpt lat="40.087103" lon="-6.119718">
        <ele>285.0</ele>
        <time>1970-01-01T00:00:00Z</time>
      </trkpt>
      <trkpt lat="40.086885" lon="-6.120400">
        <ele>280.1</ele>
        <time>1970-01-01T00:00:00Z</time>
      </trkpt>
      <trkpt lat="40.086710" lon="-6.120513">
        <ele>279.4</ele>
        <time>1970-01-01T00:00:00Z</time>
      </trkpt>
      <trkpt lat="40.085910" lon="-6.120234">
        <ele>282.7</ele>
        <time>1970-01-01T00:00:00Z</time>
      </trkpt>
      <trkpt lat="40.084892" lon="-6.119180">
        <ele>288.4</ele>
        <time>1970-01-01T00:00:00Z</time>
      </trkpt>
      <trkpt lat="40.083821" lon="-6.118918">
        <ele>279.7</ele>
        <time>1970-01-01T00:00:00Z</time>
      </trkpt>
      <trkpt lat="40.083237" lon="-6.118346">
        <ele>276.4</ele>
        <time>1970-01-01T00:00:00Z</time>
      </trkpt>
      <trkpt lat="40.083321" lon="-6.117493">
        <ele>282.3</ele>
        <time>1970-01-01T00:00:00Z</time>
      </trkpt>
      <trkpt lat="40.083077" lon="-6.116433">
        <ele>281.6</ele>
        <time>1970-01-01T00:00:00Z</time>
      </trkpt>
      <trkpt lat="40.083396" lon="-6.115463">
        <ele>281.5</ele>
        <time>1970-01-01T00:00:00Z</time>
      </trkpt>
      <trkpt lat="40.085138" lon="-6.115037">
        <ele>285.7</ele>
        <time>1970-01-01T00:00:00Z</time>
      </trkpt>
      <trkpt lat="40.085462" lon="-6.114686">
        <ele>286.1</ele>
        <time>1970-01-01T00:00:00Z</time>
      </trkpt>
      <trkpt lat="40.085429" lon="-6.114536">
        <ele>285.3</ele>
        <time>1970-01-01T00:00:00Z</time>
      </trkpt>
      <trkpt lat="40.084943" lon="-6.114353">
        <ele>282.4</ele>
        <time>1970-01-01T00:00:00Z</time>
      </trkpt>
      <trkpt lat="40.084826" lon="-6.114155">
        <ele>281.0</ele>
        <time>1970-01-01T00:00:00Z</time>
      </trkpt>
      <trkpt lat="40.084892" lon="-6.113595">
        <ele>277.4</ele>
        <time>1970-01-01T00:00:00Z</time>
      </trkpt>
      <trkpt lat="40.086790" lon="-6.113085">
        <ele>282.5</ele>
        <time>1970-01-01T00:00:00Z</time>
      </trkpt>
      <trkpt lat="40.086805" lon="-6.112809">
        <ele>282.6</ele>
        <time>1970-01-01T00:00:00Z</time>
      </trkpt>
      <trkpt lat="40.085982" lon="-6.112050">
        <ele>281.3</ele>
        <time>1970-01-01T00:00:00Z</time>
      </trkpt>
      <trkpt lat="40.085931" lon="-6.111760">
        <ele>281.5</ele>
        <time>1970-01-01T00:00:00Z</time>
      </trkpt>
      <trkpt lat="40.086171" lon="-6.111280">
        <ele>284.3</ele>
        <time>1970-01-01T00:00:00Z</time>
      </trkpt>
      <trkpt lat="40.086893" lon="-6.110462">
        <ele>284.0</ele>
        <time>1970-01-01T00:00:00Z</time>
      </trkpt>
      <trkpt lat="40.087189" lon="-6.109607">
        <ele>278.7</ele>
        <time>1970-01-01T00:00:00Z</time>
      </trkpt>
      <trkpt lat="40.087648" lon="-6.109213">
        <ele>280.1</ele>
        <time>1970-01-01T00:00:00Z</time>
      </trkpt>
      <trkpt lat="40.088363" lon="-6.108961">
        <ele>285.0</ele>
        <time>1970-01-01T00:00:00Z</time>
      </trkpt>
      <trkpt lat="40.088412" lon="-6.108564">
        <ele>287.3</ele>
        <time>1970-01-01T00:00:00Z</time>
      </trkpt>
      <trkpt lat="40.087867" lon="-6.108276">
        <ele>283.5</ele>
        <time>1970-01-01T00:00:00Z</time>
      </trkpt>
      <trkpt lat="40.087687" lon="-6.107806">
        <ele>285.0</ele>
        <time>1970-01-01T00:00:00Z</time>
      </trkpt>
      <trkpt lat="40.088598" lon="-6.105386">
        <ele>288.5</ele>
        <time>1970-01-01T00:00:00Z</time>
      </trkpt>
      <trkpt lat="40.089191" lon="-6.105146">
        <ele>291.0</ele>
        <time>1970-01-01T00:00:00Z</time>
      </trkpt>
      <trkpt lat="40.090057" lon="-6.104129">
        <ele>285.5</ele>
        <time>1970-01-01T00:00:00Z</time>
      </trkpt>
      <trkpt lat="40.090645" lon="-6.103812">
        <ele>277.6</ele>
        <time>1970-01-01T00:00:00Z</time>
      </trkpt>
      <trkpt lat="40.091046" lon="-6.104048">
        <ele>275.1</ele>
        <time>1970-01-01T00:00:00Z</time>
      </trkpt>
      <trkpt lat="40.091624" lon="-6.104869">
        <ele>274.3</ele>
        <time>1970-01-01T00:00:00Z</time>
      </trkpt>
      <trkpt lat="40.092067" lon="-6.104675">
        <ele>272.0</ele>
        <time>1970-01-01T00:00:00Z</time>
      </trkpt>
      <trkpt lat="40.093134" lon="-6.104844">
        <ele>279.2</ele>
        <time>1970-01-01T00:00:00Z</time>
      </trkpt>
      <trkpt lat="40.093268" lon="-6.104134">
        <ele>282.2</ele>
        <time>1970-01-01T00:00:00Z</time>
      </trkpt>
      <trkpt lat="40.093537" lon="-6.103640">
        <ele>285.4</ele>
        <time>1970-01-01T00:00:00Z</time>
      </trkpt>
      <trkpt lat="40.093231" lon="-6.102718">
        <ele>282.4</ele>
        <time>1970-01-01T00:00:00Z</time>
      </trkpt>
      <trkpt lat="40.092411" lon="-6.102412">
        <ele>279.2</ele>
        <time>1970-01-01T00:00:00Z</time>
      </trkpt>
      <trkpt lat="40.091889" lon="-6.101428">
        <ele>283.6</ele>
        <time>1970-01-01T00:00:00Z</time>
      </trkpt>
      <trkpt lat="40.092771" lon="-6.100216">
        <ele>284.2</ele>
        <time>1970-01-01T00:00:00Z</time>
      </trkpt>
      <trkpt lat="40.093140" lon="-6.099319">
        <ele>288.0</ele>
        <time>1970-01-01T00:00:00Z</time>
      </trkpt>
      <trkpt lat="40.092759" lon="-6.096659">
        <ele>286.4</ele>
        <time>1970-01-01T00:00:00Z</time>
      </trkpt>
      <trkpt lat="40.092345" lon="-6.095726">
        <ele>284.0</ele>
        <time>1970-01-01T00:00:00Z</time>
      </trkpt>
      <trkpt lat="40.092402" lon="-6.093094">
        <ele>285.5</ele>
        <time>1970-01-01T00:00:00Z</time>
      </trkpt>
      <trkpt lat="40.092092" lon="-6.092609">
        <ele>284.0</ele>
        <time>1970-01-01T00:00:00Z</time>
      </trkpt>
      <trkpt lat="40.091546" lon="-6.092153">
        <ele>281.2</ele>
        <time>1970-01-01T00:00:00Z</time>
      </trkpt>
      <trkpt lat="40.090487" lon="-6.092303">
        <ele>283.9</ele>
        <time>1970-01-01T00:00:00Z</time>
      </trkpt>
      <trkpt lat="40.090243" lon="-6.090165">
        <ele>290.6</ele>
        <time>1970-01-01T00:00:00Z</time>
      </trkpt>
      <trkpt lat="40.089736" lon="-6.089046">
        <ele>301.3</ele>
        <time>1970-01-01T00:00:00Z</time>
      </trkpt>
      <trkpt lat="40.089774" lon="-6.087767">
        <ele>312.2</ele>
        <time>1970-01-01T00:00:00Z</time>
      </trkpt>
      <trkpt lat="40.090095" lon="-6.087589">
        <ele>310.3</ele>
        <time>1970-01-01T00:00:00Z</time>
      </trkpt>
      <trkpt lat="40.090269" lon="-6.087101">
        <ele>310.2</ele>
        <time>1970-01-01T00:00:00Z</time>
      </trkpt>
      <trkpt lat="40.091170" lon="-6.086264">
        <ele>299.0</ele>
        <time>1970-01-01T00:00:00Z</time>
      </trkpt>
      <trkpt lat="40.092091" lon="-6.086036">
        <ele>296.0</ele>
        <time>1970-01-01T00:00:00Z</time>
      </trkpt>
      <trkpt lat="40.092233" lon="-6.085693">
        <ele>295.9</ele>
        <time>1970-01-01T00:00:00Z</time>
      </trkpt>
      <trkpt lat="40.093614" lon="-6.084413">
        <ele>303.6</ele>
        <time>1970-01-01T00:00:00Z</time>
      </trkpt>
      <trkpt lat="40.095163" lon="-6.083553">
        <ele>313.7</ele>
        <time>1970-01-01T00:00:00Z</time>
      </trkpt>
      <trkpt lat="40.096505" lon="-6.082072">
        <ele>325.7</ele>
        <time>1970-01-01T00:00:00Z</time>
      </trkpt>
      <trkpt lat="40.097444" lon="-6.081788">
        <ele>324.2</ele>
        <time>1970-01-01T00:00:00Z</time>
      </trkpt>
      <trkpt lat="40.099087" lon="-6.081793">
        <ele>326.4</ele>
        <time>1970-01-01T00:00:00Z</time>
      </trkpt>
      <trkpt lat="40.100650" lon="-6.081209">
        <ele>333.2</ele>
        <time>1970-01-01T00:00:00Z</time>
      </trkpt>
      <trkpt lat="40.101884" lon="-6.081259">
        <ele>332.8</ele>
        <time>1970-01-01T00:00:00Z</time>
      </trkpt>
      <trkpt lat="40.104726" lon="-6.082957">
        <ele>348.0</ele>
        <time>1970-01-01T00:00:00Z</time>
      </trkpt>
      <trkpt lat="40.105444" lon="-6.083080">
        <ele>350.6</ele>
        <time>1970-01-01T00:00:00Z</time>
      </trkpt>
      <trkpt lat="40.106494" lon="-6.082952">
        <ele>356.7</ele>
        <time>1970-01-01T00:00:00Z</time>
      </trkpt>
      <trkpt lat="40.107977" lon="-6.083479">
        <ele>372.1</ele>
        <time>1970-01-01T00:00:00Z</time>
      </trkpt>
      <trkpt lat="40.110447" lon="-6.085625">
        <ele>384.5</ele>
        <time>1970-01-01T00:00:00Z</time>
      </trkpt>
      <trkpt lat="40.111247" lon="-6.086081">
        <ele>392.3</ele>
        <time>1970-01-01T00:00:00Z</time>
      </trkpt>
      <trkpt lat="40.112166" lon="-6.086290">
        <ele>400.0</ele>
        <time>1970-01-01T00:00:00Z</time>
      </trkpt>
      <trkpt lat="40.112379" lon="-6.086682">
        <ele>402.9</ele>
        <time>1970-01-01T00:00:00Z</time>
      </trkpt>
      <trkpt lat="40.112810" lon="-6.086881">
        <ele>404.0</ele>
        <time>1970-01-01T00:00:00Z</time>
      </trkpt>
      <trkpt lat="40.113232" lon="-6.088624">
        <ele>407.7</ele>
        <time>1970-01-01T00:00:00Z</time>
      </trkpt>
      <trkpt lat="40.113511" lon="-6.089247">
        <ele>411.0</ele>
        <time>1970-01-01T00:00:00Z</time>
      </trkpt>
      <trkpt lat="40.114166" lon="-6.088348">
        <ele>411.0</ele>
        <time>1970-01-01T00:00:00Z</time>
      </trkpt>
      <trkpt lat="40.114863" lon="-6.088614">
        <ele>410.2</ele>
        <time>1970-01-01T00:00:00Z</time>
      </trkpt>
      <trkpt lat="40.118250" lon="-6.089159">
        <ele>414.5</ele>
        <time>1970-01-01T00:00:00Z</time>
      </trkpt>
      <trkpt lat="40.118891" lon="-6.089501">
        <ele>417.7</ele>
        <time>1970-01-01T00:00:00Z</time>
      </trkpt>
      <trkpt lat="40.119986" lon="-6.090505">
        <ele>418.2</ele>
        <time>1970-01-01T00:00:00Z</time>
      </trkpt>
      <trkpt lat="40.122039" lon="-6.093284">
        <ele>415.0</ele>
        <time>1970-01-01T00:00:00Z</time>
      </trkpt>
      <trkpt lat="40.124193" lon="-6.094805">
        <ele>417.1</ele>
        <time>1970-01-01T00:00:00Z</time>
      </trkpt>
      <trkpt lat="40.125757" lon="-6.094709">
        <ele>419.1</ele>
        <time>1970-01-01T00:00:00Z</time>
      </trkpt>
      <trkpt lat="40.127181" lon="-6.095410">
        <ele>417.9</ele>
        <time>1970-01-01T00:00:00Z</time>
      </trkpt>
      <trkpt lat="40.127872" lon="-6.095502">
        <ele>416.0</ele>
        <time>1970-01-01T00:00:00Z</time>
      </trkpt>
      <trkpt lat="40.128533" lon="-6.096021">
        <ele>415.0</ele>
        <time>1970-01-01T00:00:00Z</time>
      </trkpt>
      <trkpt lat="40.129403" lon="-6.096372">
        <ele>415.1</ele>
        <time>1970-01-01T00:00:00Z</time>
      </trkpt>
      <trkpt lat="40.132328" lon="-6.096721">
        <ele>410.0</ele>
        <time>1970-01-01T00:00:00Z</time>
      </trkpt>
      <trkpt lat="40.133002" lon="-6.097106">
        <ele>408.0</ele>
        <time>1970-01-01T00:00:00Z</time>
      </trkpt>
      <trkpt lat="40.135899" lon="-6.097443">
        <ele>405.0</ele>
        <time>1970-01-01T00:00:00Z</time>
      </trkpt>
      <trkpt lat="40.137168" lon="-6.097718">
        <ele>401.4</ele>
        <time>1970-01-01T00:00:00Z</time>
      </trkpt>
      <trkpt lat="40.137976" lon="-6.098222">
        <ele>395.0</ele>
        <time>1970-01-01T00:00:00Z</time>
      </trkpt>
      <trkpt lat="40.138768" lon="-6.098485">
        <ele>396.2</ele>
        <time>1970-01-01T00:00:00Z</time>
      </trkpt>
      <trkpt lat="40.140119" lon="-6.098579">
        <ele>396.0</ele>
        <time>1970-01-01T00:00:00Z</time>
      </trkpt>
      <trkpt lat="40.142281" lon="-6.099504">
        <ele>393.5</ele>
        <time>1970-01-01T00:00:00Z</time>
      </trkpt>
      <trkpt lat="40.142900" lon="-6.100030">
        <ele>394.0</ele>
        <time>1970-01-01T00:00:00Z</time>
      </trkpt>
      <trkpt lat="40.143945" lon="-6.100266">
        <ele>395.0</ele>
        <time>1970-01-01T00:00:00Z</time>
      </trkpt>
      <trkpt lat="40.146522" lon="-6.101390">
        <ele>396.3</ele>
        <time>1970-01-01T00:00:00Z</time>
      </trkpt>
      <trkpt lat="40.149515" lon="-6.101366">
        <ele>398.5</ele>
        <time>1970-01-01T00:00:00Z</time>
      </trkpt>
      <trkpt lat="40.150903" lon="-6.100676">
        <ele>401.9</ele>
        <time>1970-01-01T00:00:00Z</time>
      </trkpt>
      <trkpt lat="40.151753" lon="-6.099855">
        <ele>400.1</ele>
        <time>1970-01-01T00:00:00Z</time>
      </trkpt>
      <trkpt lat="40.152432" lon="-6.099667">
        <ele>397.9</ele>
        <time>1970-01-01T00:00:00Z</time>
      </trkpt>
      <trkpt lat="40.154308" lon="-6.098638">
        <ele>386.3</ele>
        <time>1970-01-01T00:00:00Z</time>
      </trkpt>
      <trkpt lat="40.155249" lon="-6.098356">
        <ele>379.2</ele>
        <time>1970-01-01T00:00:00Z</time>
      </trkpt>
      <trkpt lat="40.156798" lon="-6.098592">
        <ele>383.0</ele>
        <time>1970-01-01T00:00:00Z</time>
      </trkpt>
      <trkpt lat="40.159370" lon="-6.099874">
        <ele>388.0</ele>
        <time>1970-01-01T00:00:00Z</time>
      </trkpt>
      <trkpt lat="40.161405" lon="-6.101271">
        <ele>389.6</ele>
        <time>1970-01-01T00:00:00Z</time>
      </trkpt>
      <trkpt lat="40.162519" lon="-6.103079">
        <ele>394.5</ele>
        <time>1970-01-01T00:00:00Z</time>
      </trkpt>
      <trkpt lat="40.163969" lon="-6.099599">
        <ele>394.0</ele>
        <time>1970-01-01T00:00:00Z</time>
      </trkpt>
      <trkpt lat="40.164082" lon="-6.098751">
        <ele>393.0</ele>
        <time>1970-01-01T00:00:00Z</time>
      </trkpt>
      <trkpt lat="40.162839" lon="-6.097848">
        <ele>390.5</ele>
        <time>1970-01-01T00:00:00Z</time>
      </trkpt>
      <trkpt lat="40.159334" lon="-6.088788">
        <ele>374.0</ele>
        <time>1970-01-01T00:00:00Z</time>
      </trkpt>
      <trkpt lat="40.159033" lon="-6.087394">
        <ele>379.3</ele>
        <time>1970-01-01T00:00:00Z</time>
      </trkpt>
      <trkpt lat="40.162940" lon="-6.085193">
        <ele>387.3</ele>
        <time>1970-01-01T00:00:00Z</time>
      </trkpt>
      <trkpt lat="40.163566" lon="-6.084627">
        <ele>383.0</ele>
        <time>1970-01-01T00:00:00Z</time>
      </trkpt>
      <trkpt lat="40.164696" lon="-6.082390">
        <ele>376.9</ele>
        <time>1970-01-01T00:00:00Z</time>
      </trkpt>
      <trkpt lat="40.165331" lon="-6.079440">
        <ele>372.1</ele>
        <time>1970-01-01T00:00:00Z</time>
      </trkpt>
      <trkpt lat="40.165378" lon="-6.077974">
        <ele>368.0</ele>
        <time>1970-01-01T00:00:00Z</time>
      </trkpt>
      <trkpt lat="40.165033" lon="-6.072266">
        <ele>367.6</ele>
        <time>1970-01-01T00:00:00Z</time>
      </trkpt>
      <trkpt lat="40.163447" lon="-6.062711">
        <ele>373.2</ele>
        <time>1970-01-01T00:00:00Z</time>
      </trkpt>
      <trkpt lat="40.163490" lon="-6.061394">
        <ele>379.9</ele>
        <time>1970-01-01T00:00:00Z</time>
      </trkpt>
      <trkpt lat="40.166431" lon="-6.057987">
        <ele>387.9</ele>
        <time>1970-01-01T00:00:00Z</time>
      </trkpt>
      <trkpt lat="40.177556" lon="-6.051617">
        <ele>366.2</ele>
        <time>1970-01-01T00:00:00Z</time>
      </trkpt>
      <trkpt lat="40.180371" lon="-6.048499">
        <ele>369.0</ele>
        <time>1970-01-01T00:00:00Z</time>
      </trkpt>
      <trkpt lat="40.187290" lon="-6.045901">
        <ele>383.8</ele>
        <time>1970-01-01T00:00:00Z</time>
      </trkpt>
      <trkpt lat="40.187833" lon="-6.045506">
        <ele>383.0</ele>
        <time>1970-01-01T00:00:00Z</time>
      </trkpt>
      <trkpt lat="40.192802" lon="-6.036296">
        <ele>377.7</ele>
        <time>1970-01-01T00:00:00Z</time>
      </trkpt>
      <trkpt lat="40.196274" lon="-6.029529">
        <ele>386.0</ele>
        <time>1970-01-01T00:00:00Z</time>
      </trkpt>
      <trkpt lat="40.200791" lon="-6.021770">
        <ele>383.2</ele>
        <time>1970-01-01T00:00:00Z</time>
      </trkpt>
      <trkpt lat="40.205921" lon="-6.011026">
        <ele>381.5</ele>
        <time>1970-01-01T00:00:00Z</time>
      </trkpt>
      <trkpt lat="40.208398" lon="-6.006383">
        <ele>374.2</ele>
        <time>1970-01-01T00:00:00Z</time>
      </trkpt>
      <trkpt lat="40.208562" lon="-6.004630">
        <ele>373.5</ele>
        <time>1970-01-01T00:00:00Z</time>
      </trkpt>
      <trkpt lat="40.208750" lon="-6.004106">
        <ele>374.0</ele>
        <time>1970-01-01T00:00:00Z</time>
      </trkpt>
      <trkpt lat="40.209799" lon="-6.002359">
        <ele>377.0</ele>
        <time>1970-01-01T00:00:00Z</time>
      </trkpt>
      <trkpt lat="40.210936" lon="-5.999882">
        <ele>382.1</ele>
        <time>1970-01-01T00:00:00Z</time>
      </trkpt>
      <trkpt lat="40.211184" lon="-5.999638">
        <ele>383.9</ele>
        <time>1970-01-01T00:00:00Z</time>
      </trkpt>
      <trkpt lat="40.213396" lon="-5.995259">
        <ele>385.0</ele>
        <time>1970-01-01T00:00:00Z</time>
      </trkpt>
      <trkpt lat="40.218905" lon="-5.987062">
        <ele>399.4</ele>
        <time>1970-01-01T00:00:00Z</time>
      </trkpt>
      <trkpt lat="40.220656" lon="-5.984790">
        <ele>400.0</ele>
        <time>1970-01-01T00:00:00Z</time>
      </trkpt>
      <trkpt lat="40.221239" lon="-5.984441">
        <ele>397.5</ele>
        <time>1970-01-01T00:00:00Z</time>
      </trkpt>
      <trkpt lat="40.222503" lon="-5.983161">
        <ele>390.9</ele>
        <time>1970-01-01T00:00:00Z</time>
      </trkpt>
      <trkpt lat="40.222673" lon="-5.982507">
        <ele>388.2</ele>
        <time>1970-01-01T00:00:00Z</time>
      </trkpt>
      <trkpt lat="40.222536" lon="-5.982072">
        <ele>388.0</ele>
        <time>1970-01-01T00:00:00Z</time>
      </trkpt>
      <trkpt lat="40.222233" lon="-5.981787">
        <ele>388.0</ele>
        <time>1970-01-01T00:00:00Z</time>
      </trkpt>
      <trkpt lat="40.220832" lon="-5.982208">
        <ele>399.9</ele>
        <time>1970-01-01T00:00:00Z</time>
      </trkpt>
      <trkpt lat="40.220711" lon="-5.982055">
        <ele>399.5</ele>
        <time>1970-01-01T00:00:00Z</time>
      </trkpt>
      <trkpt lat="40.222059" lon="-5.981457">
        <ele>386.7</ele>
        <time>1970-01-01T00:00:00Z</time>
      </trkpt>
      <trkpt lat="40.225646" lon="-5.980394">
        <ele>402.8</ele>
        <time>1970-01-01T00:00:00Z</time>
      </trkpt>
      <trkpt lat="40.232996" lon="-5.975710">
        <ele>419.9</ele>
        <time>1970-01-01T00:00:00Z</time>
      </trkpt>
      <trkpt lat="40.234147" lon="-5.975632">
        <ele>410.4</ele>
        <time>1970-01-01T00:00:00Z</time>
      </trkpt>
      <trkpt lat="40.234646" lon="-5.975822">
        <ele>411.5</ele>
        <time>1970-01-01T00:00:00Z</time>
      </trkpt>
      <trkpt lat="40.234912" lon="-5.976182">
        <ele>412.1</ele>
        <time>1970-01-01T00:00:00Z</time>
      </trkpt>
      <trkpt lat="40.235103" lon="-5.976157">
        <ele>413.8</ele>
        <time>1970-01-01T00:00:00Z</time>
      </trkpt>
      <trkpt lat="40.235320" lon="-5.975833">
        <ele>416.4</ele>
        <time>1970-01-01T00:00:00Z</time>
      </trkpt>
      <trkpt lat="40.236361" lon="-5.975094">
        <ele>418.9</ele>
        <time>1970-01-01T00:00:00Z</time>
      </trkpt>
      <trkpt lat="40.237281" lon="-5.973965">
        <ele>419.7</ele>
        <time>1970-01-01T00:00:00Z</time>
      </trkpt>
      <trkpt lat="40.237914" lon="-5.972715">
        <ele>423.7</ele>
        <time>1970-01-01T00:00:00Z</time>
      </trkpt>
      <trkpt lat="40.242288" lon="-5.961980">
        <ele>451.9</ele>
        <time>1970-01-01T00:00:00Z</time>
      </trkpt>
      <trkpt lat="40.244208" lon="-5.959930">
        <ele>447.2</ele>
        <time>1970-01-01T00:00:00Z</time>
      </trkpt>
      <trkpt lat="40.246223" lon="-5.955113">
        <ele>477.7</ele>
        <time>1970-01-01T00:00:00Z</time>
      </trkpt>
      <trkpt lat="40.249996" lon="-5.950642">
        <ele>488.8</ele>
        <time>1970-01-01T00:00:00Z</time>
      </trkpt>
      <trkpt lat="40.252506" lon="-5.945729">
        <ele>501.2</ele>
        <time>1970-01-01T00:00:00Z</time>
      </trkpt>
      <trkpt lat="40.253554" lon="-5.942467">
        <ele>510.8</ele>
        <time>1970-01-01T00:00:00Z</time>
      </trkpt>
      <trkpt lat="40.257259" lon="-5.936362">
        <ele>523.0</ele>
        <time>1970-01-01T00:00:00Z</time>
      </trkpt>
      <trkpt lat="40.256493" lon="-5.935590">
        <ele>527.3</ele>
        <time>1970-01-01T00:00:00Z</time>
      </trkpt>
      <trkpt lat="40.259125" lon="-5.929152">
        <ele>520.9</ele>
        <time>1970-01-01T00:00:00Z</time>
      </trkpt>
      <trkpt lat="40.260105" lon="-5.927340">
        <ele>517.7</ele>
        <time>1970-01-01T00:00:00Z</time>
      </trkpt>
      <trkpt lat="40.260704" lon="-5.923878">
        <ele>512.9</ele>
        <time>1970-01-01T00:00:00Z</time>
      </trkpt>
      <trkpt lat="40.261661" lon="-5.922936">
        <ele>515.1</ele>
        <time>1970-01-01T00:00:00Z</time>
      </trkpt>
      <trkpt lat="40.264057" lon="-5.917098">
        <ele>532.9</ele>
        <time>1970-01-01T00:00:00Z</time>
      </trkpt>
      <trkpt lat="40.264376" lon="-5.916862">
        <ele>534.0</ele>
        <time>1970-01-01T00:00:00Z</time>
      </trkpt>
      <trkpt lat="40.264333" lon="-5.916562">
        <ele>534.4</ele>
        <time>1970-01-01T00:00:00Z</time>
      </trkpt>
      <trkpt lat="40.264110" lon="-5.916382">
        <ele>533.1</ele>
        <time>1970-01-01T00:00:00Z</time>
      </trkpt>
      <trkpt lat="40.263631" lon="-5.914335">
        <ele>528.3</ele>
        <time>1970-01-01T00:00:00Z</time>
      </trkpt>
      <trkpt lat="40.263878" lon="-5.914149">
        <ele>529.1</ele>
        <time>1970-01-01T00:00:00Z</time>
      </trkpt>
      <trkpt lat="40.264722" lon="-5.914126">
        <ele>534.2</ele>
        <time>1970-01-01T00:00:00Z</time>
      </trkpt>
      <trkpt lat="40.265113" lon="-5.913848">
        <ele>535.0</ele>
        <time>1970-01-01T00:00:00Z</time>
      </trkpt>
      <trkpt lat="40.265898" lon="-5.912579">
        <ele>537.2</ele>
        <time>1970-01-01T00:00:00Z</time>
      </trkpt>
      <trkpt lat="40.266682" lon="-5.911624">
        <ele>542.3</ele>
        <time>1970-01-01T00:00:00Z</time>
      </trkpt>
      <trkpt lat="40.267225" lon="-5.910530">
        <ele>541.3</ele>
        <time>1970-01-01T00:00:00Z</time>
      </trkpt>
      <trkpt lat="40.267129" lon="-5.910267">
        <ele>540.7</ele>
        <time>1970-01-01T00:00:00Z</time>
      </trkpt>
      <trkpt lat="40.267528" lon="-5.905063">
        <ele>546.6</ele>
        <time>1970-01-01T00:00:00Z</time>
      </trkpt>
      <trkpt lat="40.268140" lon="-5.902194">
        <ele>557.7</ele>
        <time>1970-01-01T00:00:00Z</time>
      </trkpt>
      <trkpt lat="40.269273" lon="-5.891817">
        <ele>582.5</ele>
        <time>1970-01-01T00:00:00Z</time>
      </trkpt>
      <trkpt lat="40.269518" lon="-5.891082">
        <ele>584.8</ele>
        <time>1970-01-01T00:00:00Z</time>
      </trkpt>
      <trkpt lat="40.270457" lon="-5.889818">
        <ele>581.9</ele>
        <time>1970-01-01T00:00:00Z</time>
      </trkpt>
      <trkpt lat="40.270579" lon="-5.889085">
        <ele>580.4</ele>
        <time>1970-01-01T00:00:00Z</time>
      </trkpt>
      <trkpt lat="40.269083" lon="-5.877642">
        <ele>611.8</ele>
        <time>1970-01-01T00:00:00Z</time>
      </trkpt>
      <trkpt lat="40.269214" lon="-5.876993">
        <ele>614.9</ele>
        <time>1970-01-01T00:00:00Z</time>
      </trkpt>
      <trkpt lat="40.270103" lon="-5.874825">
        <ele>617.5</ele>
        <time>1970-01-01T00:00:00Z</time>
      </trkpt>
      <trkpt lat="40.270675" lon="-5.871384">
        <ele>640.9</ele>
        <time>1970-01-01T00:00:00Z</time>
      </trkpt>
      <trkpt lat="40.271643" lon="-5.868173">
        <ele>651.3</ele>
        <time>1970-01-01T00:00:00Z</time>
      </trkpt>
      <trkpt lat="40.272375" lon="-5.861932">
        <ele>661.9</ele>
        <time>1970-01-01T00:00:00Z</time>
      </trkpt>
      <trkpt lat="40.272307" lon="-5.861779">
        <ele>662.4</ele>
        <time>1970-01-01T00:00:00Z</time>
      </trkpt>
      <trkpt lat="40.270027" lon="-5.860918">
        <ele>668.5</ele>
        <time>1970-01-01T00:00:00Z</time>
      </trkpt>
      <trkpt lat="40.269903" lon="-5.860647">
        <ele>671.8</ele>
        <time>1970-01-01T00:00:00Z</time>
      </trkpt>
      <trkpt lat="40.270049" lon="-5.860210">
        <ele>672.6</ele>
        <time>1970-01-01T00:00:00Z</time>
      </trkpt>
      <trkpt lat="40.269984" lon="-5.859762">
        <ele>678.1</ele>
        <time>1970-01-01T00:00:00Z</time>
      </trkpt>
      <trkpt lat="40.271848" lon="-5.853934">
        <ele>694.1</ele>
        <time>1970-01-01T00:00:00Z</time>
      </trkpt>
      <trkpt lat="40.272202" lon="-5.853108">
        <ele>692.9</ele>
        <time>1970-01-01T00:00:00Z</time>
      </trkpt>
      <trkpt lat="40.272665" lon="-5.852488">
        <ele>689.0</ele>
        <time>1970-01-01T00:00:00Z</time>
      </trkpt>
      <trkpt lat="40.273502" lon="-5.851863">
        <ele>686.0</ele>
        <time>1970-01-01T00:00:00Z</time>
      </trkpt>
      <trkpt lat="40.274740" lon="-5.851646">
        <ele>690.5</ele>
        <time>1970-01-01T00:00:00Z</time>
      </trkpt>
      <trkpt lat="40.276581" lon="-5.852284">
        <ele>696.6</ele>
        <time>1970-01-01T00:00:00Z</time>
      </trkpt>
      <trkpt lat="40.277376" lon="-5.852319">
        <ele>696.2</ele>
        <time>1970-01-01T00:00:00Z</time>
      </trkpt>
      <trkpt lat="40.277988" lon="-5.852124">
        <ele>697.0</ele>
        <time>1970-01-01T00:00:00Z</time>
      </trkpt>
      <trkpt lat="40.278631" lon="-5.851674">
        <ele>700.4</ele>
        <time>1970-01-01T00:00:00Z</time>
      </trkpt>
      <trkpt lat="40.281909" lon="-5.847753">
        <ele>728.0</ele>
        <time>1970-01-01T00:00:00Z</time>
      </trkpt>
      <trkpt lat="40.282453" lon="-5.846943">
        <ele>722.6</ele>
        <time>1970-01-01T00:00:00Z</time>
      </trkpt>
      <trkpt lat="40.283666" lon="-5.844295">
        <ele>740.8</ele>
        <time>1970-01-01T00:00:00Z</time>
      </trkpt>
      <trkpt lat="40.284088" lon="-5.843683">
        <ele>746.6</ele>
        <time>1970-01-01T00:00:00Z</time>
      </trkpt>
      <trkpt lat="40.284485" lon="-5.843377">
        <ele>743.1</ele>
        <time>1970-01-01T00:00:00Z</time>
      </trkpt>
      <trkpt lat="40.285488" lon="-5.843002">
        <ele>718.5</ele>
        <time>1970-01-01T00:00:00Z</time>
      </trkpt>
      <trkpt lat="40.286646" lon="-5.843141">
        <ele>703.5</ele>
        <time>1970-01-01T00:00:00Z</time>
      </trkpt>
      <trkpt lat="40.287161" lon="-5.843407">
        <ele>699.7</ele>
        <time>1970-01-01T00:00:00Z</time>
      </trkpt>
      <trkpt lat="40.287889" lon="-5.844212">
        <ele>703.3</ele>
        <time>1970-01-01T00:00:00Z</time>
      </trkpt>
      <trkpt lat="40.288204" lon="-5.844856">
        <ele>708.2</ele>
        <time>1970-01-01T00:00:00Z</time>
      </trkpt>
      <trkpt lat="40.289579" lon="-5.849507">
        <ele>717.3</ele>
        <time>1970-01-01T00:00:00Z</time>
      </trkpt>
      <trkpt lat="40.289432" lon="-5.851272">
        <ele>723.3</ele>
        <time>1970-01-01T00:00:00Z</time>
      </trkpt>
      <trkpt lat="40.288249" lon="-5.853648">
        <ele>748.0</ele>
        <time>1970-01-01T00:00:00Z</time>
      </trkpt>
      <trkpt lat="40.287951" lon="-5.854479">
        <ele>740.2</ele>
        <time>1970-01-01T00:00:00Z</time>
      </trkpt>
      <trkpt lat="40.287771" lon="-5.855644">
        <ele>731.7</ele>
        <time>1970-01-01T00:00:00Z</time>
      </trkpt>
      <trkpt lat="40.287934" lon="-5.857167">
        <ele>743.6</ele>
        <time>1970-01-01T00:00:00Z</time>
      </trkpt>
      <trkpt lat="40.288457" lon="-5.859447">
        <ele>743.6</ele>
        <time>1970-01-01T00:00:00Z</time>
      </trkpt>
      <trkpt lat="40.288225" lon="-5.865259">
        <ele>749.4</ele>
        <time>1970-01-01T00:00:00Z</time>
      </trkpt>
      <trkpt lat="40.288323" lon="-5.866444">
        <ele>751.9</ele>
        <time>1970-01-01T00:00:00Z</time>
      </trkpt>
      <trkpt lat="40.288793" lon="-5.867625">
        <ele>763.4</ele>
        <time>1970-01-01T00:00:00Z</time>
      </trkpt>
      <trkpt lat="40.289207" lon="-5.868193">
        <ele>761.7</ele>
        <time>1970-01-01T00:00:00Z</time>
      </trkpt>
      <trkpt lat="40.290209" lon="-5.868858">
        <ele>763.3</ele>
        <time>1970-01-01T00:00:00Z</time>
      </trkpt>
      <trkpt lat="40.292712" lon="-5.869046">
        <ele>779.1</ele>
        <time>1970-01-01T00:00:00Z</time>
      </trkpt>
      <trkpt lat="40.294847" lon="-5.869624">
        <ele>781.0</ele>
        <time>1970-01-01T00:00:00Z</time>
      </trkpt>
      <trkpt lat="40.295420" lon="-5.869560">
        <ele>786.7</ele>
        <time>1970-01-01T00:00:00Z</time>
      </trkpt>
      <trkpt lat="40.296103" lon="-5.869206">
        <ele>785.7</ele>
        <time>1970-01-01T00:00:00Z</time>
      </trkpt>
      <trkpt lat="40.296725" lon="-5.868556">
        <ele>784.7</ele>
        <time>1970-01-01T00:00:00Z</time>
      </trkpt>
      <trkpt lat="40.298778" lon="-5.865057">
        <ele>798.9</ele>
        <time>1970-01-01T00:00:00Z</time>
      </trkpt>
      <trkpt lat="40.299592" lon="-5.863989">
        <ele>800.0</ele>
        <time>1970-01-01T00:00:00Z</time>
      </trkpt>
      <trkpt lat="40.302788" lon="-5.861695">
        <ele>805.9</ele>
        <time>1970-01-01T00:00:00Z</time>
      </trkpt>
      <trkpt lat="40.306782" lon="-5.859688">
        <ele>819.6</ele>
        <time>1970-01-01T00:00:00Z</time>
      </trkpt>
      <trkpt lat="40.308958" lon="-5.857746">
        <ele>807.8</ele>
        <time>1970-01-01T00:00:00Z</time>
      </trkpt>
      <trkpt lat="40.311261" lon="-5.857113">
        <ele>811.3</ele>
        <time>1970-01-01T00:00:00Z</time>
      </trkpt>
      <trkpt lat="40.312095" lon="-5.856631">
        <ele>817.7</ele>
        <time>1970-01-01T00:00:00Z</time>
      </trkpt>
      <trkpt lat="40.312586" lon="-5.856116">
        <ele>812.2</ele>
        <time>1970-01-01T00:00:00Z</time>
      </trkpt>
      <trkpt lat="40.313846" lon="-5.853563">
        <ele>825.9</ele>
        <time>1970-01-01T00:00:00Z</time>
      </trkpt>
      <trkpt lat="40.317675" lon="-5.850290">
        <ele>841.8</ele>
        <time>1970-01-01T00:00:00Z</time>
      </trkpt>
      <trkpt lat="40.318534" lon="-5.849872">
        <ele>844.4</ele>
        <time>1970-01-01T00:00:00Z</time>
      </trkpt>
      <trkpt lat="40.319414" lon="-5.849761">
        <ele>847.8</ele>
        <time>1970-01-01T00:00:00Z</time>
      </trkpt>
      <trkpt lat="40.320249" lon="-5.849890">
        <ele>844.6</ele>
        <time>1970-01-01T00:00:00Z</time>
      </trkpt>
      <trkpt lat="40.321988" lon="-5.850608">
        <ele>863.0</ele>
        <time>1970-01-01T00:00:00Z</time>
      </trkpt>
      <trkpt lat="40.325481" lon="-5.853382">
        <ele>842.3</ele>
        <time>1970-01-01T00:00:00Z</time>
      </trkpt>
      <trkpt lat="40.326413" lon="-5.853774">
        <ele>848.1</ele>
        <time>1970-01-01T00:00:00Z</time>
      </trkpt>
      <trkpt lat="40.327460" lon="-5.853866">
        <ele>860.1</ele>
        <time>1970-01-01T00:00:00Z</time>
      </trkpt>
      <trkpt lat="40.328486" lon="-5.853688">
        <ele>866.2</ele>
        <time>1970-01-01T00:00:00Z</time>
      </trkpt>
      <trkpt lat="40.330826" lon="-5.852419">
        <ele>876.9</ele>
        <time>1970-01-01T00:00:00Z</time>
      </trkpt>
      <trkpt lat="40.330849" lon="-5.852407">
        <ele>877.2</ele>
        <time>1970-01-01T00:00:00Z</time>
      </trkpt>
    </trkseg>
  </trk>
</gpx>
